[[[{"header":{"parameterUnit":"kt","parameterCategory":2,"dx":1,"dy":1,"la1":29.587661999999998,"la2":31.0,"lo1":-88.76705300000003,"lo2":-86.6583820000003,"nx":115,"ny":88,"refTime":"2022-11-02T06:00:00:Z","depth":0,"parameterNumber":1,"parameterNumberName":"U-component_of_WINDS"},"data":[0.168,0.0,0.0,0.0,0.0,0.0,0.0,0.0,0.0,0.0,0.0,0.0,0.0,0.0,0.0,0.0,0.0,0.0,0.0,0.0,0.0,0.0,0.0,0.0,0.0,0.0,0.0,0.0,0.0,0.0,0.0,0.0,0.0,0.0,0.0,0.0,0.0,0.0,0.0,0.0,0.0,0.0,0.0,-0.0247,-0.0249,-0.0249,-0.0249,-0.025,-0.025,-0.025,0.0,0.0,-0.0745,-0.099,-0.1109,-0.1225,-0.1467,-0.1582,-0.182,-0.1936,-0.2058,-0.2176,-0.266,-0.3141,-0.3261,-0.3502,-0.3499,-0.3614,-0.3612,-0.3728,-0.3846,-0.3844,-0.3962,-0.3962,-0.3962,-0.3962,-0.3962,-0.3842,-0.3842,-0.3842,-0.3722,-0.3728,-0.362,-0.3667,-0.3734,-0.3771,-0.3832,-0.3883,-0.3766,-0.4433,-0.5101,-0.523,-0.5488,-0.8348,-1.1329,-1.1325,-1.2732,-1.4958,-1.6784,-1.7755,-1.852,-1.9236,-1.901,-1.8725,-1.8767,-1.8973,-1.8955,-1.8967,-1.9162,-1.9283,-1.9126,-1.9052,-1.9248,-1.9435,-1.9475,0.0,0.0,0.0,0.0,0.0,0.0,0.0,0.0,0.0,0.0,0.0,-0.0599,-0.048,0.0,0.0,0.0,0.0,0.0,0.0,0.0,0.0,0.0,0.0,0.0,0.0,0.0,0.0,0.0,0.0,0.0,0.0,0.0,0.0,0.0,0.0,0.0,0.0,0.0,0.0,0.0,0.0,-0.0486,-0.0727,-0.0845,-0.0845,-0.0845,-0.1092,-0.122,-0.123,-0.1231,-0.1231,-0.1347,-0.1585,-0.1702,-0.1814,-0.1936,-0.2054,-0.217,-0.2283,-0.2521,-0.2761,-0.3002,-0.3484,-0.3725,-0.3728,-0.3848,-0.3848,-0.3845,-0.3845,-0.3844,-0.3844,-0.3962,-0.3962,-0.3962,-0.3962,-0.3962,-0.3962,-0.3962,-0.3962,-0.3842,-0.3842,-0.3842,-0.3865,-0.3895,-0.3935,-0.3837,-0.3884,-0.4069,-0.4634,-0.5951,-0.7767,-0.8402,-0.9671,-1.0744,-1.234,-1.3736,-1.5624,-1.7431,-1.8257,-1.941,-2.0168,-1.9983,-1.964,-1.9243,-1.9174,-1.9331,-1.945,-1.9388,-1.9674,-1.9878,-1.9726,-1.9558,-1.9664,-1.9683,-1.9844,0.0,0.0,0.0,-0.0223,-0.0452,-0.0455,-0.0689,-0.0928,-0.0942,-0.0944,-0.1054,-0.0936,-0.0705,-0.0474,0.0,0.0,0.0,0.0,0.0,0.0,0.0,0.0,0.0,0.0,0.0,0.0,0.0,0.0,0.0,-0.048,-0.06,0.0,0.0,0.0,0.0,0.0,0.0,-0.1081,0.0,0.0,0.0,-0.1327,-0.1442,-0.1561,-0.1561,-0.1562,-0.1686,-0.1689,-0.1698,-0.1698,-0.1821,-0.205,-0.2167,-0.2281,-0.2521,-0.2521,-0.2761,-0.3002,-0.3122,-0.3242,-0.3482,-0.3482,-0.3842,-0.3842,-0.3962,-0.3962,-0.3962,-0.3962,-0.3962,-0.3962,-0.3962,-0.3962,-0.3962,-0.3962,-0.3962,-0.3962,-0.3962,-0.3962,-0.3962,-0.3962,-0.3962,-0.3964,-0.4334,-0.4369,-0.4519,-0.455,-0.5843,-0.6315,-0.7273,-0.8482,-1.0614,-1.2358,-1.4952,-1.6379,-1.5856,-1.6772,-1.8181,-1.8743,-1.94,-2.0035,-2.0154,-2.0213,-2.0154,-1.9846,-1.965,-1.9676,-1.9689,-1.9807,-2.0002,-1.9857,-1.9883,-1.9916,-2.0002,-1.9924,-1.9715,0.0,0.0,0.0,-0.0329,-0.0778,-0.0892,-0.1239,-0.1709,-0.1961,-0.2073,-0.1941,-0.1488,-0.1154,-0.1049,0.0,0.0,0.0,0.0,0.0,0.0,0.0,0.0,0.0,0.0,0.0,-0.048,-0.048,0.0,-0.084,-0.1201,-0.1441,-0.072,-0.1201,-0.1561,-0.1201,-0.1201,-0.1321,-0.1681,-0.1561,-0.1803,-0.2046,-0.2162,-0.2161,-0.2161,-0.2161,-0.2161,-0.2282,-0.2283,-0.2402,-0.2281,-0.2281,-0.2401,-0.2401,-0.2882,-0.3122,-0.3242,-0.3482,-0.3602,-0.3722,-0.3722,-0.3722,-0.3842,-0.3842,-0.3962,-0.3962,-0.3962,-0.3962,-0.3962,-0.3962,-0.3962,-0.3962,-0.3962,-0.3962,-0.3962,-0.3962,-0.3962,-0.3962,-0.3962,-0.3962,-0.3962,-0.3962,-0.4324,-0.4807,-0.5072,-0.5105,-0.6247,-0.7908,-0.8851,-0.9811,-1.1845,-1.4029,-1.5943,-1.8856,-1.9501,-1.9447,-1.9524,-1.9369,-1.9825,-1.9852,-1.9924,-2.0009,-1.991,-1.9811,-1.9824,-1.9798,-1.9531,-1.9492,-1.9758,-1.9765,-1.9659,-1.9626,-1.956,-1.962,-1.9673,-1.9429,0.0,0.0,0.0,-0.0327,-0.0876,-0.1443,-0.1676,-0.1792,-0.2806,-0.3029,-0.2584,-0.2501,-0.2172,-0.1605,-0.1492,-0.1389,-0.1287,-0.1296,-0.1304,0.0,-0.1559,-0.1441,-0.1561,-0.1801,-0.1441,-0.1681,-0.1681,-0.1441,-0.1681,-0.2041,-0.2161,-0.1801,-0.2041,-0.2041,-0.1921,-0.1921,-0.2041,-0.2281,-0.2521,-0.2641,-0.2761,-0.2882,-0.2882,-0.2882,-0.2882,-0.2882,-0.3002,-0.3242,-0.3482,-0.3242,-0.3242,-0.3602,-0.3602,-0.3722,-0.3722,-0.3842,-0.3842,-0.3962,-0.3962,-0.3962,-0.3962,-0.3962,-0.3962,-0.3962,-0.3962,-0.3962,-0.3962,-0.3962,-0.3962,-0.3962,-0.3962,-0.3962,-0.3962,-0.3962,-0.4201,-0.4559,-0.4559,-0.4679,-0.4441,-0.4082,-0.4441,-0.5992,-0.6473,-0.7313,-0.7602,-0.9632,-1.0911,-1.1133,-1.2664,-1.548,-1.7234,-1.8707,-1.9579,-1.9631,-1.9857,-1.9765,-1.9923,-2.0002,-1.9943,-1.987,-1.9725,-1.9593,-1.9354,-1.9442,-1.9415,-1.931,-1.9297,-1.931,-1.9349,-1.9343,-1.9343,-1.9237,-1.9198,-1.9237,-1.9138,0.0,0.0,-0.0327,-0.0545,-0.0982,-0.1866,-0.2422,-0.2863,-0.3303,-0.3414,-0.3086,-0.2774,-0.246,-0.2142,-0.192,-0.1821,-0.185,-0.1863,-0.1878,-0.2016,-0.1792,-0.2035,-0.204,-0.1921,-0.2041,-0.1921,-0.1921,-0.2281,-0.2521,-0.2761,-0.2521,-0.2161,-0.2882,-0.2761,-0.2641,-0.2521,-0.2641,-0.3002,-0.3242,-0.3482,-0.3482,-0.3482,-0.3482,-0.3482,-0.3482,-0.3482,-0.3482,-0.3602,-0.3722,-0.3602,-0.3602,-0.3962,-0.3962,-0.3962,-0.3962,-0.4082,-0.3962,-0.3962,-0.4201,-0.4082,-0.3962,-0.3962,-0.3962,-0.4082,-0.4201,-0.4679,-0.4561,-0.4561,-0.4321,-0.4082,-0.4082,-0.3962,-0.4082,-0.4082,-0.4679,-0.5393,-0.5393,-0.5515,-0.5157,-0.4559,-0.5633,-0.7417,-0.8725,-0.9437,-1.0635,-1.2081,-1.2861,-1.3427,-1.5372,-1.7474,-1.8593,-1.9356,-1.9481,-1.9633,-1.9415,-1.9257,-1.9402,-1.9501,-1.9521,-1.9501,-1.9422,-1.9316,-1.9171,-1.9191,-1.9086,-1.9119,-1.9185,-1.9106,-1.9086,-1.9125,-1.9158,-1.9138,-1.9125,-1.9086,-1.9086,-0.0109,-0.0109,-0.0763,-0.109,-0.1199,-0.2289,-0.3053,-0.3489,-0.3489,-0.3489,-0.3489,-0.3053,-0.286,-0.2772,-0.2442,-0.2355,-0.2273,-0.2185,-0.2201,-0.2341,-0.26,-0.2498,-0.2508,-0.2634,-0.2521,-0.2521,-0.2641,-0.2882,-0.3242,-0.3482,-0.3242,-0.2641,-0.3362,-0.3482,-0.3362,-0.3242,-0.3482,-0.3722,-0.3722,-0.3842,-0.3842,-0.3842,-0.3842,-0.3842,-0.3842,-0.3842,-0.3842,-0.3842,-0.3842,-0.4201,-0.4559,-0.5037,-0.4916,-0.4916,-0.4916,-0.4917,-0.432,-0.432,-0.4678,-0.4321,-0.3962,-0.3962,-0.5634,-0.5634,-0.5992,-0.6588,-0.6708,-0.7064,-0.7184,-0.742,-0.754,-0.7064,-0.6825,-0.7064,-0.754,-0.7417,-0.6583,-0.7062,-0.8253,-0.7778,-0.8015,-0.9798,-1.1822,-1.265,-1.3006,-1.3961,-1.493,-1.5923,-1.7212,-1.7965,-1.8732,-1.8769,-1.8875,-1.9099,-1.8947,-1.8881,-1.896,-1.904,-1.9046,-1.9046,-1.9125,-1.9191,-1.9119,-1.9086,-1.9086,-1.9086,-1.9086,-1.9086,-1.9086,-1.9086,-1.904,-1.9066,-1.9086,-1.9086,-1.9086,-0.0436,-0.0218,-0.1199,-0.1635,-0.1962,-0.2943,-0.3489,-0.3489,-0.3489,-0.3489,-0.3489,-0.3489,-0.3386,-0.3386,-0.3386,-0.3308,-0.3243,-0.3255,-0.3288,-0.3445,-0.3263,-0.3402,-0.3425,-0.3452,-0.347,-0.3599,-0.3602,-0.3482,-0.3842,-0.3842,-0.3842,-0.3722,-0.3842,-0.3722,-0.3842,-0.3722,-0.3722,-0.3842,-0.3962,-0.4201,-0.4679,-0.4439,-0.4799,-0.5157,-0.4919,-0.4799,-0.5037,-0.4799,-0.4559,-0.5395,-0.6346,-0.7059,-0.7534,-0.7415,-0.7534,-0.6942,-0.5395,-0.6107,-0.6822,-0.5752,-0.5157,-0.5874,-0.8373,-1.0274,-1.0509,-0.9798,-0.9563,-0.9679,-0.9559,-1.0155,-1.0509,-0.9917,-0.9321,-0.9679,-1.0033,-0.9556,-0.8486,-0.9202,-1.0513,-1.0751,-1.0866,-1.2416,-1.4559,-1.5389,-1.5626,-1.642,-1.694,-1.7768,-1.7705,-1.843,-1.8358,-1.838,-1.8433,-1.8611,-1.8651,-1.8631,-1.8723,-1.8941,-1.8868,-1.8868,-1.9,-1.9099,-1.9086,-1.9086,-1.9086,-1.9086,-1.9086,-1.9086,-1.9079,-1.9007,-1.8941,-1.8921,-1.8802,-1.8868,-1.8875,-0.0327,-0.0654,-0.1417,-0.1962,-0.2398,-0.3162,-0.3489,-0.3489,-0.3489,-0.3489,-0.3489,-0.3489,-0.3489,-0.3489,-0.3489,-0.3509,-0.352,-0.3555,-0.3601,-0.3612,-0.3669,-0.3709,-0.3742,-0.3658,-0.3807,-0.3837,-0.3842,-0.3962,-0.3962,-0.3962,-0.3962,-0.3962,-0.3962,-0.3962,-0.3962,-0.3962,-0.3962,-0.3962,-0.4321,-0.4798,-0.575,-0.6466,-0.7064,-0.7659,-0.742,-0.6942,-0.7776,-0.7776,-0.7059,-0.8728,-0.9679,-1.0033,-1.0152,-1.0152,-1.0155,-1.0155,-0.9205,-0.944,-0.9798,-0.885,-0.897,-0.8853,-1.0159,-1.1342,-1.1461,-1.2056,-1.1937,-1.1818,-1.1223,-1.1342,-1.1342,-1.1104,-1.0985,-1.1346,-1.1699,-1.2056,-1.158,-1.2531,-1.3723,-1.2416,-1.2535,-1.5033,-1.7182,-1.7531,-1.7576,-1.818,-1.8769,-1.847,-1.828,-1.8321,-1.8262,-1.815,-1.815,-1.8216,-1.8248,-1.8281,-1.8479,-1.8776,-1.8829,-1.8822,-1.8934,-1.898,-1.9046,-1.9086,-1.9079,-1.9079,-1.9086,-1.9053,-1.9007,-1.8941,-1.9008,-1.8963,-1.8545,-1.8492,-1.8453,-0.0654,-0.0872,-0.1962,-0.2507,-0.2834,-0.338,-0.3489,-0.3489,-0.3489,-0.3489,-0.3489,-0.3489,-0.3489,-0.3489,-0.3489,-0.349,-0.3497,-0.3539,-0.3547,-0.3555,-0.3609,-0.3658,-0.3698,-0.3728,-0.3775,-0.3808,-0.3958,-0.3962,-0.3962,-0.3962,-0.3962,-0.3962,-0.3962,-0.3962,-0.3962,-0.3962,-0.3962,-0.3961,-0.4917,-0.587,-0.7417,-0.8486,-0.9559,-1.0985,-0.9679,-0.9559,-1.0628,-0.9679,-0.9559,-1.0628,-1.2416,-1.2769,-1.2769,-1.2769,-1.2773,-1.2773,-1.2773,-1.2531,-1.1703,-1.3367,-1.3842,-1.3961,-1.4435,-1.4559,-1.4079,-1.4079,-1.3961,-1.4321,-1.4672,-1.4677,-1.3842,-1.3961,-1.3129,-1.3604,-1.4198,-1.4435,-1.4316,-1.5507,-1.5986,-1.4796,-1.4915,-1.73,-1.8208,-1.8288,-1.8091,-1.8529,-1.8374,-1.8169,-1.8077,-1.8038,-1.7965,-1.786,-1.7827,-1.7833,-1.7827,-1.784,-1.7991,-1.8334,-1.8519,-1.8585,-1.8723,-1.8822,-1.8862,-1.8868,-1.8967,-1.9046,-1.8875,-1.8756,-1.8815,-1.9166,-1.9616,-1.96,-2.0128,-2.0023,-1.9712,-0.1308,-0.109,-0.2725,-0.338,-0.338,-0.3489,-0.3489,-0.3489,-0.3489,-0.3489,-0.3489,-0.3489,-0.3489,-0.3489,-0.3489,-0.3489,-0.3493,-0.3494,-0.3499,-0.3511,-0.3555,-0.3463,-0.3508,-0.3565,-0.3616,-0.3763,-0.3799,-0.3829,-0.3962,-0.3962,-0.3962,-0.3962,-0.3962,-0.3962,-0.3962,-0.3962,-0.3962,-0.4201,-0.6346,-0.7298,-0.8606,-1.0513,-1.1699,-1.2531,-1.1941,-1.1941,-1.2769,-1.2056,-1.2174,-1.3125,-1.4672,-1.527,-1.5389,-1.5389,-1.5394,-1.5394,-1.5389,-1.4316,-1.2535,-1.6466,-1.7779,-1.7892,-1.7294,-1.7655,-1.8377,-1.8613,-1.8016,-1.7182,-1.7773,-1.8259,-1.8613,-1.8489,-1.6939,-1.6584,-1.7419,-1.7655,-1.6821,-1.7064,-1.7655,-1.7182,-1.8134,-1.8928,-1.8967,-1.8835,-1.8578,-1.8288,-1.8089,-1.793,-1.7767,-1.7695,-1.7602,-1.7536,-1.755,-1.7589,-1.7642,-1.753,-1.7569,-1.7906,-1.811,-1.813,-1.8235,-1.8328,-1.8459,-1.8618,-1.8604,-1.8512,-1.8459,-1.842,-1.898,-1.9412,-1.9977,-2.0711,-2.1801,-2.2315,-2.2656,-0.1417,-0.2071,-0.2616,-0.3053,-0.3489,-0.3489,-0.3489,-0.3489,-0.3489,-0.3489,-0.3489,-0.3489,-0.3489,-0.3489,-0.3489,-0.3489,-0.3489,-0.3489,-0.3489,-0.3497,-0.3513,-0.3539,-0.3464,-0.3511,-0.3565,-0.363,-0.3779,-0.3807,-0.3833,-0.3961,-0.3958,-0.3837,-0.3962,-0.3841,-0.3841,-0.3962,-0.3962,-0.4439,-0.6346,-0.8128,-1.0628,-1.2892,-1.4559,-1.6105,-1.4796,-1.4796,-1.5513,-1.4915,-1.4915,-1.6105,-1.7058,-1.7773,-1.7892,-1.7898,-1.7898,-1.8016,-1.7898,-1.7655,-1.7176,-1.8371,-1.885,-1.9086,-1.9086,-1.9086,-1.8968,-1.8968,-1.9086,-1.9086,-1.9086,-1.8968,-1.885,-1.9053,-1.8208,-1.7762,-1.8719,-1.8817,-1.812,-1.7867,-1.8491,-1.8974,-1.8895,-1.8789,-1.8697,-1.8585,-1.8301,-1.7985,-1.7728,-1.7589,-1.755,-1.749,-1.7372,-1.7372,-1.7339,-1.7398,-1.7477,-1.7345,-1.7279,-1.7569,-1.7576,-1.7616,-1.7635,-1.7655,-1.7644,-1.7998,-1.8064,-1.7978,-1.7925,-1.7892,-1.866,-1.9501,-2.0381,-2.1121,-2.2376,-2.4117,-2.4765,-0.1744,-0.2507,-0.2834,-0.3162,-0.3489,-0.3489,-0.3489,-0.3489,-0.3489,-0.3489,-0.3489,-0.3489,-0.3489,-0.3489,-0.3489,-0.3489,-0.3489,-0.3489,-0.3489,-0.3489,-0.349,-0.3511,-0.3538,-0.3575,-0.3612,-0.3556,-0.3713,-0.375,-0.3801,-0.3801,-0.3808,-0.3808,-0.3803,-0.3817,-0.3837,-0.3962,-0.4559,-0.5633,-0.7892,-1.039,-1.2887,-1.5513,-1.7537,-1.8968,-1.7176,-1.7773,-1.8495,-1.7425,-1.7898,-1.8495,-1.885,-1.885,-1.8731,-1.885,-1.885,-1.885,-1.885,-1.8731,-1.8731,-1.885,-1.9086,-1.9086,-1.9086,-1.9086,-1.9086,-1.9086,-1.9086,-1.9079,-1.9086,-1.9,-1.8967,-1.8921,-1.8881,-1.8796,-1.8736,-1.8703,-1.8446,-1.8291,-1.8644,-1.8611,-1.8552,-1.8512,-1.842,-1.8314,-1.8005,-1.7695,-1.7517,-1.7378,-1.7405,-1.7378,-1.7372,-1.7372,-1.71,-1.7213,-1.7174,-1.7101,-1.7016,-1.7029,-1.7022,-1.7049,-1.7068,-1.7082,-1.7074,-1.7391,-1.753,-1.7583,-1.7563,-1.7424,-1.8189,-1.9626,-2.0605,-2.1733,-2.3597,-2.5442,-2.6475,-0.2071,-0.2616,-0.3271,-0.3489,-0.3489,-0.3489,-0.3489,-0.3489,-0.3489,-0.3489,-0.3489,-0.3489,-0.3489,-0.3489,-0.3489,-0.3489,-0.3489,-0.3489,-0.3489,-0.3489,-0.3489,-0.3494,-0.3509,-0.354,-0.3463,-0.3488,-0.3636,-0.3691,-0.3734,-0.3739,-0.3738,-0.3633,-0.3764,-0.3792,-0.3815,-0.3954,-0.4798,-0.6346,-0.944,-1.2174,-1.4796,-1.7182,-1.8731,-1.8968,-1.8968,-1.9086,-1.9086,-1.8731,-1.8968,-1.8968,-1.9086,-1.9086,-1.9086,-1.9086,-1.9086,-1.9086,-1.9086,-1.9086,-1.9086,-1.9086,-1.9079,-1.9066,-1.9033,-1.898,-1.8888,-1.8974,-1.9007,-1.8928,-1.8862,-1.8815,-1.8717,-1.8631,-1.8545,-1.8486,-1.8459,-1.8453,-1.8446,-1.84,-1.8341,-1.8262,-1.8222,-1.8209,-1.8136,-1.8018,-1.7747,-1.7418,-1.722,-1.7207,-1.7233,-1.7332,-1.7339,-1.7199,-1.7015,-1.6963,-1.691,-1.6792,-1.6699,-1.666,-1.6614,-1.6587,-1.6567,-1.6614,-1.6686,-1.6838,-1.6871,-1.7134,-1.7266,-1.8109,-1.8894,-1.9904,-2.1503,-2.3626,-2.5447,-2.7075,-2.8282,-0.2289,-0.3271,-0.3489,-0.3489,-0.3489,-0.3489,-0.3489,-0.3489,-0.3489,-0.3489,-0.3489,-0.3489,-0.3489,-0.3489,-0.3489,-0.3489,-0.3489,-0.3489,-0.3489,-0.3489,-0.3489,-0.3489,-0.3495,-0.3502,-0.3536,-0.3468,-0.3593,-0.3628,-0.3656,-0.3654,-0.3652,-0.3689,-0.3718,-0.3755,-0.3783,-0.393,-0.4312,-0.5742,-0.9434,-1.2773,-1.5394,-1.7898,-1.8731,-1.9086,-1.9086,-1.9086,-1.9086,-1.9086,-1.9086,-1.9086,-1.9086,-1.9086,-1.9086,-1.9086,-1.9086,-1.9086,-1.9046,-1.9053,-1.9053,-1.9007,-1.896,-1.8862,-1.8776,-1.8703,-1.8552,-1.8446,-1.8453,-1.8519,-1.8512,-1.8459,-1.8361,-1.8347,-1.8255,-1.8209,-1.8163,-1.8216,-1.8235,-1.8196,-1.8143,-1.8044,-1.7965,-1.805,-1.7734,-1.7662,-1.7457,-1.7134,-1.7042,-1.7035,-1.7128,-1.7253,-1.7286,-1.7199,-1.6969,-1.6824,-1.6765,-1.664,-1.6416,-1.6405,-1.6238,-1.6198,-1.6178,-1.6205,-1.6258,-1.6152,-1.608,-1.6734,-1.8182,-1.9014,-1.9944,-2.1928,-2.3866,-2.5707,-2.7173,-2.8685,-2.9821,-0.2616,-0.3489,-0.3489,-0.3489,-0.3489,-0.3489,-0.3489,-0.3489,-0.3489,-0.3489,-0.3489,-0.3489,-0.3489,-0.3489,-0.3489,-0.3489,-0.3489,-0.3489,-0.3489,-0.3489,-0.3489,-0.3489,-0.3489,-0.3491,-0.3499,-0.3532,-0.3543,-0.3569,-0.3567,-0.356,-0.3458,-0.3624,-0.3658,-0.3575,-0.3718,-0.3774,-0.4389,-0.6298,-0.9292,-1.3244,-1.6347,-1.8252,-1.9086,-1.9086,-1.9086,-1.9086,-1.9086,-1.9086,-1.9086,-1.9086,-1.9086,-1.9086,-1.9086,-1.9086,-1.9086,-1.9079,-1.8987,-1.8914,-1.8895,-1.8769,-1.8637,-1.8519,-1.8473,-1.8407,-1.8295,-1.8255,-1.8255,-1.8222,-1.8229,-1.8169,-1.8202,-1.8162,-1.7985,-1.7886,-1.7774,-1.78,-1.78,-1.786,-1.7879,-1.78,-1.7701,-1.7398,-1.7148,-1.7075,-1.693,-1.6792,-1.6831,-1.6884,-1.7016,-1.7134,-1.7194,-1.7107,-1.6956,-1.6653,-1.6554,-1.6409,-1.6126,-1.6,-1.5934,-1.5915,-1.5855,-1.5829,-1.5757,-1.5705,-1.6416,-1.752,-1.8812,-2.0239,-2.1924,-2.4075,-2.6287,-2.7471,-2.8552,-2.9898,-2.9988,-0.2943,-0.3489,-0.3489,-0.3489,-0.3489,-0.3489,-0.3489,-0.3489,-0.3489,-0.3489,-0.3489,-0.3489,-0.3489,-0.3489,-0.3489,-0.3489,-0.3489,-0.3489,-0.3489,-0.3489,-0.3489,-0.3489,-0.3489,-0.3489,-0.3495,-0.3499,-0.3497,-0.3489,-0.3503,-0.3505,-0.3523,-0.345,-0.3475,-0.3491,-0.3658,-0.3714,-0.5024,-0.749,-1.005,-1.3676,-1.7482,-1.8706,-1.8968,-1.9086,-1.9086,-1.9086,-1.9086,-1.9086,-1.9086,-1.9086,-1.9086,-1.9086,-1.9086,-1.9086,-1.9079,-1.8974,-1.8809,-1.8631,-1.8585,-1.8453,-1.8301,-1.8216,-1.8189,-1.8275,-1.8057,-1.8038,-1.8038,-1.813,-1.8097,-1.7972,-1.7794,-1.7857,-1.7622,-1.7536,-1.7504,-1.7477,-1.7317,-1.7454,-1.7444,-1.7358,-1.724,-1.693,-1.6699,-1.6574,-1.6475,-1.6561,-1.6653,-1.6772,-1.6884,-1.6989,-1.7055,-1.695,-1.6732,-1.6409,-1.6244,-1.6014,-1.5816,-1.5626,-1.56,-1.5593,-1.56,-1.5613,-1.5561,-1.6757,-1.7386,-1.852,-2.0506,-2.2431,-2.4063,-2.5729,-2.719,-2.8514,-2.9875,-2.9888,-2.9854,-0.338,-0.3489,-0.3489,-0.3489,-0.3489,-0.3489,-0.3489,-0.3489,-0.3489,-0.3489,-0.3489,-0.3489,-0.3489,-0.3489,-0.3489,-0.3489,-0.3489,-0.3489,-0.3489,-0.3489,-0.3489,-0.3489,-0.3489,-0.3489,-0.3489,-0.3489,-0.3489,-0.3489,-0.3489,-0.3489,-0.3495,-0.3519,-0.3449,-0.3476,-0.3715,-0.3881,-0.5162,-0.7384,-1.0015,-1.2664,-1.5526,-1.778,-1.9086,-1.9086,-1.9086,-1.9073,-1.9059,-1.9073,-1.9086,-1.9086,-1.9086,-1.9086,-1.9086,-1.9086,-1.8987,-1.8763,-1.8486,-1.8354,-1.8308,-1.8216,-1.8064,-1.8016,-1.7997,-1.7761,-1.7662,-1.7642,-1.7494,-1.755,-1.7576,-1.755,-1.7484,-1.7457,-1.7411,-1.7225,-1.7319,-1.7238,-1.7153,-1.7048,-1.7042,-1.6897,-1.6759,-1.6607,-1.6468,-1.635,-1.6238,-1.6297,-1.6396,-1.6528,-1.66,-1.6732,-1.6805,-1.6686,-1.6495,-1.6172,-1.6026,-1.5821,-1.5768,-1.5818,-1.5908,-1.5908,-1.5811,-1.6004,-1.7443,-1.8796,-1.9518,-2.1121,-2.2862,-2.4699,-2.603,-2.7231,-2.8267,-2.9184,-2.9786,-2.9958,-3.0046,-0.3489,-0.3489,-0.3489,-0.3489,-0.3489,-0.3489,-0.3489,-0.3489,-0.3489,-0.3489,-0.3489,-0.3489,-0.3489,-0.3489,-0.3489,-0.3489,-0.3489,-0.3489,-0.3489,-0.3489,-0.3489,-0.3489,-0.3489,-0.3489,-0.3489,-0.3489,-0.3489,-0.3489,-0.3489,-0.3489,-0.349,-0.3498,-0.3516,-0.3535,-0.3658,-0.46,-0.6656,-0.9057,-1.1559,-1.408,-1.663,-1.776,-1.8657,-1.8717,-1.8789,-1.8881,-1.8914,-1.8987,-1.9086,-1.9079,-1.9079,-1.9086,-1.9,-1.8855,-1.8604,-1.8446,-1.8302,-1.8136,-1.8018,-1.7873,-1.7787,-1.7609,-1.7589,-1.7504,-1.7418,-1.7365,-1.7405,-1.7391,-1.7372,-1.7326,-1.7174,-1.7167,-1.7082,-1.6989,-1.693,-1.6917,-1.6904,-1.6798,-1.6653,-1.6495,-1.6317,-1.6185,-1.6126,-1.6106,-1.6007,-1.604,-1.6145,-1.6225,-1.629,-1.6416,-1.6548,-1.6422,-1.6271,-1.6192,-1.6173,-1.6065,-1.6114,-1.639,-1.648,-1.648,-1.6673,-1.782,-1.9147,-2.1047,-2.2936,-2.4633,-2.6052,-2.6853,-2.7914,-2.9094,-2.9502,-2.9864,-3.0106,-3.0226,-3.0251,-0.3489,-0.3489,-0.3489,-0.3489,-0.3489,-0.3489,-0.3489,-0.3489,-0.3489,-0.3489,-0.3489,-0.3489,-0.3489,-0.3489,-0.3489,-0.3489,-0.3489,-0.3489,-0.3489,-0.3489,-0.3489,-0.3489,-0.3489,-0.3489,-0.3489,-0.3489,-0.3489,-0.3489,-0.3489,-0.3489,-0.3489,-0.3489,-0.3494,-0.3494,-0.4166,-0.5842,-0.7878,-1.0224,-1.2832,-1.5314,-1.7276,-1.8149,-1.8321,-1.8347,-1.8506,-1.8591,-1.8657,-1.8815,-1.8947,-1.8947,-1.8947,-1.8928,-1.8802,-1.8426,-1.8216,-1.8103,-1.7892,-1.7837,-1.7708,-1.753,-1.7411,-1.7372,-1.7398,-1.7277,-1.7258,-1.7218,-1.7253,-1.7246,-1.7207,-1.7108,-1.6884,-1.6857,-1.6726,-1.66,-1.6657,-1.6657,-1.6521,-1.6403,-1.6231,-1.6093,-1.5869,-1.56,-1.5679,-1.5698,-1.5685,-1.5849,-1.6014,-1.6145,-1.6372,-1.6539,-1.6606,-1.6485,-1.6238,-1.6332,-1.6446,-1.6411,-1.668,-1.6962,-1.7532,-1.7532,-1.8388,-1.9625,-2.1618,-2.3985,-2.5971,-2.7116,-2.8075,-2.9045,-2.9713,-2.9633,-3.0226,-3.0838,-3.0708,-3.0479,-3.0516,-0.3489,-0.3489,-0.3489,-0.3489,-0.3489,-0.3489,-0.3489,-0.3489,-0.3489,-0.3489,-0.3489,-0.3489,-0.3489,-0.3489,-0.3489,-0.3489,-0.3489,-0.3489,-0.3489,-0.3489,-0.3489,-0.3489,-0.3489,-0.3489,-0.3489,-0.3489,-0.3489,-0.3489,-0.3489,-0.3489,-0.3489,-0.3489,-0.3489,-0.3707,-0.4141,-0.5896,-0.8527,-1.0949,-1.3411,-1.585,-1.7547,-1.8064,-1.8156,-1.8169,-1.8268,-1.8301,-1.8321,-1.8387,-1.84,-1.8367,-1.8367,-1.8361,-1.8288,-1.8156,-1.797,-1.7957,-1.7622,-1.7497,-1.7471,-1.7418,-1.7372,-1.7372,-1.7372,-1.7372,-1.7205,-1.7087,-1.7082,-1.697,-1.6831,-1.666,-1.6574,-1.6554,-1.6528,-1.6462,-1.6564,-1.659,-1.6403,-1.604,-1.5855,-1.5717,-1.5865,-1.5915,-1.5818,-1.5818,-1.5625,-1.558,-1.5921,-1.6186,-1.6583,-1.6909,-1.6981,-1.6989,-1.6835,-1.6833,-1.6804,-1.6872,-1.725,-1.782,-1.8868,-1.9338,-2.0094,-2.2083,-2.4446,-2.6813,-2.8049,-2.8632,-2.943,-3.0041,-3.0159,-3.0168,-3.0413,-3.0725,-3.0834,-3.0769,-3.0884,-0.3489,-0.3489,-0.3489,-0.3489,-0.3489,-0.3489,-0.3489,-0.3489,-0.3489,-0.3489,-0.3489,-0.3489,-0.3489,-0.3489,-0.3489,-0.3489,-0.3489,-0.3489,-0.3489,-0.3489,-0.3489,-0.3489,-0.3489,-0.3489,-0.3489,-0.3489,-0.3489,-0.3489,-0.3489,-0.3489,-0.3598,-0.3489,-0.3489,-0.425,-0.5443,-0.772,-0.9992,-1.2187,-1.4665,-1.6366,-1.7352,-1.7714,-1.778,-1.7787,-1.7925,-1.8109,-1.8136,-1.8136,-1.8216,-1.8163,-1.7952,-1.778,-1.7741,-1.7649,-1.7576,-1.7563,-1.7424,-1.7385,-1.7372,-1.7372,-1.7372,-1.7372,-1.7372,-1.7372,-1.7205,-1.7002,-1.6956,-1.6871,-1.666,-1.6409,-1.629,-1.6271,-1.6159,-1.6093,-1.6027,-1.6027,-1.5981,-1.5998,-1.6004,-1.6294,-1.6301,-1.6301,-1.639,-1.648,-1.6383,-1.6294,-1.6541,-1.6646,-1.7052,-1.7164,-1.7339,-1.7408,-1.7338,-1.7361,-1.7354,-1.7731,-1.83,-1.9434,-2.0675,-2.1523,-2.2746,-2.501,-2.7175,-2.8317,-2.9455,-3.0128,-3.0061,-3.0268,-3.0458,-3.0454,-3.0466,-3.0641,-3.0806,-3.0839,-3.1025,-0.3489,-0.3489,-0.3489,-0.3489,-0.3489,-0.3489,-0.3489,-0.3489,-0.3489,-0.3489,-0.3489,-0.3489,-0.3489,-0.3489,-0.3489,-0.3489,-0.3489,-0.3489,-0.3489,-0.3489,-0.3489,-0.3489,-0.3489,-0.3489,-0.3489,-0.3489,-0.3489,-0.3489,-0.3816,-0.4032,-0.425,-0.4575,-0.5334,-0.5987,-0.7828,-0.9992,-1.2159,-1.3794,-1.6081,-1.7183,-1.7405,-1.7424,-1.7323,-1.733,-1.7602,-1.7804,-1.7761,-1.7932,-1.8044,-1.7952,-1.7655,-1.7444,-1.7438,-1.7411,-1.7405,-1.729,-1.7378,-1.7372,-1.7372,-1.7372,-1.7372,-1.7251,-1.7199,-1.7172,-1.7159,-1.6937,-1.6745,-1.6699,-1.6482,-1.6178,-1.6014,-1.5981,-1.5888,-1.5756,-1.5593,-1.5671,-1.5928,-1.6301,-1.668,-1.6962,-1.6962,-1.7058,-1.7058,-1.6962,-1.6962,-1.7058,-1.708,-1.7169,-1.7287,-1.7309,-1.7524,-1.7851,-1.7939,-1.8316,-1.8588,-1.9442,-2.0389,-2.1713,-2.304,-2.4079,-2.6053,-2.813,-2.8874,-2.9813,-3.0736,-3.0669,-3.0498,-3.068,-3.0562,-3.0577,-3.063,-3.0566,-3.0554,-3.0982,-3.1156,-0.3489,-0.3489,-0.3489,-0.3489,-0.3489,-0.3489,-0.3489,-0.3489,-0.3489,-0.3489,-0.3489,-0.3489,-0.3489,-0.3489,-0.3489,-0.3489,-0.3489,-0.3489,-0.3489,-0.3489,-0.3489,-0.3489,-0.3489,-0.3489,-0.3489,-0.3489,-0.3489,-0.3598,-0.425,-0.5769,-0.6419,-0.696,-0.8584,-0.9664,-1.0425,-1.2164,-1.347,-1.4446,-1.629,-1.7264,-1.7372,-1.7372,-1.7372,-1.7271,-1.7457,-1.7464,-1.7471,-1.7484,-1.7517,-1.7484,-1.731,-1.7271,-1.7372,-1.7372,-1.7372,-1.7372,-1.7372,-1.7372,-1.7372,-1.7245,-1.7245,-1.7186,-1.7002,-1.6983,-1.689,-1.6548,-1.6264,-1.6277,-1.5895,-1.5698,-1.562,-1.5697,-1.5664,-1.5748,-1.5625,-1.6011,-1.6673,-1.6962,-1.7058,-1.7058,-1.7154,-1.7058,-1.7058,-1.7058,-1.7154,-1.7547,-1.7443,-1.7547,-1.7746,-1.8316,-1.8692,-1.8892,-1.9171,-1.9363,-2.0302,-2.1246,-2.2472,-2.3513,-2.4749,-2.6356,-2.8328,-2.9442,-3.03,-3.0684,-3.0541,-3.0541,-3.0528,-3.0541,-3.054,-3.0515,-3.0177,-3.006,-3.033,-3.125,-3.2789,-0.3489,-0.3489,-0.3489,-0.3489,-0.3489,-0.3489,-0.3489,-0.3489,-0.3489,-0.3489,-0.3489,-0.3489,-0.3489,-0.3489,-0.3489,-0.3489,-0.3489,-0.3489,-0.3489,-0.3489,-0.3489,-0.3489,-0.3489,-0.3489,-0.3489,-0.3489,-0.3489,-0.425,-0.555,-0.6419,-0.7828,-0.9014,-0.9989,-1.1178,-1.238,-1.347,-1.4333,-1.5745,-1.6613,-1.7372,-1.7372,-1.7372,-1.7372,-1.7372,-1.7372,-1.7372,-1.7372,-1.7372,-1.7372,-1.7372,-1.7372,-1.7372,-1.7372,-1.7372,-1.7372,-1.7372,-1.7372,-1.7372,-1.7245,-1.71,-1.7134,-1.7068,-1.6844,-1.6699,-1.6594,-1.633,-1.6179,-1.6047,-1.5789,-1.5561,-1.5625,-1.5818,-1.6101,-1.6294,-1.639,-1.6776,-1.7458,-1.7554,-1.765,-1.7931,-1.8027,-1.8027,-1.8027,-1.8027,-1.8027,-1.7939,-1.7931,-1.822,-1.8516,-1.9546,-2.0398,-2.1065,-2.1437,-2.2197,-2.304,-2.3324,-2.4268,-2.4645,-2.5783,-2.777,-2.9269,-3.03,-3.058,-3.032,-3.0294,-3.0177,-2.984,-2.9658,-3.0071,-3.0302,-2.9734,-2.9895,-3.1225,-3.2386,-3.4386,-0.3489,-0.3489,-0.3489,-0.3489,-0.3489,-0.3489,-0.3489,-0.3489,-0.3489,-0.3489,-0.3489,-0.3489,-0.3489,-0.3489,-0.3489,-0.3489,-0.3489,-0.3489,-0.3489,-0.3489,-0.3489,-0.3489,-0.3489,-0.4032,-0.4792,-0.5552,-0.5876,-0.62,-0.7825,-0.8804,-0.9888,-1.129,-1.2155,-1.3352,-1.4446,-1.477,-1.5745,-1.7049,-1.7264,-1.7372,-1.7372,-1.7372,-1.7372,-1.7372,-1.7372,-1.7372,-1.7372,-1.7372,-1.7372,-1.7372,-1.7372,-1.7372,-1.7372,-1.7372,-1.7372,-1.7245,-1.7199,-1.7146,-1.7194,-1.6983,-1.6831,-1.6792,-1.6548,-1.6383,-1.6376,-1.6119,-1.5981,-1.5921,-1.5776,-1.5528,-1.5625,-1.6011,-1.639,-1.6865,-1.7065,-1.745,-1.7946,-1.805,-1.8235,-1.8619,-1.8612,-1.8612,-1.8612,-1.8612,-1.8612,-1.8708,-1.9083,-1.965,-2.012,-2.1056,-2.2386,-2.304,-2.3702,-2.4645,-2.5407,-2.5501,-2.5689,-2.6064,-2.7234,-2.9171,-2.9782,-3.0489,-3.0216,-2.9879,-2.9864,-2.9875,-2.9408,-2.969,-2.9856,-3.0446,-3.0422,-3.1175,-3.2431,-3.3425,-3.528,-0.3489,-0.3489,-0.3489,-0.3489,-0.3489,-0.3489,-0.3489,-0.3489,-0.3489,-0.3489,-0.3489,-0.3489,-0.3489,-0.3489,-0.3489,-0.3489,-0.3489,-0.3489,-0.3489,-0.3489,-0.3816,-0.3814,-0.425,-0.5876,-0.7717,-0.9231,-0.9556,-0.988,-1.0317,-1.1948,-1.3578,-1.3794,-1.5416,-1.6942,-1.6726,-1.7049,-1.6942,-1.7264,-1.7372,-1.7372,-1.7372,-1.7258,-1.7251,-1.7372,-1.7245,-1.7245,-1.7258,-1.7372,-1.7372,-1.7372,-1.7372,-1.7372,-1.7372,-1.7372,-1.7231,-1.7326,-1.6996,-1.6983,-1.6897,-1.6679,-1.6515,-1.6495,-1.6264,-1.6199,-1.6073,-1.5862,-1.571,-1.56,-1.5561,-1.5528,-1.5625,-1.6004,-1.6294,-1.6487,-1.7361,-1.8043,-1.8516,-1.8619,-1.8619,-1.8619,-1.8708,-1.8708,-1.8708,-1.8804,-1.89,-1.9187,-2.0493,-2.1342,-2.1998,-2.304,-2.4173,-2.4843,-2.522,-2.6252,-2.7478,-2.7572,-2.7851,-2.8257,-2.901,-2.9736,-2.9867,-2.9982,-2.9788,-2.9525,-2.9365,-2.9387,-2.9563,-3.0622,-3.1162,-3.1162,-3.172,-3.2777,-3.3555,-3.4262,-3.5631,-0.3489,-0.3489,-0.3489,-0.3489,-0.3489,-0.3489,-0.3489,-0.3489,-0.3489,-0.3489,-0.3489,-0.3489,-0.3489,-0.3489,-0.3489,-0.3489,-0.3489,-0.3489,-0.3489,-0.3707,-0.4901,-0.5659,-0.5985,-0.8042,-0.9772,-1.0417,-1.0529,-1.1178,-1.2596,-1.3465,-1.4554,-1.5853,-1.6834,-1.7372,-1.7372,-1.7372,-1.7372,-1.7372,-1.7372,-1.7372,-1.7231,-1.7087,-1.7081,-1.7212,-1.7087,-1.7094,-1.7258,-1.7372,-1.7372,-1.7372,-1.7372,-1.7372,-1.7245,-1.7194,-1.7095,-1.7035,-1.6838,-1.6653,-1.6627,-1.6491,-1.6325,-1.6178,-1.5961,-1.5803,-1.5776,-1.5626,-1.5528,-1.5528,-1.5528,-1.5528,-1.5625,-1.6004,-1.6487,-1.6769,-1.7746,-1.8427,-1.8619,-1.8708,-1.8708,-1.8804,-1.8804,-1.8708,-1.9091,-1.9562,-2.0588,-2.0874,-2.2377,-2.3607,-2.3985,-2.5407,-2.6169,-2.6742,-2.7198,-2.813,-2.9362,-2.9628,-2.9918,-3.0019,-3.0203,-2.9853,-2.9855,-2.9838,-2.9895,-2.9696,-3.0045,-3.0133,-3.085,-3.183,-3.2491,-3.2273,-3.221,-3.3627,-3.5078,-3.5646,-3.6212,-0.3489,-0.3489,-0.3489,-0.3489,-0.3489,-0.3489,-0.3489,-0.3489,-0.3489,-0.3489,-0.3489,-0.3489,-0.3489,-0.3489,-0.3489,-0.3489,-0.3598,-0.4248,-0.4575,-0.501,-0.7068,-0.8042,-0.8476,-1.0425,-1.1507,-1.1615,-1.2263,-1.346,-1.4662,-1.4986,-1.5638,-1.6942,-1.7264,-1.7372,-1.7372,-1.7372,-1.7372,-1.7372,-1.7372,-1.7212,-1.7113,-1.7035,-1.7029,-1.7081,-1.7049,-1.7068,-1.7245,-1.7372,-1.7372,-1.7372,-1.7372,-1.7225,-1.7094,-1.695,-1.6798,-1.6759,-1.6521,-1.6356,-1.633,-1.6099,-1.5934,-1.5895,-1.5659,-1.5541,-1.5528,-1.5534,-1.5528,-1.5528,-1.5721,-1.5721,-1.5721,-1.6301,-1.6976,-1.7354,-1.7939,-1.8427,-1.8619,-1.8708,-1.8908,-1.9475,-2.0128,-2.0502,-2.0883,-2.1541,-2.2661,-2.2851,-2.4372,-2.5595,-2.5971,-2.7397,-2.8632,-2.8725,-2.956,-3.03,-3.008,-3.0004,-2.9931,-2.9699,-2.9708,-2.9395,-2.9836,-3.0037,-3.0242,-3.0403,-3.0914,-3.1448,-3.232,-3.3077,-3.3665,-3.376,-3.4408,-3.5429,-3.6558,-3.7209,-3.762,-0.3491,-0.3489,-0.3489,-0.3489,-0.3489,-0.3489,-0.3489,-0.3489,-0.3489,-0.3489,-0.3489,-0.3489,-0.3489,-0.3489,-0.3489,-0.3707,-0.4468,-0.6202,-0.696,-0.7177,-0.9451,-1.0421,-1.0642,-1.2704,-1.3789,-1.3902,-1.5961,-1.7049,-1.6942,-1.6935,-1.7049,-1.7264,-1.7372,-1.7372,-1.7372,-1.7372,-1.7372,-1.7258,-1.7231,-1.722,-1.6976,-1.689,-1.689,-1.695,-1.6943,-1.7075,-1.7358,-1.7372,-1.7372,-1.7372,-1.7251,-1.7127,-1.697,-1.666,-1.6488,-1.6449,-1.6332,-1.6192,-1.6152,-1.5816,-1.558,-1.5574,-1.5638,-1.5625,-1.5625,-1.5721,-1.5721,-1.5818,-1.6011,-1.6204,-1.6011,-1.6887,-1.785,-1.7858,-1.8227,-1.8612,-1.8804,-1.8804,-1.9467,-2.1446,-2.2955,-2.4372,-2.4467,-2.4561,-2.4655,-2.5031,-2.645,-2.777,-2.7956,-2.9084,-3.0392,-3.0538,-3.0448,-3.0476,-3.0307,-3.0281,-2.9825,-2.9518,-2.959,-2.987,-3.0585,-3.0765,-3.1051,-3.1454,-3.2023,-3.2768,-3.3632,-3.4654,-3.5218,-3.5859,-3.7116,-3.8029,-3.8114,-3.8049,-3.8609,-0.3526,-0.3493,-0.3489,-0.3489,-0.3489,-0.3489,-0.3489,-0.3489,-0.3489,-0.3489,-0.3489,-0.3489,-0.3489,-0.3489,-0.3489,-0.5117,-0.8151,-0.8909,-0.9339,-0.9556,-1.1727,-1.2709,-1.3141,-1.5093,-1.6182,-1.629,-1.7049,-1.7372,-1.7372,-1.7372,-1.7372,-1.7372,-1.7372,-1.7372,-1.7372,-1.7372,-1.7372,-1.7225,-1.7061,-1.7042,-1.6897,-1.6561,-1.6528,-1.6864,-1.6937,-1.7075,-1.7251,-1.7372,-1.7372,-1.7238,-1.718,-1.7029,-1.6897,-1.6475,-1.6211,-1.6178,-1.5941,-1.577,-1.5659,-1.5587,-1.5528,-1.5528,-1.5915,-1.6101,-1.6101,-1.6383,-1.6576,-1.6576,-1.6769,-1.6769,-1.6872,-1.765,-1.8243,-1.8139,-1.9458,-2.0588,-2.0874,-2.1912,-2.286,-2.3712,-2.4467,-2.4655,-2.4843,-2.5982,-2.6649,-2.6836,-2.8527,-2.9745,-2.9745,-3.0392,-3.0684,-3.0294,-3.0216,-3.006,-2.9885,-3.0224,-3.0113,-3.05,-3.0683,-3.1358,-3.1928,-3.1913,-3.2064,-3.2552,-3.3252,-3.4026,-3.5045,-3.6247,-3.6884,-3.7383,-3.8257,-3.8792,-3.8808,-3.871,-3.9543,-0.3535,-0.3519,-0.3498,-0.3489,-0.3489,-0.3489,-0.3489,-0.3489,-0.3489,-0.3489,-0.3489,-0.3489,-0.4032,-0.4792,-0.5661,-0.7717,-1.0421,-1.129,-1.1727,-1.1943,-1.4004,-1.5099,-1.5201,-1.6505,-1.7372,-1.7372,-1.7372,-1.7372,-1.7372,-1.7372,-1.7372,-1.7372,-1.7372,-1.7372,-1.7372,-1.7372,-1.7372,-1.7245,-1.7194,-1.7042,-1.691,-1.6574,-1.6548,-1.691,-1.6937,-1.7068,-1.7365,-1.7273,-1.722,-1.7213,-1.693,-1.6726,-1.66,-1.6271,-1.6139,-1.5915,-1.5737,-1.5625,-1.5818,-1.5818,-1.5915,-1.6108,-1.639,-1.6576,-1.668,-1.6865,-1.7058,-1.7154,-1.7258,-1.745,-1.7835,-1.8979,-1.965,-1.965,-2.1342,-2.2851,-2.3135,-2.3901,-2.5031,-2.57,-2.5794,-2.6158,-2.7105,-2.8049,-2.8818,-2.8991,-2.993,-3.0474,-3.0449,-3.0463,-3.0242,-2.9801,-2.9606,-2.9623,-2.939,-3.0097,-3.0739,-3.1264,-3.1907,-3.2534,-3.33,-3.3411,-3.4028,-3.4559,-3.553,-3.6308,-3.6264,-3.7305,-3.7357,-3.7898,-3.8526,-3.896,-3.8974,-3.9831,-4.0631,-0.3528,-0.3453,-0.3514,-0.3489,-0.3489,-0.3489,-0.3489,-0.3923,-0.3707,-0.3814,-0.4141,-0.4032,-0.5228,-0.7503,-0.9556,-1.0638,-1.1182,-1.3141,-1.401,-1.4225,-1.6182,-1.7264,-1.7372,-1.7372,-1.7372,-1.7372,-1.7372,-1.7372,-1.7372,-1.7372,-1.7372,-1.7372,-1.7372,-1.7372,-1.7372,-1.7372,-1.7372,-1.7365,-1.7312,-1.7207,-1.6963,-1.6937,-1.7048,-1.7074,-1.6963,-1.7082,-1.7273,-1.7082,-1.693,-1.691,-1.673,-1.6458,-1.6225,-1.6166,-1.5921,-1.5684,-1.5534,-1.5818,-1.6294,-1.6294,-1.6576,-1.6962,-1.7065,-1.7154,-1.7058,-1.7161,-1.7161,-1.7154,-1.7843,-1.8331,-1.8892,-2.0684,-2.1817,-2.1998,-2.3607,-2.4739,-2.4833,-2.522,-2.5982,-2.7408,-2.7875,-2.8433,-3.0195,-3.0761,-3.0382,-3.0382,-3.0566,-3.045,-3.0008,-2.9891,-2.9645,-2.9242,-2.9143,-2.9344,-2.9938,-3.0861,-3.1461,-3.2232,-3.3236,-3.349,-3.4356,-3.5218,-3.6041,-3.6797,-3.7246,-3.7557,-3.7862,-3.7989,-3.806,-3.8333,-3.8958,-3.9636,-3.9895,-4.0825,-4.1595,-0.3604,-0.3458,-0.3513,-0.3489,-0.3489,-0.3489,-0.4468,-0.5876,-0.6093,-0.7068,-0.8476,-0.8584,-0.9884,-1.184,-1.2596,-1.3896,-1.5416,-1.6068,-1.6284,-1.6397,-1.6942,-1.7372,-1.7372,-1.7372,-1.7372,-1.7372,-1.7372,-1.7372,-1.7372,-1.7372,-1.7372,-1.7372,-1.7372,-1.7587,-1.7909,-1.7479,-1.7486,-1.7895,-1.7366,-1.7016,-1.7088,-1.7565,-1.7886,-1.7893,-1.7466,-1.718,-1.7062,-1.7284,-1.7351,-1.7243,-1.6949,-1.6744,-1.6655,-1.6065,-1.562,-1.5541,-1.5915,-1.6294,-1.6865,-1.6865,-1.6962,-1.7154,-1.7458,-1.7458,-1.7258,-1.7458,-1.7658,-1.7843,-1.9163,-2.0207,-2.0588,-2.2481,-2.3796,-2.3985,-2.57,-2.6929,-2.7023,-2.8328,-2.9164,-2.9745,-2.9745,-3.0208,-3.0525,-3.0424,-3.0177,-3.0112,-2.9827,-2.9538,-2.9434,-2.9382,-2.9213,-2.858,-2.8561,-2.9373,-3.1389,-3.2539,-3.3569,-3.4435,-3.5263,-3.6023,-3.6652,-3.679,-3.7217,-3.6792,-3.7318,-3.7657,-3.7585,-3.8231,-3.8615,-3.8899,-3.9743,-4.0892,-4.0779,-4.1239,-4.2005,-0.6512,-0.6522,-0.6373,-0.6311,-0.6427,-0.6468,-0.7223,-0.8367,-0.8367,-0.9123,-1.0646,-1.2678,-1.4089,-1.5207,-1.5201,-1.5967,-1.7264,-1.7372,-1.7372,-1.7372,-1.7372,-1.7372,-1.7372,-1.7372,-1.7372,-1.7372,-1.7372,-1.7372,-1.7372,-1.7372,-1.7486,-1.7694,-1.7694,-1.8016,-1.8553,-1.8231,-1.8123,-1.8224,-1.7938,-1.8679,-2.0339,-2.0823,-2.0855,-2.0628,-2.03,-1.9904,-1.9622,-1.997,-2.0114,-1.9905,-1.9665,-1.9373,-1.9179,-1.8119,-1.7347,-1.7154,-1.6872,-1.6865,-1.7361,-1.7458,-1.7361,-1.7458,-1.7754,-1.7658,-1.7161,-1.7361,-1.7939,-1.8884,-2.0866,-2.2282,-2.2652,-2.455,-2.5982,-2.6169,-2.777,-2.9003,-2.9003,-3.0023,-3.0761,-3.0761,-3.0761,-3.0605,-3.0424,-3.0125,-2.9853,-2.9567,-2.9434,-2.9108,-2.8762,-2.8736,-2.8732,-2.893,-2.9585,-3.0932,-3.2966,-3.4575,-3.5374,-3.6118,-3.704,-3.7529,-3.7345,-3.7331,-3.7008,-3.6685,-3.7525,-3.7932,-3.742,-3.8523,-3.9431,-3.9445,-4.0455,-4.0785,-4.131,-4.1832,-4.2821,-1.0513,-1.0834,-1.0333,-1.0529,-1.0333,-1.0608,-1.0702,-1.0899,-1.0903,-1.0879,-1.1665,-1.5816,-1.7435,-1.7251,-1.7144,-1.7264,-1.7264,-1.7372,-1.7372,-1.7372,-1.7372,-1.7372,-1.7372,-1.7372,-1.7372,-1.7372,-1.7372,-1.7372,-1.7479,-1.7479,-1.7801,-1.8553,-1.8867,-1.9388,-1.9815,-1.9815,-1.9495,-1.9074,-1.9472,-2.1758,-2.5601,-2.52,-2.4678,-2.4147,-2.4099,-2.3888,-2.3133,-2.3672,-2.3741,-2.3663,-2.3245,-2.2955,-2.2586,-2.1246,-2.0293,-1.9808,-1.8292,-1.7635,-1.8139,-1.7946,-1.7858,-1.7858,-1.7858,-1.7561,-1.7058,-1.7443,-1.8484,-2.0389,-2.2746,-2.4257,-2.4927,-2.6824,-2.8061,-2.8154,-2.956,-3.0761,-3.0577,-3.0723,-3.0592,-3.0697,-3.0528,-3.0411,-2.9943,-2.9814,-2.9593,-2.9174,-2.8926,-2.8751,-2.8652,-2.8631,-2.8919,-3.0366,-3.1612,-3.3252,-3.46,-3.5473,-3.6108,-3.7297,-3.7543,-3.7475,-3.7511,-3.7159,-3.6619,-3.742,-3.8042,-3.8831,-3.8946,-3.9619,-4.0251,-4.0231,-4.0192,-4.0073,-4.1044,-4.2392,-4.389,-1.0486,-1.0536,-1.0561,-1.0529,-1.0545,-1.0832,-1.1884,-1.3516,-1.3677,-1.435,-1.5219,-1.6457,-1.7095,-1.7062,-1.7172,-1.7372,-1.7372,-1.7372,-1.7372,-1.7372,-1.7372,-1.7372,-1.7372,-1.7372,-1.7372,-1.7372,-1.7372,-1.7593,-1.8016,-1.8016,-1.9181,-2.1382,-2.3283,-2.4426,-2.4953,-2.4532,-2.4532,-2.4723,-2.4856,-2.52,-2.5807,-2.5174,-2.4845,-2.4644,-2.4346,-2.3953,-2.3722,-2.4102,-2.4183,-2.3862,-2.3752,-2.3702,-2.3607,-2.2841,-2.2462,-2.2187,-2.0952,-2.0207,-2.0207,-1.8804,-1.7858,-1.7858,-1.7458,-1.7065,-1.6865,-1.9721,-2.1988,-2.2652,-2.4791,-2.6312,-2.679,-2.8571,-3.0115,-3.0023,-3.0498,-3.071,-3.071,-3.0385,-3.0125,-3.0073,-2.9736,-2.945,-2.9408,-2.9369,-2.9047,-2.8502,-2.8035,-2.84,-2.9309,-2.958,-3.0809,-3.2872,-3.4104,-3.4845,-3.5793,-3.6309,-3.6471,-3.6157,-3.6558,-3.7169,-3.7842,-3.796,-3.8085,-3.8653,-3.9213,-3.9341,-3.9223,-4.0019,-4.0797,-4.0985,-4.1453,-4.217,-4.2656,-4.3749,-4.5203,-1.3826,-1.3826,-1.3826,-1.3764,-1.3568,-1.3696,-1.429,-1.5406,-1.5778,-1.6207,-1.6739,-1.6857,-1.6962,-1.7069,-1.7224,-1.7403,-1.7613,-1.7736,-1.7691,-1.7499,-1.7948,-1.7801,-1.7372,-1.7909,-1.7909,-1.7909,-1.8967,-1.98,-2.0227,-2.1284,-2.2427,-2.3899,-2.5479,-2.6423,-2.6947,-2.6738,-2.6633,-2.6727,-2.8671,-2.9437,-2.8907,-2.8533,-2.8075,-2.7654,-2.7322,-2.6991,-2.664,-2.7104,-2.7274,-2.7,-2.7,-2.6804,-2.63,-2.5342,-2.4597,-2.4132,-2.2742,-2.1911,-2.2003,-2.0902,-2.0247,-2.0233,-2.0191,-1.9863,-1.8864,-2.223,-2.4497,-2.4497,-2.683,-2.8421,-2.8745,-2.945,-3.0099,-3.0359,-3.0138,-3.0008,-2.9969,-2.971,-2.9554,-2.9515,-2.9356,-2.9082,-2.8736,-2.877,-2.8476,-2.8027,-2.8418,-2.9237,-3.081,-3.1757,-3.3063,-3.5031,-3.5654,-3.5723,-3.5782,-3.6284,-3.6486,-3.6157,-3.6676,-3.7478,-3.8042,-3.8493,-3.8819,-3.9265,-3.9914,-4.0105,-4.0054,-4.1021,-4.1781,-4.2087,-4.274,-4.3462,-4.401,-4.4669,-4.6099,-1.7635,-1.7725,-1.7764,-1.751,-1.712,-1.6983,-1.6745,-1.6587,-1.6851,-1.6878,-1.6752,-1.6792,-1.6989,-1.7167,-1.7304,-1.7528,-1.7943,-1.8297,-1.8308,-1.8219,-1.8708,-1.8546,-1.7941,-1.9001,-1.9237,-1.9074,-2.1595,-2.2851,-2.3168,-2.4953,-2.6214,-2.6528,-2.6947,-2.7679,-2.8305,-2.824,-2.8104,-2.7771,-3.1363,-3.2964,-3.2372,-3.2281,-3.1803,-3.1029,-3.0742,-3.059,-3.03,-3.0498,-3.0761,-3.0761,-3.0761,-3.0227,-2.9314,-2.799,-2.6839,-2.585,-2.4377,-2.3556,-2.3567,-2.33,-2.3108,-2.3021,-2.3393,-2.3365,-2.2796,-2.4962,-2.6482,-2.6572,-2.842,-3.0021,-3.0398,-2.9671,-2.9434,-2.9697,-2.9473,-2.9187,-2.9239,-2.9121,-2.9056,-2.9056,-2.8905,-2.8692,-2.819,-2.8113,-2.8001,-2.8092,-2.8925,-3.0474,-3.2125,-3.4023,-3.5475,-3.6115,-3.6292,-3.6044,-3.5544,-3.5812,-3.6199,-3.6375,-3.7251,-3.8032,-3.8763,-3.9206,-3.9614,-3.9673,-4.0738,-4.1273,-4.1352,-4.2376,-4.2921,-4.3125,-4.3462,-4.4034,-4.5053,-4.5838,-4.6949,-1.6937,-1.6745,-1.6983,-1.691,-1.664,-1.6594,-1.6673,-1.6811,-1.6105,0.0,0.0,-1.6119,-1.6305,-1.6372,-1.7011,-1.7331,-1.7426,-1.7884,-1.9006,-2.0296,-1.887,-1.9145,-2.0839,-2.1247,-2.1509,-2.1693,-2.4119,-2.5469,-2.5899,-2.6318,-2.7679,-2.9784,-3.0095,-3.1039,-3.2882,-3.2583,-3.2558,-3.2822,-3.267,-3.2369,-3.187,-3.1307,-3.1114,-3.1407,-3.1011,-3.0867,-3.1156,-3.0867,-3.0761,-3.0761,-3.0761,-3.0423,-2.988,-2.9559,-2.9124,-2.8413,-2.6561,-2.5493,-2.5493,-2.4,-2.2985,-2.2509,-2.2209,-2.3604,-2.7575,-2.8276,-2.8602,-2.8602,-2.9054,-2.9369,-2.9372,-2.9278,-2.9213,-2.9317,-2.9239,-2.9174,-2.9148,-2.8671,-2.8385,-2.8333,-2.7996,-2.7645,-2.765,-2.7637,-2.7957,-2.9155,-2.9909,-3.0554,-3.2397,-3.4776,-3.6271,-3.5977,-3.6177,-3.6101,-3.5457,-3.5618,-3.587,-3.653,-3.6982,-3.8017,-3.9845,-4.0614,-4.1145,-4.1987,-4.2558,-4.2679,-4.2823,-4.3162,-4.3462,-4.3462,-4.4483,-4.5484,-4.592,-4.7453,-4.9289,-1.6759,-1.6521,-1.6811,-1.6679,0.0,-1.6385,-1.6867,-1.7721,-1.62,-1.5528,-1.5638,-1.6849,-1.7588,-1.7889,-1.9616,-2.0386,-2.0403,-2.1272,-2.1937,-2.2334,-2.2133,-2.2329,-2.2905,-2.3616,-2.382,-2.3709,-2.6259,-2.7695,-2.7999,-2.9013,-3.049,-3.2202,-3.2189,-3.2962,-3.4586,-3.4323,-3.4676,-3.5635,-3.4647,-3.4531,-3.5247,-3.4932,-3.4167,-3.3145,-3.2473,0.0,0.0,0.0,0.0,0.0,0.0,0.0,0.0,-2.906,0.0,-2.8581,-2.7573,-2.7124,-2.7294,-2.6287,-2.5638,-2.5735,-2.5203,-2.5845,-2.7897,-2.8405,-2.8658,-2.8645,-2.8645,-2.8775,-2.9108,-2.8653,-2.8346,-2.8606,-2.8398,-2.8229,-2.8203,-2.797,-2.7801,-2.7775,-2.7554,-2.7782,-2.8572,-2.8654,-2.9371,-3.0941,-3.2046,-3.3157,-3.4007,-3.5433,-3.6249,-3.5851,-3.6181,-3.6196,-3.5764,-3.6338,-3.7245,-3.7572,-3.8324,-3.9504,-4.0814,-4.1575,-4.2292,-4.2944,-4.3148,-4.3148,-4.3185,-4.3856,-4.44,-4.4552,-4.569,-4.6765,-4.7196,-4.8105,-4.9285,-1.7708,-1.7555,-1.7764,-1.7378,-1.6686,-1.7067,-1.7979,-1.9155,-1.7436,-1.668,-1.6858,-1.8484,-1.9529,-2.0198,-2.2377,-2.3343,-2.3478,-2.4678,-2.4929,-2.4467,-2.53,-2.5397,-2.4974,-2.5885,-2.6125,-2.59,-2.8496,-2.9786,-2.9786,-3.1573,-3.2709,-3.3263,-3.3276,-3.3811,-3.475,0.0,0.0,0.0,-3.6497,-3.678,-3.8375,-3.8251,-3.7229,-3.533,-3.4459,0.0,-3.1183,-3.0527,-3.0085,-2.9709,-2.9348,0.0,0.0,0.0,0.0,0.0,0.0,0.0,0.0,0.0,0.0,0.0,-2.8151,-2.7592,-2.6952,-2.7458,-2.786,-2.8048,-2.8061,-2.8255,-2.8783,-2.7988,-2.7637,-2.7983,-2.7741,-2.7454,-2.7385,-2.7385,-2.7385,-2.7385,-2.77,-2.8409,-2.9681,-3.0232,-3.0992,-3.2495,-3.4206,-3.5243,-3.5612,-3.5717,-3.5793,-3.5844,-3.624,-3.6494,-3.6514,-3.7727,-3.8514,-3.9126,-4.0233,-4.0999,-4.1452,-4.2437,-4.3148,-4.3148,-4.3305,-4.3522,-4.3545,-4.4669,-4.5723,-4.5723,-4.6826,-4.7896,-4.8366,-4.8488,-4.8605,-2.1368,-2.1147,-2.143,-2.0277,-1.8458,-2.0266,-2.1196,-2.1332,-2.1047,-2.0952,-2.0952,-2.1246,-2.1618,-2.2197,-2.2955,-2.3523,-2.3901,-2.4434,-2.5703,-2.7137,-2.5558,-2.59,-2.7845,-2.8049,-2.8376,-2.8693,-3.0986,-3.2073,-3.2073,-3.2281,-3.2501,-3.2579,-3.2592,-3.3107,-3.4107,-3.4261,-3.5467,-3.755,-3.7338,-3.7037,-3.6873,-3.6783,-3.6827,-3.6987,-3.5819,-3.5173,-3.5255,-3.2807,-3.1441,-3.1285,-2.993,-2.8606,-2.7567,-2.7832,-2.7561,0.0,-2.6767,0.0,0.0,0.0,0.0,0.0,0.0,0.0,0.0,-2.6504,-2.6876,-2.745,-2.7489,-2.7515,-2.7593,-2.7766,-2.7782,-2.7559,-2.7713,-2.7756,-2.7454,-2.7385,-2.7385,-2.7385,-2.8735,-2.9695,-3.0042,-3.1262,-3.2527,-3.3479,-3.4018,-3.473,-3.5887,-3.6033,-3.5945,-3.6096,-3.6369,-3.722,-3.8344,-3.8853,-3.9483,-4.042,-4.0937,-4.1452,-4.2619,-4.3004,-4.3125,-4.3222,-4.3938,-4.4596,-4.4669,-4.6017,-4.7174,-4.7157,-4.7659,-4.8331,-4.8542,-4.9032,-4.9749,-2.183,-2.1775,-2.1858,-2.1887,-2.1942,-2.2858,-2.3315,-2.3224,-2.2126,-2.2309,-2.3234,-2.2126,-2.2401,-2.3691,-2.5351,-2.6247,-2.6508,-2.7244,-2.8145,-2.9003,-2.8421,-2.8635,-2.9722,-2.9722,-2.9846,-3.0081,-3.1042,-3.1372,-3.1073,-3.106,-3.1216,-3.1528,-3.1203,-3.2276,-3.4442,-3.4606,-3.525,-3.6549,-3.835,-3.9882,-4.0922,-4.0077,-3.9289,-3.8534,-3.7092,-3.5811,-3.4542,-3.3244,-3.2428,-3.2057,-3.0175,-2.902,-2.8869,-2.7916,-2.7429,0.0,0.0,0.0,0.0,0.0,0.0,0.0,0.0,0.0,0.0,0.0,-2.6452,-2.6702,-2.6583,-2.6806,-2.7589,-2.7603,-2.7803,-2.8396,-2.8667,-2.8816,-2.9155,-2.8904,-2.8869,-2.8948,-2.9427,-3.0036,-3.104,-3.1807,-3.2822,-3.4353,-3.4673,-3.5112,-3.5739,-3.6236,-3.6519,-3.6877,-3.752,-3.8408,-3.9734,-4.0712,-4.1536,-4.2048,-4.2231,-4.2353,-4.3065,-4.3677,-4.3996,-4.3536,-4.4342,-4.4964,-4.4528,-4.57,-4.6758,-4.6886,-4.7517,-4.8197,-4.843,-4.8685,-4.8789,-2.291,-2.3052,-2.3414,-2.4279,-2.5377,-2.5492,-2.5444,-2.5129,-2.3624,-2.3751,-2.4878,-2.3606,-2.3721,-2.4848,-2.7017,-2.8129,-2.844,-2.9232,-2.9697,-2.9891,-3.019,-3.0372,-3.0372,-3.0372,-3.0372,-3.0372,-3.0945,-3.0993,-3.0447,-3.0732,-3.1049,-3.1394,-3.0858,-3.223,-3.5219,-3.5194,-3.551,-3.6418,-3.8979,-4.1373,-4.3579,-4.2494,-4.1162,-3.9555,-3.8235,-3.6599,-3.4639,-3.4041,-3.339,-3.2716,-3.0719,-2.9605,-2.9758,-2.8158,0.0,0.0,0.0,0.0,0.0,0.0,0.0,0.0,0.0,-2.6363,-2.6926,0.0,-2.6326,0.0,-2.618,-2.6304,-2.7211,-2.7316,0.0,0.0,-2.9206,-2.967,-3.0198,-3.0151,-3.0149,-3.0241,-3.0474,-3.1016,-3.2289,-3.282,-3.3596,-3.4916,-3.5575,-3.5909,-3.5977,-3.68,-3.7534,-3.7791,-3.8831,-3.9943,-4.0792,-4.2208,-4.3305,-4.3581,-4.3369,-4.3286,-4.3593,-4.4226,-4.4495,-4.4255,-4.5016,-4.5621,-4.5393,-4.6085,-4.6716,-4.5978,-4.6696,-4.7647,-4.789,-4.8423,-4.8734,-2.6604,-2.6725,-2.8654,-2.882,-2.7943,-2.8388,-2.8087,-2.7324,-2.7148,-2.6763,-2.6312,-2.6885,-2.655,-2.5581,-2.6525,0.0,-2.8405,-2.8487,-2.8839,-2.9216,-2.9216,-2.9304,-2.9304,-2.9317,-2.9317,-2.9417,-3.1646,-3.2294,-3.1656,-3.2966,-3.3591,-3.3389,-3.2997,-3.4015,-3.6294,-3.58,-3.6669,-3.8926,-3.8865,-3.9602,-4.1262,-4.1191,-4.0715,-3.9839,-3.9006,-3.8484,-3.8236,-3.6083,-3.4501,-3.373,-3.2041,-3.0445,-2.8966,0.0,0.0,0.0,0.0,0.0,0.0,0.0,0.0,0.0,0.0,0.0,0.0,0.0,0.0,-2.7414,-2.7058,0.0,-2.589,-2.6723,0.0,0.0,0.0,-2.9658,-2.9643,-3.026,-3.0663,-3.0678,0.0,0.0,-3.3647,-3.5022,-3.5766,-3.5068,-3.6024,-3.6859,-3.6994,-3.8111,-3.881,-3.8557,-4.0152,-4.1452,-4.1546,-4.2624,-4.3677,-4.4276,-4.3844,-4.3689,-4.4623,-4.4432,-4.4312,-4.5117,-4.6469,-4.7417,-4.8699,-4.8848,-4.8468,-4.5397,-4.5644,-4.6399,-4.6859,-4.9044,-5.0938,-2.8267,-2.8671,-2.9705,-2.9834,-2.9377,-2.9546,-2.9098,-2.8338,-2.8338,-2.7641,-2.661,-2.7029,-2.6867,-2.6135,-2.6763,0.0,0.0,0.0,-2.8713,-2.897,-2.9027,-2.8892,-2.8614,-2.8216,-2.8808,-3.0146,-3.1119,-3.1939,-3.263,-3.3304,-3.4165,-3.5398,0.0,-3.5139,-3.6632,-3.6415,-3.6891,-3.8163,-3.8485,-3.8936,-3.9559,-4.1177,-4.184,-4.1254,-3.9334,-3.8114,-3.7629,-3.6874,-3.6095,-3.504,-3.3459,-3.2116,0.0,0.0,0.0,0.0,0.0,0.0,0.0,0.0,0.0,0.0,0.0,-2.6132,-2.667,0.0,0.0,0.0,-2.7187,-2.7543,-2.7893,-2.8246,0.0,0.0,0.0,0.0,0.0,0.0,0.0,-3.3266,-3.3588,-3.3792,-3.3879,-3.5154,-3.6101,-3.5958,-3.7039,-3.8111,-3.8789,0.0,-4.0853,-4.0915,-4.2307,-4.3083,-4.2213,-4.2822,-4.3299,-4.3153,-4.3081,-4.346,-4.4132,-4.4587,-4.4787,-4.4931,-4.5746,-4.6548,-4.6424,-4.7728,-4.8266,-4.7348,-4.7607,-4.8106,-4.8307,-4.9872,-5.1288,-2.9607,0.0,0.0,0.0,0.0,-3.0496,-2.9717,-2.8355,-2.8431,-2.7488,-2.5865,-2.6301,0.0,0.0,0.0,0.0,0.0,0.0,-2.8495,-2.8812,-2.9337,-2.9329,-2.8938,-2.868,-2.9343,-3.0865,-3.1516,-3.2286,-3.3347,-3.3796,-3.4868,-3.6491,0.0,0.0,0.0,0.0,-3.8281,-3.8405,-3.9448,-3.9962,-3.9884,-4.189,-4.2918,-4.2871,-4.0035,-3.8287,-3.7678,-3.7413,-3.6938,-3.612,-3.4649,0.0,0.0,0.0,0.0,0.0,0.0,0.0,0.0,0.0,0.0,0.0,0.0,0.0,0.0,0.0,0.0,0.0,0.0,0.0,-2.8909,-2.8928,-2.9487,0.0,0.0,0.0,0.0,0.0,0.0,0.0,0.0,0.0,-3.4329,-3.5554,-3.6568,0.0,0.0,-3.9734,-4.0606,-4.1835,-4.2828,-4.3188,-4.4223,0.0,-4.3261,-4.351,-4.3531,-4.2634,-4.3232,-4.3888,-4.4318,-4.4998,-4.5348,-4.5094,-4.5713,-4.5791,-4.4458,-4.539,-4.6635,-4.7227,-4.8107,-4.8825,-4.9182,-5.0274,-5.125,0.0,0.0,0.0,0.0,-3.1492,0.0,0.0,0.0,-2.7781,-2.6368,0.0,-2.506,0.0,0.0,0.0,0.0,-2.6336,-2.7101,0.0,0.0,-3.0429,-3.0961,-3.0635,-3.093,-3.1193,-3.1378,-3.325,-3.3985,-3.372,-3.5111,0.0,0.0,0.0,0.0,0.0,0.0,-4.1335,-4.0418,-4.2125,-4.3005,-4.2764,-4.3192,-4.3677,-4.4247,-4.1467,-3.9633,-3.9338,-3.7731,-3.6836,-3.6904,-3.5526,0.0,0.0,0.0,0.0,0.0,0.0,0.0,0.0,0.0,0.0,0.0,0.0,0.0,0.0,0.0,0.0,0.0,0.0,0.0,0.0,-2.8221,0.0,0.0,0.0,0.0,0.0,0.0,0.0,0.0,0.0,-3.4828,-3.5425,-3.6713,-3.7768,-3.7991,0.0,0.0,0.0,0.0,-4.4566,-4.4762,-4.5633,-4.5886,-4.4919,-4.4797,-4.4635,-4.3964,0.0,0.0,-4.6205,-4.557,-4.5366,-4.6698,-4.6678,-4.5944,-4.3191,-4.3102,-4.3485,-4.3892,-4.593,-4.7531,-4.8104,-4.9783,-5.1391,0.0,0.0,0.0,0.0,0.0,0.0,0.0,0.0,0.0,-2.7242,-2.5486,-2.5949,0.0,0.0,0.0,0.0,0.0,0.0,0.0,0.0,-2.9322,-2.9924,-2.993,-2.9716,-3.0522,-3.2113,-3.3063,-3.4026,0.0,0.0,0.0,0.0,0.0,0.0,0.0,0.0,-4.0941,-4.0642,-4.1722,-4.2299,-4.2227,-4.3487,-4.3961,-4.3277,-4.3423,-4.2215,-3.9389,-3.8712,-3.7758,0.0,0.0,0.0,0.0,0.0,0.0,0.0,0.0,0.0,0.0,0.0,0.0,0.0,0.0,0.0,0.0,0.0,0.0,0.0,0.0,0.0,0.0,0.0,-3.0193,0.0,0.0,0.0,0.0,0.0,0.0,0.0,0.0,0.0,-3.5982,-3.7107,-3.8074,-3.8865,-4.0401,-4.2142,-4.4079,0.0,0.0,0.0,0.0,0.0,0.0,0.0,-4.5043,-4.3626,-4.3875,-4.4559,-4.5344,-4.5501,-4.5411,-4.5078,0.0,0.0,-4.3679,-4.3998,-4.4597,-4.4874,-4.6195,-4.7361,-4.7616,-4.8478,-4.9304,0.0,0.0,0.0,0.0,0.0,0.0,0.0,0.0,0.0,-2.8062,-2.6486,0.0,0.0,0.0,0.0,0.0,0.0,0.0,0.0,0.0,0.0,0.0,-3.098,-3.078,0.0,0.0,0.0,0.0,0.0,0.0,0.0,0.0,0.0,0.0,0.0,0.0,-4.1928,-4.1729,-4.3004,-4.3589,-4.3309,-4.4606,-4.4897,-4.4245,-4.4899,-4.3718,-4.0661,0.0,0.0,0.0,0.0,0.0,0.0,0.0,0.0,0.0,0.0,0.0,0.0,0.0,0.0,0.0,0.0,0.0,0.0,0.0,0.0,0.0,0.0,0.0,0.0,0.0,-3.0894,0.0,0.0,0.0,0.0,0.0,0.0,0.0,0.0,0.0,0.0,-3.8078,-3.8975,-3.9698,-4.1445,-4.3334,-4.5214,-4.6103,-4.6881,0.0,0.0,0.0,0.0,0.0,0.0,0.0,0.0,0.0,0.0,0.0,0.0,0.0,0.0,-4.3825,-4.3311,-4.3837,-4.4514,-4.4924,0.0,0.0,0.0,0.0,0.0,0.0,0.0,0.0,0.0,0.0,0.0,0.0,0.0,0.0,0.0,-2.687,0.0,0.0,-2.647,0.0,0.0,0.0,0.0,0.0,0.0,0.0,0.0,0.0,0.0,0.0,0.0,0.0,0.0,0.0,0.0,0.0,0.0,0.0,0.0,0.0,0.0,-4.4395,-4.3605,-4.6128,-4.7099,-4.6275,-4.6292,-4.6714,-4.7449,-4.5783,-4.4309,-4.3188,0.0,0.0,0.0,0.0,0.0,0.0,0.0,0.0,0.0,0.0,0.0,0.0,0.0,0.0,0.0,0.0,0.0,0.0,0.0,0.0,0.0,0.0,0.0,0.0,0.0,0.0,-3.0819,-3.296,-3.4727,0.0,0.0,0.0,0.0,0.0,0.0,0.0,0.0,0.0,-4.0484,-4.3034,-4.5125,-4.5823,-4.66,-4.7339,-4.8018,-4.7323,-4.64,-4.5511,-4.5412,-4.5241,0.0,0.0,0.0,0.0,0.0,0.0,0.0,0.0,0.0,0.0,0.0,0.0,0.0,0.0,0.0,0.0,0.0,0.0,0.0,0.0,0.0,0.0,0.0,0.0,0.0,0.0,0.0,0.0,0.0,0.0,0.0,0.0,0.0,0.0,0.0,0.0,0.0,0.0,0.0,0.0,0.0,0.0,0.0,0.0,0.0,0.0,0.0,0.0,0.0,0.0,0.0,0.0,0.0,0.0,-4.4839,-4.4647,-4.6854,-4.7882,-4.7646,-4.7646,-4.7794,-4.8006,-4.7256,-4.6183,0.0,0.0,0.0,0.0,0.0,0.0,0.0,0.0,0.0,0.0,0.0,0.0,0.0,0.0,0.0,0.0,0.0,0.0,0.0,0.0,0.0,0.0,0.0,0.0,0.0,0.0,0.0,0.0,-3.367,-3.5161,-3.639,0.0,0.0,0.0,0.0,0.0,0.0,0.0,0.0,0.0,0.0,-4.5551,-4.6943,-4.7624,-4.8373,-4.9363,-4.8656,-4.7615,-4.6546,-4.6971,-4.7101,-4.6055,0.0,0.0,0.0,0.0,0.0,0.0,0.0,0.0,0.0,0.0,0.0,0.0,0.0,0.0,0.0,0.0,0.0,0.0,0.0,0.0,0.0,0.0,0.0,0.0,0.0,0.0,0.0,0.0,0.0,0.0,0.0,0.0,0.0,0.0,0.0,0.0,0.0,0.0,0.0,0.0,0.0,0.0,0.0,0.0,0.0,0.0,0.0,0.0,0.0,0.0,0.0,0.0,0.0,-4.5285,-4.5553,-4.7423,-4.8428,-4.8519,-4.8169,-4.8201,-4.8545,-4.7905,-4.6939,0.0,0.0,0.0,0.0,0.0,0.0,0.0,0.0,0.0,0.0,0.0,0.0,0.0,0.0,0.0,0.0,0.0,0.0,0.0,0.0,0.0,0.0,0.0,0.0,0.0,0.0,0.0,0.0,-3.4135,-3.5689,-3.6677,0.0,0.0,0.0,0.0,0.0,0.0,0.0,0.0,0.0,0.0,-4.5872,-4.6874,-4.7429,0.0,0.0,-4.8026,-4.711,-4.6473,-4.687,-4.7051,-4.6553,-4.73,0.0,0.0,0.0,0.0,0.0,0.0,0.0,0.0,0.0,0.0,0.0,0.0,0.0,0.0,0.0,0.0,0.0,0.0,0.0,0.0,0.0,0.0,0.0,0.0,0.0,0.0,0.0,0.0,0.0,0.0,0.0,0.0,0.0,0.0,0.0,0.0,0.0,0.0,0.0,0.0,0.0,0.0,0.0,0.0,0.0,0.0,0.0,0.0,0.0,0.0,0.0,0.0,-4.5912,-4.6388,-4.7897,-4.8836,-4.9253,-4.8359,-4.8307,-4.9285,-4.8155,-4.7014,0.0,0.0,0.0,0.0,0.0,0.0,0.0,0.0,0.0,0.0,0.0,0.0,0.0,0.0,0.0,0.0,0.0,0.0,0.0,0.0,0.0,0.0,0.0,0.0,0.0,0.0,0.0,0.0,0.0,0.0,0.0,0.0,0.0,0.0,0.0,0.0,0.0,0.0,0.0,0.0,0.0,-4.6166,-4.6137,-4.6605,-4.6967,0.0,-4.6089,-4.5414,-4.5698,-4.5585,-4.5852,-4.6775,0.0,0.0,0.0,0.0,0.0,0.0,0.0,0.0,0.0,0.0,0.0,0.0,0.0,0.0,0.0,0.0,0.0,0.0,0.0,0.0,0.0,0.0,0.0,0.0,0.0,0.0,0.0,0.0,0.0,0.0,0.0,0.0,0.0,0.0,0.0,0.0,0.0,0.0,0.0,0.0,0.0,0.0,0.0,0.0,0.0,0.0,0.0,0.0,0.0,0.0,0.0,0.0,0.0,0.0,-4.6993,-4.8434,-4.9683,-5.0581,-5.0389,-5.0361,-5.0635,-5.0149,0.0,0.0,0.0,0.0,0.0,0.0,0.0,0.0,0.0,0.0,0.0,0.0,0.0,0.0,0.0,0.0,0.0,0.0,0.0,0.0,0.0,0.0,0.0,0.0,0.0,0.0,0.0,-3.183,0.0,0.0,0.0,0.0,0.0,0.0,0.0,0.0,0.0,0.0,0.0,0.0,0.0,0.0,-4.6775,-4.6668,-4.7,-4.7239,0.0,0.0,-4.5894,-4.637,-4.7037,-4.7619,0.0,0.0,0.0,0.0,0.0,0.0,0.0,0.0,0.0,0.0,0.0,0.0,0.0,0.0,0.0,0.0,0.0,0.0,0.0,0.0,0.0,0.0,0.0,0.0,0.0,0.0,0.0,0.0,0.0,0.0,0.0,0.0,0.0,0.0,0.0,0.0,0.0,0.0,0.0,0.0,0.0,0.0,0.0,0.0,0.0,0.0,0.0,0.0,0.0,0.0,0.0,0.0,0.0,0.0,-4.7587,-4.8539,-5.0366,-5.1786,-5.2793,-5.2821,-5.2571,-5.2145,-5.1891,-5.0641,0.0,0.0,0.0,0.0,0.0,0.0,0.0,0.0,0.0,0.0,0.0,0.0,0.0,0.0,0.0,0.0,0.0,0.0,0.0,0.0,0.0,0.0,0.0,0.0,0.0,0.0,0.0,0.0,0.0,0.0,0.0,0.0,0.0,0.0,0.0,0.0,0.0,0.0,0.0,0.0,0.0,0.0,-4.6595,-4.6855,0.0,0.0,0.0,-4.6435,-4.7239,0.0,0.0,0.0,0.0,0.0,0.0,0.0,0.0,0.0,0.0,0.0,0.0,0.0,0.0,0.0,0.0,0.0,0.0,0.0,0.0,0.0,0.0,0.0,0.0,0.0,0.0,0.0,0.0,0.0,0.0,0.0,0.0,0.0,0.0,0.0,0.0,0.0,0.0,0.0,0.0,0.0,0.0,0.0,0.0,0.0,0.0,0.0,0.0,0.0,0.0,0.0,0.0,0.0,0.0,0.0,0.0,0.0,-5.0243,-5.2368,-5.3964,-5.4911,-5.4988,-5.4516,-5.3484,-5.3065,-5.1404,0.0,0.0,0.0,0.0,0.0,0.0,0.0,0.0,0.0,0.0,0.0,0.0,0.0,0.0,0.0,0.0,0.0,0.0,0.0,0.0,0.0,0.0,0.0,0.0,0.0,0.0,0.0,0.0,0.0,0.0,0.0,0.0,0.0,0.0,0.0,0.0,0.0,0.0,0.0,0.0,0.0,-4.5786,-4.6064,-4.6352,-4.6667,0.0,0.0,-4.702,-4.8167,-4.7885,0.0,0.0,0.0,0.0,0.0,0.0,0.0,0.0,0.0,0.0,0.0,0.0,0.0,0.0,0.0,0.0,0.0,0.0,0.0,0.0,0.0,0.0,0.0,0.0,0.0,0.0,0.0,0.0,0.0,0.0,0.0,0.0,0.0,0.0,0.0,0.0,0.0,0.0,0.0,0.0,0.0,0.0,0.0,0.0,0.0,0.0,0.0,0.0,0.0,0.0,0.0,0.0,0.0,0.0,0.0,0.0,-5.0542,-5.1105,-5.2531,-5.4898,-5.4988,-5.4516,-5.3475,-5.2495,-5.0944,0.0,0.0,0.0,0.0,0.0,0.0,0.0,0.0,0.0,0.0,0.0,0.0,0.0,0.0,0.0,0.0,0.0,0.0,0.0,0.0,0.0,0.0,0.0,0.0,0.0,0.0,0.0,0.0,0.0,0.0,0.0,0.0,0.0,0.0,0.0,0.0,0.0,0.0,0.0,0.0,0.0,-4.4974,-4.5163,-4.5645,0.0,0.0,0.0,0.0,-4.8876,-4.9119,0.0,0.0,0.0,0.0,0.0,0.0,0.0,0.0,0.0,0.0,0.0,0.0,0.0,0.0,0.0,0.0,0.0,0.0,0.0,0.0,0.0,0.0,0.0,0.0,0.0,0.0,0.0,0.0,0.0,0.0,0.0,0.0,0.0,0.0,0.0,0.0,0.0,0.0,0.0,0.0,0.0,0.0,0.0,0.0,0.0,0.0,0.0,0.0,0.0,0.0,0.0,0.0,0.0,0.0,0.0,0.0,-5.1854,-5.2682,-5.4197,-5.6512,-5.6708,-5.626,-5.5175,-5.3869,-5.2146,0.0,0.0,0.0,0.0,0.0,0.0,0.0,0.0,0.0,0.0,0.0,0.0,0.0,0.0,0.0,0.0,0.0,0.0,0.0,0.0,0.0,0.0,0.0,0.0,0.0,0.0,0.0,0.0,0.0,0.0,0.0,0.0,0.0,0.0,0.0,0.0,0.0,0.0,0.0,0.0,-4.3126,-4.4337,-4.4601,0.0,0.0,0.0,0.0,0.0,0.0,-4.8378,-4.8179,0.0,0.0,0.0,0.0,0.0,0.0,0.0,0.0,0.0,0.0,0.0,0.0,0.0,0.0,0.0,0.0,0.0,0.0,0.0,0.0,0.0,0.0,0.0,0.0,0.0,0.0,0.0,0.0,0.0,0.0,0.0,0.0,0.0,0.0,0.0,0.0,0.0,0.0,0.0,0.0,0.0,0.0,0.0,0.0,0.0,0.0,0.0,0.0,0.0,0.0,0.0,0.0,0.0,0.0,0.0,-5.3423,-5.4651,-5.632,-5.8284,-5.8599,-5.8052,-5.665,-5.5245,-5.339,-5.1028,0.0,0.0,0.0,0.0,0.0,0.0,0.0,0.0,0.0,0.0,0.0,0.0,0.0,0.0,0.0,0.0,0.0,0.0,0.0,0.0,0.0,0.0,0.0,0.0,0.0,0.0,0.0,0.0,0.0,0.0,0.0,0.0,0.0,0.0,0.0,0.0,0.0,0.0,0.0,-4.2333,-4.3648,0.0,0.0,0.0,0.0,0.0,0.0,0.0,0.0,-4.7037,0.0,0.0,0.0,0.0,0.0,0.0,0.0,0.0,0.0,0.0,0.0,0.0,0.0,0.0,0.0,0.0,0.0,0.0,0.0,0.0,0.0,0.0,0.0,0.0,0.0,0.0,0.0,0.0,0.0,0.0,0.0,0.0,0.0,0.0,0.0,0.0,0.0,0.0,0.0,0.0,0.0,0.0,0.0,0.0,0.0,0.0,0.0,0.0,0.0,0.0,0.0,0.0,0.0,0.0,0.0,0.0,-5.4114,-5.559,-5.8472,-5.8682,-5.7589,-5.5366,-5.3906,-5.2776,-5.1899,0.0,0.0,0.0,0.0,0.0,0.0,0.0,0.0,0.0,0.0,0.0,0.0,0.0,0.0,0.0,0.0,0.0,0.0,0.0,0.0,0.0,0.0,0.0,0.0,0.0,0.0,0.0,0.0,0.0,0.0,0.0,0.0,0.0,0.0,0.0,0.0,0.0,0.0,-3.9334,-4.1255,0.0,0.0,0.0,0.0,0.0,0.0,0.0,0.0,-4.759,0.0,0.0,0.0,0.0,0.0,0.0,0.0,0.0,0.0,0.0,0.0,0.0,0.0,0.0,0.0,0.0,0.0,0.0,0.0,0.0,0.0,0.0,0.0,0.0,0.0,0.0,0.0,0.0,0.0,0.0,0.0,0.0,0.0,0.0,0.0,0.0,0.0,0.0,0.0,0.0,0.0,0.0,0.0,0.0,0.0,0.0,0.0,0.0,0.0,0.0,0.0,0.0,0.0,0.0,0.0,0.0,0.0,0.0,-5.5459,-5.7699,-5.8547,-5.8064,-5.6104,-5.4675,-5.3085,0.0,0.0,0.0,0.0,0.0,0.0,0.0,0.0,0.0,0.0,0.0,0.0,0.0,0.0,0.0,0.0,0.0,0.0,0.0,0.0,0.0,0.0,0.0,0.0,0.0,0.0,0.0,0.0,0.0,0.0,0.0,0.0,0.0,0.0,0.0,0.0,0.0,0.0,0.0,0.0,0.0,0.0,0.0,0.0,0.0,0.0,0.0,0.0,0.0,0.0,0.0,0.0,0.0,0.0,0.0,0.0,0.0,0.0,0.0,0.0,0.0,0.0,0.0,0.0,0.0,0.0,0.0,0.0,0.0,0.0,0.0,0.0,0.0,0.0,0.0,0.0,0.0,0.0,0.0,0.0,0.0,0.0,0.0,0.0,0.0,0.0,0.0,0.0,0.0,0.0,0.0,0.0,0.0,0.0,0.0,0.0,0.0,0.0,0.0,0.0,0.0,0.0,0.0,0.0,0.0,0.0,0.0,0.0,-5.5317,-5.701,-5.8229,-5.8092,-5.6618,-5.5341,-5.3322,0.0,0.0,0.0,0.0,0.0,0.0,0.0,0.0,0.0,0.0,0.0,0.0,0.0,0.0,0.0,0.0,0.0,0.0,0.0,0.0,0.0,0.0,0.0,0.0,0.0,0.0,0.0,0.0,0.0,0.0,0.0,0.0,0.0,0.0,0.0,0.0,0.0,0.0,0.0,0.0,0.0,0.0,0.0,0.0,0.0,0.0,0.0,0.0,-4.5029,0.0,0.0,0.0,0.0,0.0,0.0,0.0,0.0,0.0,0.0,0.0,0.0,0.0,0.0,0.0,0.0,0.0,0.0,0.0,0.0,0.0,0.0,0.0,0.0,0.0,0.0,0.0,0.0,0.0,0.0,0.0,0.0,0.0,0.0,0.0,0.0,0.0,0.0,0.0,0.0,0.0,0.0,0.0,0.0,0.0,0.0,0.0,0.0,0.0,0.0,0.0,0.0,0.0,0.0,0.0,0.0,0.0,0.0,0.0,-5.4615,-5.7408,-5.7381,-5.6731,-5.548,-5.4687,-5.2734,0.0,0.0,0.0,0.0,0.0,0.0,0.0,0.0,0.0,0.0,0.0,0.0,0.0,0.0,0.0,0.0,0.0,0.0,0.0,0.0,0.0,0.0,0.0,0.0,0.0,0.0,0.0,0.0,0.0,0.0,0.0,0.0,0.0,0.0,0.0,0.0,0.0,0.0,0.0,0.0,0.0,0.0,0.0,0.0,0.0,0.0,0.0,0.0,0.0,0.0,0.0,0.0,0.0,0.0,0.0,0.0,0.0,0.0,0.0,0.0,0.0,0.0,0.0,0.0,0.0,0.0,0.0,0.0,0.0,0.0,0.0,0.0,0.0,0.0,0.0,0.0,0.0,0.0,0.0,0.0,0.0,0.0,0.0,0.0,0.0,0.0,0.0,0.0,0.0,0.0,0.0,0.0,0.0,0.0,0.0,0.0,0.0,0.0,0.0,0.0,0.0,0.0,0.0,0.0,0.0,0.0,0.0,0.0,-5.4187,-5.5644,-5.6432,-5.6134,-5.469,-5.3559,-5.185,0.0,0.0,0.0,0.0,0.0,0.0,0.0,0.0,0.0,0.0,0.0,0.0,0.0,0.0,0.0,0.0,0.0,0.0,0.0,0.0,0.0,0.0,0.0,0.0,0.0,0.0,0.0,0.0,0.0,0.0,0.0,0.0,0.0,0.0,0.0,0.0,0.0,0.0,0.0,0.0,0.0,0.0,0.0,0.0,0.0,0.0,0.0,0.0,0.0,0.0,0.0,0.0,0.0,0.0,0.0,0.0,0.0,0.0,0.0,0.0,0.0,0.0,0.0,0.0,0.0,0.0,0.0,0.0,0.0,0.0,0.0,0.0,0.0,0.0,0.0,0.0,0.0,0.0,0.0,0.0,0.0,0.0,0.0,0.0,0.0,0.0,0.0,0.0,0.0,0.0,0.0,0.0,0.0,0.0,0.0,0.0,0.0,0.0,0.0,0.0,0.0,0.0,0.0,0.0,0.0,0.0,0.0,0.0,0.0,-5.4324,-5.5321,-5.5053,-5.3525,-5.2398,-5.0817,0.0,0.0,0.0,0.0,0.0,0.0,0.0,0.0,0.0,0.0,0.0,0.0,0.0,0.0,0.0,0.0,0.0,0.0,0.0,0.0,0.0,0.0,0.0,0.0,0.0,0.0,0.0,0.0,0.0,0.0,0.0,0.0,0.0,0.0,0.0,0.0,0.0,0.0,0.0,0.0,0.0,0.0,0.0,0.0,0.0,0.0,0.0,0.0,0.0,0.0,0.0,0.0,0.0,0.0,0.0,0.0,0.0,0.0,0.0,0.0,0.0,0.0,0.0,0.0,0.0,0.0,0.0,0.0,0.0,0.0,0.0,0.0,0.0,0.0,0.0,0.0,0.0,0.0,0.0,0.0,0.0,0.0,0.0,0.0,0.0,0.0,0.0,0.0,0.0,0.0,0.0,0.0,0.0,0.0,0.0,0.0,0.0,0.0,0.0,0.0,0.0,0.0,0.0,0.0,0.0,0.0,0.0,0.0,0.0,-5.459,-5.4236,-5.3197,-5.1537,-5.1254,-4.9592,0.0,0.0,0.0,0.0,0.0,0.0,0.0,0.0,0.0,0.0,0.0,0.0,0.0,0.0,0.0,0.0,0.0,0.0,0.0,0.0,0.0,0.0,0.0,0.0,0.0,0.0,0.0,0.0,0.0,0.0,0.0,0.0,0.0,0.0,0.0,0.0,0.0,0.0,0.0,0.0,0.0,0.0,0.0,0.0,0.0,0.0,0.0,0.0,0.0,0.0,0.0,0.0,0.0,0.0,0.0,0.0,0.0,0.0,0.0,0.0,0.0,0.0,0.0,0.0,0.0,0.0,0.0,0.0,0.0,0.0,0.0,0.0,0.0,0.0,0.0,0.0,0.0,0.0,0.0,0.0,0.0,0.0,0.0,0.0,0.0,0.0,0.0,0.0,0.0,0.0,0.0,0.0,0.0,0.0,0.0,0.0,0.0,0.0,0.0,0.0,0.0,0.0,0.0,0.0,0.0,0.0,0.0,0.0,0.0,-5.2902,-5.2783,-5.1922,-5.0256,-4.9229,-4.7866,-4.6198,0.0,0.0,0.0,0.0,0.0,0.0,0.0,0.0,0.0,0.0,0.0,0.0,0.0,0.0,0.0,0.0,0.0,0.0,0.0,0.0,0.0,0.0,0.0,0.0,0.0,0.0,0.0,0.0,0.0,0.0,0.0,0.0,0.0,0.0,0.0,0.0,0.0,0.0,0.0,0.0,0.0,0.0,0.0,0.0,0.0,0.0,0.0,0.0,0.0,0.0,0.0,0.0,0.0,0.0,0.0,0.0,0.0,0.0,0.0,0.0,0.0,0.0,0.0,0.0,0.0,0.0,0.0,0.0,0.0,0.0,0.0,0.0,0.0,0.0,0.0,0.0,0.0,0.0,0.0,0.0,0.0,0.0,0.0,0.0,0.0,0.0,0.0,0.0,0.0,0.0,0.0,0.0,0.0,0.0,0.0,0.0,0.0,0.0,0.0,0.0,0.0,0.0,0.0,0.0,0.0,0.0,0.0,0.0,-5.137,-5.1441,-5.0684,-4.9104,-4.7856,-4.6752,0.0,0.0,0.0,0.0,0.0,0.0,0.0,0.0,0.0,0.0,0.0,0.0,0.0,0.0,0.0,0.0,0.0,0.0,0.0,0.0,0.0,0.0,0.0,0.0,0.0,0.0,0.0,0.0,0.0,0.0,0.0,0.0,0.0,0.0,0.0,0.0,0.0,0.0,0.0,0.0,0.0,0.0,0.0,0.0,0.0,0.0,0.0,0.0,0.0,0.0,0.0,0.0,0.0,0.0,0.0,0.0,0.0,0.0,0.0,0.0,0.0,0.0,0.0,0.0,0.0,0.0,0.0,0.0,0.0,0.0,0.0,0.0,0.0,0.0,0.0,0.0,0.0,0.0,0.0,0.0,0.0,0.0,0.0,0.0,0.0,0.0,0.0,0.0,0.0,0.0,0.0,0.0,0.0,0.0,0.0,0.0,0.0,0.0,0.0,0.0,0.0,0.0,0.0,0.0,0.0,0.0,0.0,0.0,-5.0069,-5.0193,-5.0034,-4.9309,-4.7917,-4.7406,-4.6293,0.0,0.0,0.0,0.0,0.0,0.0,0.0,0.0,0.0,0.0,0.0,0.0,0.0,0.0,0.0,0.0,0.0,0.0,0.0,0.0,0.0,0.0,0.0,0.0,0.0,0.0,0.0,0.0,0.0,0.0,0.0,0.0,0.0,0.0,0.0,0.0,0.0,0.0,0.0,0.0,0.0,0.0,0.0,0.0,0.0,0.0,0.0,0.0,0.0,0.0,0.0,0.0,0.0,0.0,0.0,0.0,0.0,0.0,0.0,0.0,0.0,0.0,0.0,0.0,0.0,0.0,0.0,0.0,0.0,0.0,0.0,0.0,0.0,0.0,0.0,0.0,0.0,0.0,0.0,0.0,0.0,0.0,0.0,0.0,0.0,0.0,0.0,0.0,0.0,0.0,0.0,0.0,0.0,0.0,0.0,0.0,0.0,0.0,0.0,0.0,0.0,0.0,0.0,0.0,0.0,0.0,0.0,0.0,0.0,-5.0345,-4.9346,-4.8048,-4.6533,-4.6109,-4.549,0.0,0.0,0.0,0.0,0.0,0.0,0.0,0.0,0.0,0.0,0.0,0.0,0.0,0.0,0.0,0.0,0.0,0.0,0.0,0.0,0.0,0.0,0.0,0.0,0.0,0.0,0.0,0.0,0.0,0.0,0.0,0.0,0.0,0.0,0.0,0.0,0.0,0.0,0.0,0.0,0.0,0.0,0.0,0.0,0.0,0.0,0.0,0.0,0.0,0.0,0.0,0.0,0.0,0.0,0.0,0.0,0.0,0.0,0.0,0.0,0.0,0.0,0.0,0.0,0.0,0.0,0.0,0.0,0.0,0.0,0.0,0.0,0.0,0.0,0.0,0.0,0.0,0.0,0.0,0.0,0.0,0.0,0.0,0.0,0.0,0.0,0.0,0.0,0.0,0.0,0.0,0.0,0.0,0.0,0.0,0.0,0.0,0.0,0.0,0.0,0.0,0.0,0.0,0.0,0.0,0.0,0.0,0.0,0.0,-4.8972,-4.804,-4.7018,-4.5967,-4.5499,-4.5106,0.0,0.0,0.0,0.0,0.0,0.0,0.0,0.0,0.0,0.0,0.0,0.0,0.0,0.0,0.0,0.0,0.0,0.0,0.0,0.0,0.0,0.0,0.0,0.0,0.0,0.0,0.0,0.0,0.0,0.0,0.0,0.0,0.0,0.0,0.0,0.0,0.0,0.0,0.0,0.0,0.0,0.0,0.0,0.0,0.0,0.0,0.0,0.0,0.0,0.0,0.0,0.0,0.0,0.0,0.0,0.0,0.0,0.0,0.0,0.0,0.0,0.0,0.0,0.0,0.0,0.0,0.0,0.0,0.0,0.0,0.0,0.0,0.0,0.0,0.0,0.0,0.0,0.0,0.0,0.0,0.0,0.0,0.0,0.0,0.0,0.0,0.0,0.0,0.0,0.0,0.0,0.0,0.0,0.0,0.0,0.0,0.0,0.0,0.0,0.0,0.0,0.0,0.0,0.0,0.0,0.0,0.0,0.0,0.0,-4.6307,-4.6284,-4.6207,-4.6068,-4.5566,-4.5106,0.0,0.0,0.0,0.0,0.0,0.0,0.0,0.0,0.0,0.0,0.0,0.0,0.0,0.0,0.0,0.0,0.0,0.0,0.0,0.0,0.0,0.0,0.0,0.0,0.0,0.0,0.0,0.0,0.0,0.0,0.0,0.0,0.0,0.0,0.0,0.0,0.0,0.0,0.0,0.0,0.0,0.0,0.0,0.0,0.0,0.0,0.0,0.0,0.0,0.0,0.0,0.0,0.0,0.0,0.0,0.0,0.0,0.0,0.0,0.0,0.0,0.0,0.0,0.0,0.0,0.0,0.0,0.0,0.0,0.0,0.0,0.0,0.0,0.0,0.0,0.0,0.0,0.0,0.0,0.0,0.0,0.0,0.0,0.0,0.0,0.0,0.0,0.0,0.0,0.0,0.0,0.0,0.0,0.0,0.0,0.0,0.0,0.0,0.0,0.0,0.0,0.0,0.0,0.0,0.0,0.0,0.0,0.0,0.0,0.0,-4.6254,-4.6207,-4.6068,-4.5566,-4.5106,-4.4689,0.0,0.0,0.0,0.0,0.0,0.0,0.0,0.0,0.0,0.0,0.0,0.0,0.0,0.0,0.0,0.0,0.0,0.0,0.0,0.0,0.0,0.0,0.0,0.0,0.0,0.0,0.0,0.0,0.0,0.0,0.0,0.0,0.0,0.0,0.0,0.0,0.0,0.0,0.0,0.0,0.0,0.0,0.0,0.0,0.0,0.0,0.0,0.0,0.0,0.0,0.0,0.0,0.0,0.0,0.0,0.0,0.0,0.0,0.0,0.0,0.0,0.0,0.0,0.0,0.0,0.0,0.0,0.0,0.0,0.0,0.0,0.0,0.0,0.0,0.0,0.0,0.0,0.0,0.0,0.0,0.0,0.0,0.0,0.0,0.0,0.0,0.0,0.0,0.0,0.0,0.0,0.0,0.0,0.0,0.0,0.0,0.0,0.0,0.0,0.0,0.0,0.0,0.0,0.0,0.0,0.0,0.0,0.0,0.0,0.0,-4.6193,-4.6153,-4.581,-4.5052,0.0,0.0,0.0,0.0,0.0,0.0,0.0,0.0,0.0,0.0,0.0,0.0,0.0,0.0,0.0,0.0,0.0,0.0,0.0,0.0,0.0,0.0,0.0,0.0,0.0,0.0,0.0,0.0,0.0,0.0,0.0,0.0,0.0,0.0,0.0,0.0,0.0,0.0,0.0,0.0,0.0,0.0,0.0,0.0,0.0,0.0,0.0,0.0,0.0,0.0,0.0,0.0,0.0,0.0,0.0,0.0,0.0,0.0,0.0,0.0,0.0,0.0,0.0,0.0,0.0,0.0,0.0,0.0,0.0,0.0,0.0,0.0,0.0,0.0,0.0,0.0,0.0,0.0,0.0,0.0,0.0,0.0,0.0,0.0,0.0,0.0,0.0,0.0,0.0,0.0,0.0,0.0,0.0,0.0,0.0,0.0,0.0,0.0,0.0,0.0,0.0,0.0,0.0,0.0,0.0,0.0,0.0,0.0,0.0,0.0,0.0,-4.6269,-4.6292,-4.6013,0.0,-4.2699,0.0,0.0,0.0,0.0,0.0,0.0,0.0,0.0,0.0,0.0,0.0,0.0,0.0,0.0,0.0,0.0,0.0,0.0,0.0,0.0,0.0,0.0,0.0,0.0,0.0,0.0,0.0,0.0,0.0,0.0,0.0,0.0,0.0,0.0,0.0,0.0,0.0,0.0,0.0,0.0,0.0,0.0,0.0,0.0,0.0,0.0,0.0,0.0,0.0,0.0,0.0,0.0,0.0,0.0,0.0,0.0,0.0,0.0,0.0,0.0,0.0,0.0,0.0,0.0,0.0,0.0,0.0,0.0,0.0,0.0,0.0,0.0,0.0,0.0,0.0,0.0,0.0,0.0,0.0,0.0,0.0,0.0,0.0,0.0,0.0,0.0,0.0,0.0,0.0,0.0,0.0,0.0,0.0,0.0,0.0,0.0,0.0,0.0,0.0,0.0,0.0,0.0,0.0,0.0,0.0,0.0,0.0,0.0,0.0,0.0,0.0,0.0,-4.5048,-4.4054,-4.3256,0.0,0.0,0.0,0.0,0.0,0.0,0.0,0.0,0.0,0.0,0.0,0.0,0.0,0.0,0.0,0.0,0.0,0.0,0.0,0.0,0.0,0.0,0.0,0.0,0.0,0.0,0.0,0.0,0.0,0.0,0.0,0.0,0.0,0.0,0.0,0.0,0.0,0.0,0.0,0.0,0.0,0.0,0.0,0.0,0.0,0.0,0.0,0.0,0.0,0.0,0.0,0.0,0.0,0.0,0.0,0.0,0.0,0.0,0.0,0.0,0.0,0.0,0.0,0.0,0.0,0.0,0.0,0.0,0.0,0.0,0.0,0.0,0.0,0.0,0.0,0.0,0.0,0.0,0.0,0.0,0.0,0.0,0.0,0.0,0.0,0.0,0.0,0.0,0.0,0.0,0.0,0.0,0.0,0.0,0.0,0.0,0.0,0.0,0.0,0.0,0.0,0.0,0.0,0.0,0.0,0.0,0.0,0.0,0.0,0.0,-4.448,-4.4331,-4.3387,-4.2384,-4.1348,0.0,0.0,0.0,0.0,0.0,0.0,0.0,0.0,0.0,0.0,0.0,0.0,0.0,0.0,0.0,0.0,0.0,0.0,0.0,0.0,0.0,0.0,0.0,0.0,0.0,0.0,0.0,0.0,0.0,0.0,0.0,0.0,0.0,0.0,0.0,0.0,0.0,0.0,0.0,0.0,0.0,0.0,0.0,0.0,0.0,0.0,0.0,0.0,0.0,0.0,0.0,0.0,0.0,0.0,0.0,0.0,0.0,0.0,0.0,0.0,0.0,0.0,0.0,0.0,0.0,0.0,0.0,0.0,0.0,0.0,0.0,0.0,0.0,0.0,0.0,0.0,0.0,0.0,0.0,0.0,0.0,0.0,0.0,0.0,0.0,0.0,0.0,0.0,0.0,0.0,0.0,0.0,0.0,0.0,0.0,0.0,0.0,0.0,0.0,0.0,0.0,0.0,0.0,0.0,0.0,0.0,0.0,0.0,0.0,0.0,-4.2036,0.0,0.0,0.0,-3.8918,0.0,0.0,0.0,0.0,0.0,0.0,0.0,0.0,0.0,0.0,0.0,0.0,0.0,0.0,0.0,0.0,0.0,0.0,0.0,0.0,0.0,0.0,0.0,0.0,0.0,0.0,0.0,0.0,0.0,0.0,0.0,0.0,0.0,0.0,0.0,0.0,0.0,0.0,0.0,0.0,0.0,0.0,0.0,0.0,0.0,0.0,0.0,0.0,0.0,0.0,0.0,0.0,0.0,0.0,0.0,0.0,0.0,0.0,0.0,0.0,0.0,0.0,0.0,0.0,0.0,0.0,0.0,0.0,0.0,0.0,0.0,0.0,0.0,0.0,0.0,0.0,0.0,0.0,0.0,0.0,0.0,0.0,0.0,0.0,0.0,0.0,0.0,0.0,0.0,0.0,0.0,0.0,0.0,0.0,0.0,0.0,0.0,0.0,0.0,0.0,0.0,0.0,0.0,0.0,0.0,0.0,0.0,0.0,0.0,0.0,0.0,0.0,0.0,0.0,0.0,0.0,0.0,0.0,0.0,0.0,0.0,0.0,0.0,0.0,0.0,0.0,0.0,0.0,0.0,0.0,0.0,0.0,0.0,0.0,0.0,0.0,0.0,0.0,0.0,0.0,0.0,0.0,0.0,0.0,0.0,0.0,0.0,0.0,0.0,0.0,0.0,0.0,0.0,0.0,0.0,0.0,0.0,0.0,0.0,0.0,0.0,0.0,0.0,0.0,0.0,0.0,0.0,0.0,0.0,0.0,0.0,0.0,0.0,0.0,0.0,0.0,0.0,0.0,0.0,0.0,0.0,0.0,0.0,0.0,0.0,0.0,0.0,0.0,0.0,0.0,0.0,0.0,0.0,0.0,0.0,0.0,0.0,0.0,0.0,0.0,0.0,0.0,0.0,0.0,0.0,0.0,0.0,0.0,0.0,0.0,0.0,0.0,0.0,0.0,0.0,0.0,0.0,0.0,0.0,0.0,0.0,0.0,0.0,0.0,0.0,0.0,0.0,0.0,0.0,0.0,0.0,0.0,0.0,0.0,0.0,0.0,0.0,0.0,0.0,0.0,0.0,0.0,0.0,0.0,0.0,0.0,0.0,0.0,0.0,0.0,0.0,0.0,0.0,0.0,0.0,0.0,0.0,0.0,0.0,0.0,0.0,0.0,0.0,0.0,0.0,0.0,0.0,0.0,0.0,0.0,0.0,0.0,0.0,0.0,0.0,0.0,0.0,0.0,0.0,0.0,0.0,0.0,0.0,0.0,0.0,0.0,0.0,0.0,0.0,0.0,0.0,0.0,0.0,0.0,0.0,0.0,0.0,0.0,0.0,0.0,0.0,0.0,0.0,0.0,0.0,0.0,0.0,0.0,0.0,0.0,0.0,0.0,0.0,0.0,0.0,0.0,0.0,0.0,0.0,0.0,0.0,0.0,0.0,0.0,0.0,0.0,0.0,0.0,0.0,0.0,0.0,0.0,0.0,0.0,0.0,0.0,0.0,0.0,0.0,0.0,0.0,0.0,0.0,0.0,0.0,0.0,0.0,0.0,0.0,0.0,0.0,0.0,0.0,0.0,0.0,0.0,0.0,0.0,0.0,0.0,0.0,0.0,0.0,0.0,0.0,0.0,0.0,0.0,0.0,0.0,0.0,0.0,0.0,0.0,0.0,0.0,0.0,0.0,0.0,0.0,0.0,0.0,0.0,0.0,0.0,0.0,0.0,0.0,0.0,0.0,0.0,0.0,0.0,0.0,0.0,0.0,0.0,0.0,0.0,0.0,0.0,0.0,0.0,0.0,0.0,0.0,0.0,0.0,0.0,0.0,0.0,0.0,0.0,0.0,0.0,0.0,0.0,0.0,0.0,0.0,0.0,0.0,0.0,0.0,0.0,0.0,0.0,0.0,0.0,0.0,0.0,0.0,0.0,0.0,0.0,0.0,0.0,0.0,0.0,0.0,0.0,0.0,0.0,0.0,0.0,0.0,0.0,0.0,0.0,0.0,0.0,0.0,0.0,0.0,0.0,0.0,0.0,0.0,0.0,0.0,0.0,0.0,0.0,0.0,0.0,0.0,0.0,0.0,0.0,0.0,0.0,0.0,0.0,0.0,0.0,0.0,0.0,0.0,0.0,0.0,0.0,0.0,0.0,0.0,0.0,0.0,0.0,0.0,0.0,0.0,0.0,0.0,0.0,0.0,0.0,0.0,0.0,0.0,0.0,0.0,0.0,0.0,0.0,0.0,0.0,0.0,0.0,0.0,0.0,0.0,0.0,0.0,0.0,0.0,0.0,0.0,0.0,0.0,0.0,0.0,0.0,0.0,0.0,0.0,0.0,0.0,0.0,0.0,0.0,0.0,0.0,0.0,0.0,0.0,0.0,0.0,0.0,0.0,0.0,0.0,0.0,0.0,0.0,0.0,0.0,0.0,0.0,0.0,0.0,0.0,0.0,0.0,0.0,0.0,0.0,0.0,0.0,0.0,0.0,0.0,0.0,0.0,0.0,0.0,0.0,0.0,0.0,0.0,0.0,0.0,0.0,0.0,0.0,0.0,0.0,0.0,0.0,0.0,0.0,0.0,0.0,0.0,0.0,0.0,0.0,0.0,0.0,0.0,0.0,0.0,0.0,0.0,0.0,0.0,0.0,0.0,0.0,0.0,0.0,0.0,0.0,0.0,0.0,0.0,0.0,0.0,0.0,0.0,0.0,0.0,0.0,0.0,0.0,0.0,0.0,0.0,0.0,0.0,0.0,0.0,0.0,0.0,0.0,0.0,0.0,0.0,0.0,0.0,0.0,0.0,0.0,0.0,0.0,0.0,0.0,0.0,0.0,0.0,0.0,0.0,0.0,0.0,0.0,0.0,0.0,0.0,0.0,0.0,0.0,0.0,0.0,0.0,0.0,0.0,0.0,0.0,0.0,0.0,0.0,0.0,0.0,0.0,0.0,0.0,0.0,0.0,0.0,0.0,0.0,0.0,0.0,0.0,0.0,0.0,0.0,0.0,0.0,0.0,0.0,0.0,0.0,0.0,0.0,0.0,0.0,0.0,0.0,0.0,0.0,0.0,0.0,0.0,0.0,0.0,0.0,0.0,0.0,0.0,0.0,0.0,0.0,0.0,0.0,0.0,0.0,0.0,0.0,0.0,0.0,0.0,0.0,0.0,0.0,0.0,0.0,0.0,0.0,0.0,0.0,0.0,0.0,0.0,0.0,0.0,0.0,0.0,0.0,0.0,0.0,0.0,0.0,0.0,0.0,0.0,0.0,0.0,0.0,0.0,0.0,0.0,0.0,0.0,0.0,0.0,0.0,0.0,0.0,0.0,0.0,0.0,0.0,0.0,0.0,0.0,0.0,0.0,0.0,0.0,0.0,0.0,0.0,0.0,0.0,0.0,0.0,0.0,0.0,0.0,0.0,0.0,0.0,0.0,0.0,0.0,0.0,0.0,0.0,0.0,0.0,0.0,0.0,0.0,0.0,0.0,0.0,0.0,0.0,0.0,0.0,0.0,0.0,0.0,0.0,0.0,0.0,0.0,0.0,0.0,0.0,0.0,0.0,0.0,0.0,0.0,0.0,0.0,0.0,0.0,0.0,0.0,0.0,0.0,0.0,0.0,0.0,0.0,0.0,0.0,0.0,0.0,0.0,0.0,0.0,0.0,0.0,0.0,0.0,0.0,0.0,0.0,0.0,0.0,0.0,0.0,0.0,0.0,0.0,0.0,0.0,0.0,0.0,0.0,0.0,0.0,0.0,0.0,0.0,0.0,0.0,0.0,0.0,0.0,0.0,0.0,0.0,0.0,0.0,0.0,0.0,0.0,0.0,0.0,0.0,0.0,0.0,0.0,0.0,0.0,0.0,0.0,0.0,0.0,0.0,0.0,0.0,0.0,0.0,0.0,0.0,0.0,0.0,0.0,0.0,0.0,0.0,0.0,0.0,0.0,0.0,0.0,0.0,0.0,0.0,0.0,0.0,0.0,0.0,0.0,0.0,0.0,0.0,0.0,0.0,0.0,0.0,0.0,0.0,0.0,0.0,0.0,0.0,0.0,0.0,0.0,0.0,0.0,0.0,0.0,0.0,0.0,0.0,0.0,0.0,0.0,0.0,0.0,0.0,0.0,0.0,0.0,0.0,0.0,0.0,0.0,0.0,0.0,0.0,0.0,0.0,0.0,0.0,0.0,0.0,0.0,0.0,0.0,0.0,0.0,0.0,0.0,0.0,0.0,0.0,0.0,0.0,0.0,0.0,0.0,0.0,0.0,0.0,0.0,0.0,0.0,0.0,0.0,0.0,0.0,0.0,0.0,0.0,0.0,0.0,0.0,0.0,0.0,0.0,0.0,0.0,0.0,0.0,0.0,0.0,0.0,0.0,0.0,0.0,0.0]}],[{"header":{"parameterUnit":"kt","parameterCategory":2,"dx":1,"dy":1,"la1":29.587661999999998,"la2":31.0,"lo1":-88.76705300000003,"lo2":-86.6583820000003,"nx":115,"ny":88,"refTime":"2022-11-02T06:00:00:Z","depth":0,"parameterNumber":2,"parameterNumberName":"V-component_of_WINDS"},"data":[10.2683,10.4064,10.4368,10.5469,10.6949,10.7443,10.824,10.9455,10.9797,11.0062,11.0062,11.0062,11.0062,11.0062,11.0062,11.0062,11.0062,11.0062,11.0062,11.0062,11.0062,11.0062,11.0062,11.0062,11.0062,11.0062,11.0062,11.0062,11.048,11.0328,11.0176,11.0366,11.1771,11.2112,11.2302,11.2758,11.3555,11.3479,11.3555,11.3935,11.3783,11.3517,11.3251,11.3441,11.4124,11.4124,11.4276,11.4428,11.458,11.4618,11.4542,11.4201,11.3781,11.3399,11.2942,11.2258,11.2065,11.1532,11.1224,11.0919,11.0954,11.08,11.0828,11.0701,11.0698,11.0652,11.0576,11.0383,11.0345,11.0189,11.0147,11.0071,11.0029,11.0029,11.0029,11.0029,11.0029,11.0033,11.0033,11.0033,11.0037,11.0189,11.0573,11.2015,11.4064,11.5202,11.7061,11.8617,11.9001,11.9472,11.9825,11.9781,11.9694,11.9376,11.9016,11.8978,11.8645,11.8614,11.8485,11.7921,11.7765,11.8112,11.7533,11.6579,11.6841,11.7308,11.7195,11.6463,11.6854,11.6796,11.7437,11.7795,11.7379,11.6924,11.6379,10.0419,10.0761,10.2165,10.3722,10.5355,10.6797,10.7557,10.805,10.9303,10.9986,10.9721,10.9757,11.0061,11.0062,11.0062,11.0062,11.0062,11.0062,11.0062,11.0062,11.0062,11.0062,11.0062,11.0062,11.0062,11.0062,11.0062,11.0062,11.0062,11.0062,11.0062,11.0062,11.0214,11.0404,11.0404,11.0708,11.1163,11.1353,11.1581,11.1847,11.1657,11.1352,11.1009,11.0705,11.0667,11.0629,11.1196,11.184,11.2751,11.2865,11.2827,11.2294,11.176,11.1454,11.0883,11.0919,11.0765,11.0497,11.0115,11.0033,11.0028,11.0059,11.0083,11.0113,11.0189,11.0185,11.0185,11.0109,11.0109,11.0071,11.0071,11.0029,11.0029,11.0029,11.0029,11.0029,11.0029,11.0029,11.0029,11.0033,11.0033,11.0033,11.0678,11.1551,11.2689,11.3414,11.4818,11.6521,11.7944,11.8493,11.8502,11.8307,11.7943,11.8346,11.8648,11.8265,11.7686,11.7509,11.6922,11.6775,11.6608,11.6293,11.5812,11.4993,11.4582,11.4748,11.4689,11.5085,11.4497,11.4192,11.4796,11.5325,11.5192,11.5304,11.4737,9.9888,10.0001,10.0723,10.2013,10.3493,10.4367,10.5238,10.63,10.7894,10.8122,10.7324,10.7287,10.7782,10.8581,10.862,10.8847,10.9948,10.9986,10.9948,11.0024,11.0062,11.0062,11.0062,11.0062,11.0062,11.0062,11.0062,11.0062,11.0062,11.0061,11.0061,11.0062,11.0062,11.0138,11.01,11.01,11.0214,11.0057,11.0214,11.0556,11.0822,11.0586,11.0129,11.0051,11.0089,11.0127,11.0391,11.0581,11.115,11.1188,11.1262,11.0537,11.0345,11.0039,11.0033,11.0033,11.0028,11.0059,11.0056,11.0053,11.0045,11.0045,11.0033,11.0033,11.0029,11.0029,11.0029,11.0029,11.0029,11.0029,11.0029,11.0029,11.0029,11.0029,11.0029,11.0029,11.0029,11.0029,11.0029,11.0029,11.0029,11.0067,11.0319,11.1191,11.1907,11.2666,11.3861,11.5661,11.6822,11.7616,11.6909,11.6356,11.5515,11.5628,11.6506,11.6569,11.6434,11.5884,11.516,11.5089,11.503,11.4634,11.4298,11.4005,11.3615,11.3032,11.3107,11.378,11.3438,11.2615,11.2765,11.2952,11.3438,11.3721,11.2525,9.9888,9.9888,9.9888,10.0608,10.1821,10.2238,10.3221,10.4467,10.5754,10.5562,10.4653,10.4926,10.5804,10.683,10.6873,10.7784,10.8923,10.9075,10.9607,10.991,11.0024,11.0062,11.0062,11.0062,11.0062,11.0061,11.0061,11.0062,11.0059,11.0056,11.0053,11.006,11.0056,11.0051,11.0056,11.0056,11.0054,11.005,11.0051,11.0161,11.0309,11.0117,11.0041,11.0041,11.0041,11.0041,11.0077,11.0115,11.0074,11.0039,11.0039,11.0036,11.0036,11.0063,11.0056,11.0053,11.0045,11.0041,11.0037,11.0037,11.0037,11.0033,11.0033,11.0029,11.0029,11.0029,11.0029,11.0029,11.0029,11.0029,11.0029,11.0029,11.0029,11.0029,11.0029,11.0029,11.0029,11.0029,11.0029,11.0029,11.0029,11.0053,11.0109,11.063,11.135,11.2166,11.3089,11.4048,11.5036,11.5111,11.4254,11.4347,11.3441,11.3487,11.3919,11.4368,11.4972,11.4625,11.4042,11.3721,11.3475,11.2914,11.2353,11.2428,11.2279,11.1478,11.1253,11.2054,11.2092,11.1494,11.1307,11.0933,11.1269,11.1568,11.0185,9.9888,9.9888,9.9888,10.0039,10.0339,10.1738,10.2418,10.2681,10.2887,10.2804,10.2968,10.4186,10.4801,10.5077,10.5192,10.6143,10.7283,10.8042,10.8688,10.991,10.9899,11.0053,11.0051,11.0048,11.0053,11.005,11.005,11.0053,11.005,11.0043,11.0041,11.0048,11.0043,11.0043,11.0046,11.0046,11.0043,11.0039,11.0033,11.0031,11.0028,11.0063,11.0063,11.0063,11.0063,11.0063,11.0059,11.0053,11.0045,11.0053,11.0053,11.0041,11.0041,11.0037,11.0037,11.0033,11.0033,11.0029,11.0029,11.0029,11.0029,11.0029,11.0029,11.0029,11.0029,11.0029,11.0029,11.0029,11.0029,11.0029,11.0029,11.0029,11.0029,11.0029,10.9982,10.993,10.993,10.9925,10.9973,11.0025,10.9973,10.9747,10.9758,10.9743,11.0446,11.0097,11.0779,11.1787,11.2236,11.192,11.1971,11.2543,11.2471,11.277,11.2615,11.2092,11.2989,11.3438,11.3101,11.269,11.1867,11.112,11.0468,11.026,11.011,10.9512,10.9437,10.9512,10.9736,10.9699,10.9699,10.9101,10.8876,10.9101,10.854,9.9888,9.9888,9.9887,9.9886,10.0035,10.063,10.0922,10.091,10.0897,10.0931,10.1017,10.171,10.2478,10.332,10.3514,10.4352,10.5984,10.6743,10.7616,10.8715,10.9516,10.974,11.0005,11.0046,11.0043,11.0046,11.0046,11.0039,11.0033,11.0028,11.0033,11.0041,11.0063,11.0028,11.0031,11.0033,11.0031,11.0059,11.0053,11.0045,11.0045,11.0045,11.0045,11.0045,11.0045,11.0045,11.0045,11.0041,11.0037,11.0041,11.0041,11.0029,11.0029,11.0029,11.0029,11.0025,11.0029,11.0029,10.9982,11.0025,11.0029,11.0029,11.0029,11.0025,10.9982,10.9925,10.9968,10.9968,10.9977,11.0025,11.0025,11.0029,11.0025,11.0025,10.9925,10.9778,10.9778,10.981,10.9865,10.993,10.9766,10.9508,10.9335,10.9238,10.9204,10.9206,10.9691,11.0349,11.0249,10.9551,10.9636,10.9774,11.0484,11.1344,11.011,10.9213,11.0035,11.0596,11.0708,11.0596,11.0148,10.9549,10.9421,10.8839,10.8241,10.8428,10.8802,10.8353,10.8241,10.8465,10.8652,10.854,10.8465,10.8241,10.8241,9.9888,9.9888,9.9885,9.9882,9.9918,9.9899,9.9917,9.9903,9.9903,9.9903,9.9903,9.9917,10.0796,10.1634,10.1757,10.2784,10.4153,10.5408,10.6167,10.7265,10.8323,10.9009,10.9464,10.9727,11.0033,11.0033,11.0031,11.0063,11.0053,11.0045,11.0053,11.0031,11.0049,11.0045,11.0049,11.0053,11.0045,11.0037,11.0037,11.0033,11.0033,11.0033,11.0033,11.0033,11.0033,11.0033,11.0033,11.0033,11.0033,10.9982,10.993,10.9871,10.9839,10.9839,10.9839,10.9876,10.994,10.994,10.9887,10.9977,11.0029,11.0029,10.9804,10.9804,10.9747,10.9675,10.9668,10.9607,10.9599,10.9546,10.9537,10.9607,10.9622,10.9607,10.9537,10.9508,10.9599,10.9569,10.9448,10.9521,10.9466,10.9244,10.9044,10.8913,10.8871,10.8791,10.8815,10.8981,10.867,10.7355,10.6915,10.6446,10.7044,10.8315,10.7456,10.7082,10.753,10.7979,10.8016,10.8016,10.8465,10.8839,10.8428,10.8241,10.8241,10.8241,10.8241,10.8241,10.8241,10.8241,10.7979,10.8129,10.8241,10.8241,10.8241,9.9887,9.9887,9.9918,9.9912,9.9906,9.9882,9.9903,9.9903,9.9903,9.9903,9.9903,9.9903,10.0096,10.0096,10.0096,10.1048,10.2494,10.2873,10.3898,10.5222,10.6785,10.7503,10.8224,10.9097,10.9666,10.9928,11.0041,11.0045,11.0033,11.0033,11.0033,11.0037,11.0033,11.0037,11.0033,11.0037,11.0037,11.0033,11.0029,10.9982,10.9925,10.9935,10.992,10.9865,10.9914,10.992,10.9871,10.992,10.993,10.9816,10.9651,10.9531,10.9462,10.947,10.9462,10.9577,10.9816,10.9665,10.9584,10.976,10.9865,10.9791,10.9439,10.92,10.914,10.9244,10.9303,10.9255,10.9265,10.9212,10.914,10.9233,10.9286,10.9255,10.9185,10.9227,10.9354,10.9296,10.9178,10.9155,10.9105,10.8978,10.875,10.8636,10.8602,10.8255,10.7713,10.7618,10.6513,10.5195,10.4784,10.424,10.4539,10.5549,10.5773,10.5661,10.6184,10.7418,10.7007,10.7007,10.7755,10.8315,10.8241,10.8241,10.8241,10.8241,10.8241,10.8241,10.8203,10.7792,10.7418,10.7306,10.6633,10.7007,10.7044,9.9887,9.9885,9.9915,9.9906,9.9897,9.9913,9.9903,9.9903,9.9903,9.9903,9.9903,9.9903,9.9903,9.9903,9.9903,10.0472,10.0813,10.18,10.3128,10.3431,10.5063,10.6201,10.715,10.814,10.9009,10.9881,11.0033,11.0029,11.0029,11.0029,11.0029,11.0029,11.0029,11.0029,11.0029,11.0029,11.0029,11.0029,10.9977,10.9882,10.9722,10.9644,10.9607,10.9529,10.9546,10.9577,10.9483,10.9483,10.9531,10.9373,10.9255,10.9185,10.9174,10.9174,10.9212,10.9212,10.9334,10.9276,10.9244,10.9401,10.9392,10.9439,10.9249,10.9057,10.9044,10.898,10.8993,10.9006,10.9069,10.9057,10.9057,10.9081,10.9093,10.9094,10.9019,10.898,10.9032,10.8926,10.8821,10.8978,10.8964,10.8686,10.8482,10.8388,10.7919,10.7203,10.6446,10.5419,10.4335,10.3904,10.3567,10.2931,10.2931,10.3305,10.3492,10.3679,10.4801,10.6483,10.6783,10.6745,10.7381,10.7642,10.8016,10.8241,10.8203,10.8203,10.8241,10.8054,10.7792,10.7418,10.6442,10.5525,10.5175,10.4876,10.4651,9.9885,9.9884,9.9906,9.9894,9.9885,9.9906,9.9903,9.9903,9.9903,9.9903,9.9903,9.9903,9.9903,9.9903,9.9903,9.9941,10.013,10.1344,10.1572,10.18,10.3355,10.4759,10.5898,10.677,10.8098,10.9047,10.9915,11.0029,11.0029,11.0029,11.0029,11.0029,11.0029,11.0029,11.0029,11.0029,11.0029,10.9991,10.9876,10.9716,10.9508,10.9354,10.9265,10.9093,10.9255,10.9265,10.9128,10.9255,10.9265,10.9128,10.8978,10.8899,10.8899,10.8899,10.8936,10.8936,10.8936,10.8926,10.9057,10.8865,10.8806,10.8791,10.8729,10.875,10.8775,10.8775,10.8791,10.8782,10.8697,10.8735,10.8806,10.8791,10.8894,10.8836,10.876,10.8729,10.8744,10.8619,10.8588,10.8718,10.8702,10.8464,10.8084,10.7839,10.6679,10.5756,10.4203,10.3044,10.252,10.2296,10.1885,10.1286,10.1099,10.1137,10.1099,10.1174,10.2034,10.3978,10.5025,10.5399,10.6184,10.6745,10.6969,10.7007,10.7568,10.8016,10.7044,10.6371,10.6708,10.599,10.3937,10.2626,10.295,10.3009,10.2605,9.9917,9.9882,9.9888,9.9906,9.9906,9.9903,9.9903,9.9903,9.9903,9.9903,9.9903,9.9903,9.9903,9.9903,9.9903,9.9903,10.0016,10.0054,10.0206,10.0548,10.18,10.2373,10.3701,10.537,10.6888,10.7757,10.8781,10.9654,11.0029,11.0029,11.0029,11.0029,11.0029,11.0029,11.0029,11.0029,11.0029,10.9982,10.9651,10.9516,10.9345,10.9178,10.9019,10.8926,10.9031,10.9031,10.8899,10.898,10.8967,10.8856,10.8697,10.8653,10.8636,10.8636,10.8674,10.8674,10.8636,10.8744,10.8964,10.8555,10.8424,10.8368,10.8426,10.8406,10.8363,10.8323,10.8385,10.8482,10.8387,10.8383,10.8323,10.8306,10.8482,10.8537,10.8445,10.8406,10.85,10.8501,10.8406,10.8482,10.8366,10.8037,10.7568,10.682,10.5362,10.3717,10.194,10.1043,10.0763,10.0352,9.9828,9.9454,9.9529,9.9753,10.0053,9.9417,9.9641,10.1548,10.2707,10.2819,10.3418,10.3941,10.4689,10.5586,10.5511,10.4988,10.4689,10.4464,10.3669,10.2856,10.1006,10.0122,10.0939,10.1177,10.0634,9.9915,9.9904,9.9891,9.9917,9.9903,9.9903,9.9903,9.9903,9.9903,9.9903,9.9903,9.9903,9.9903,9.9903,9.9903,9.9903,9.9903,9.9903,9.9903,10.013,10.0586,10.1344,10.2411,10.3777,10.537,10.7305,10.8212,10.9009,10.9768,10.9991,10.9915,10.9881,11.0029,10.9995,10.9995,11.0029,11.0029,10.9935,10.9651,10.9381,10.9128,10.8922,10.875,10.8571,10.8718,10.8718,10.8657,10.8702,10.8702,10.8571,10.8463,10.8387,10.8368,10.8405,10.8405,10.8385,10.8405,10.8406,10.8445,10.8326,10.8282,10.8241,10.8241,10.8241,10.8261,10.8261,10.8241,10.8241,10.8241,10.8261,10.8282,10.8054,10.8084,10.7581,10.7534,10.7401,10.756,10.7487,10.7612,10.7605,10.7156,10.6558,10.6035,10.5399,10.3791,10.1997,10.0539,9.9753,9.9529,9.9193,9.852,9.852,9.8333,9.8669,9.9118,9.837,9.7996,9.9641,9.9679,9.9903,10.0015,10.0127,10.0707,10.2072,10.2445,10.1959,10.166,10.1473,10.0679,9.9745,9.8523,9.7279,9.7894,9.7636,9.7513,9.991,9.9894,9.9885,9.9913,9.9903,9.9903,9.9903,9.9903,9.9903,9.9903,9.9903,9.9903,9.9903,9.9903,9.9903,9.9903,9.9903,9.9903,9.9903,9.9903,9.9941,10.0548,10.1306,10.2369,10.3431,10.5105,10.6315,10.7377,10.8857,10.8857,10.9047,10.9047,10.8895,10.9312,10.9881,11.0029,10.993,10.9766,10.9436,10.9151,10.8885,10.8657,10.8426,10.8261,10.8445,10.8387,10.8343,10.8482,10.8405,10.8343,10.8282,10.8282,10.8303,10.8282,10.8282,10.8282,10.8282,10.8303,10.8303,10.8282,10.8241,10.8241,10.8241,10.8241,10.8241,10.8241,10.8241,10.8203,10.8241,10.7755,10.7568,10.7306,10.7082,10.6596,10.6259,10.6072,10.5963,10.5759,10.5736,10.5549,10.5212,10.4988,10.4464,10.3866,10.2109,10.0352,9.9342,9.8557,9.8707,9.8557,9.852,9.852,9.7604,9.7622,9.7398,9.6987,9.6501,9.6575,9.6538,9.6688,9.68,9.6874,9.7454,9.8632,9.9417,9.9716,9.9604,9.8819,9.814,9.7553,9.642,9.5082,9.4206,9.3724,9.4266,9.9904,9.9891,9.991,9.9903,9.9903,9.9903,9.9903,9.9903,9.9903,9.9903,9.9903,9.9903,9.9903,9.9903,9.9903,9.9903,9.9903,9.9903,9.9903,9.9903,9.9903,10.0054,10.0472,10.1382,10.2373,10.3094,10.4114,10.5708,10.6922,10.7074,10.7036,10.7381,10.7795,10.8591,10.9236,10.9801,10.9882,10.9651,10.9276,10.8967,10.8718,10.8482,10.8303,10.8261,10.8261,10.8241,10.8241,10.8303,10.8261,10.8261,10.8241,10.8241,10.8241,10.8241,10.8241,10.8241,10.8241,10.8241,10.8241,10.8241,10.8203,10.8129,10.7942,10.7642,10.7119,10.7605,10.7792,10.7343,10.6969,10.6708,10.6147,10.5661,10.5175,10.4838,10.4689,10.4651,10.4614,10.4352,10.4016,10.3567,10.3343,10.3268,10.2857,10.2184,10.0651,9.8781,9.766,9.7585,9.7734,9.8295,9.8333,9.8165,9.7117,9.6201,9.5902,9.5229,9.4706,9.4482,9.422,9.407,9.3958,9.422,9.4631,9.5491,9.5678,9.7174,9.7921,9.6533,9.5531,9.5171,9.455,9.3455,9.2542,9.2514,9.2867,9.9899,9.991,9.9903,9.9903,9.9903,9.9903,9.9903,9.9903,9.9903,9.9903,9.9903,9.9903,9.9903,9.9903,9.9903,9.9903,9.9903,9.9903,9.9903,9.9903,9.9903,9.9903,10.0092,10.0282,10.1269,10.2524,10.29,10.3887,10.4683,10.4645,10.457,10.5632,10.6467,10.7529,10.8326,10.9118,10.975,10.957,10.92,10.8936,10.8674,10.8405,10.8303,10.8241,10.8241,10.8241,10.8241,10.8241,10.8241,10.8241,10.8241,10.8241,10.8241,10.8241,10.8241,10.8241,10.8016,10.8054,10.8054,10.7792,10.753,10.6969,10.6483,10.6072,10.5212,10.4614,10.4651,10.5025,10.4988,10.4689,10.4128,10.4053,10.353,10.3268,10.3006,10.3305,10.3418,10.3193,10.2894,10.2333,10.1885,10.1715,10.0576,10.0165,9.9006,9.7174,9.665,9.6613,9.7136,9.7847,9.8034,9.8165,9.6856,9.5416,9.508,9.4369,9.3098,9.2445,9.2089,9.1864,9.1752,9.1902,9.2201,9.1603,9.1191,9.254,9.4085,9.3455,9.2834,9.3126,9.3119,9.1918,9.1734,9.2028,9.2464,9.9891,9.9903,9.9903,9.9903,9.9903,9.9903,9.9903,9.9903,9.9903,9.9903,9.9903,9.9903,9.9903,9.9903,9.9903,9.9903,9.9903,9.9903,9.9903,9.9903,9.9903,9.9903,9.9903,9.9978,10.0206,10.1155,10.1458,10.2217,10.2141,10.1951,10.2221,10.3773,10.4759,10.5674,10.6467,10.806,10.8683,10.8817,10.8945,10.8842,10.8573,10.8346,10.8241,10.8241,10.8241,10.8241,10.8241,10.8241,10.8241,10.8241,10.8241,10.8241,10.8241,10.8241,10.8241,10.8203,10.768,10.7269,10.7156,10.6446,10.5698,10.5025,10.4764,10.439,10.3754,10.353,10.353,10.3343,10.338,10.3044,10.2575,10.2351,10.1997,10.1436,10.08,10.095,10.095,10.1286,10.1399,10.095,10.0389,9.8669,9.7248,9.6837,9.6015,9.5229,9.5454,9.5753,9.6501,9.7174,9.751,9.7641,9.6164,9.4444,9.3883,9.3061,9.1453,9.0743,9.0369,9.0257,8.992,8.9771,8.9937,8.9638,8.9665,8.9611,8.9465,9.0359,9.1762,9.1849,9.1675,9.2001,9.2308,9.2359,9.1612,9.9882,9.9903,9.9903,9.9903,9.9903,9.9903,9.9903,9.9903,9.9903,9.9903,9.9903,9.9903,9.9903,9.9903,9.9903,9.9903,9.9903,9.9903,9.9903,9.9903,9.9903,9.9903,9.9903,9.9903,10.0092,10.0206,10.013,9.9903,10.032,10.0358,10.0889,10.1993,10.2714,10.3207,10.4759,10.6353,10.7021,10.7105,10.8077,10.8444,10.8088,10.8153,10.8261,10.8241,10.8241,10.8241,10.8241,10.8241,10.8241,10.8241,10.8241,10.8241,10.8241,10.8241,10.8203,10.7605,10.667,10.5661,10.5399,10.4651,10.3791,10.3305,10.3156,10.2986,10.2408,10.2296,10.2296,10.2819,10.2632,10.1922,10.0912,10.0631,9.994,9.9454,9.9267,9.9118,9.8838,9.9623,9.8931,9.8445,9.7772,9.6015,9.4706,9.3996,9.3435,9.3921,9.4444,9.5117,9.5753,9.6351,9.6725,9.6127,9.4893,9.3061,9.2126,9.0817,8.9696,8.9189,8.904,8.9003,8.904,8.9115,8.8816,8.8791,8.9443,8.9526,8.8819,8.9136,9.0596,9.0848,9.0342,9.1127,9.2287,9.1644,9.0536,9.9906,9.9903,9.9903,9.9903,9.9903,9.9903,9.9903,9.9903,9.9903,9.9903,9.9903,9.9903,9.9903,9.9903,9.9903,9.9903,9.9903,9.9903,9.9903,9.9903,9.9903,9.9903,9.9903,9.9903,9.9903,9.9903,9.9903,9.9903,9.9903,9.9903,10.0092,10.0775,10.1955,10.2752,10.3162,10.4599,10.5076,10.559,10.6441,10.7,10.7082,10.7693,10.8241,10.8241,10.8241,10.8166,10.8091,10.8166,10.8241,10.8241,10.8241,10.8241,10.8241,10.8241,10.768,10.6409,10.4838,10.4091,10.3829,10.3305,10.2445,10.1529,10.1416,10.0726,10.0165,10.0053,9.9847,9.9529,9.9679,9.9529,9.9155,9.9006,9.8744,9.8314,9.822,9.8389,9.7903,9.7304,9.665,9.5828,9.5042,9.4182,9.3397,9.2724,9.2089,9.2425,9.2986,9.3734,9.4145,9.4893,9.5304,9.4631,9.3547,9.1715,9.0314,8.9155,8.8856,8.8577,8.8523,8.8523,8.854,8.8505,8.8194,8.7955,8.8497,8.8402,8.8007,8.7943,8.8943,8.9417,8.8975,8.9158,8.9999,8.9862,8.9472,9.9903,9.9903,9.9903,9.9903,9.9903,9.9903,9.9903,9.9903,9.9903,9.9903,9.9903,9.9903,9.9903,9.9903,9.9903,9.9903,9.9903,9.9903,9.9903,9.9903,9.9903,9.9903,9.9903,9.9903,9.9903,9.9903,9.9903,9.9903,9.9903,9.9903,9.9941,10.0168,10.0699,10.1231,10.1568,10.2784,10.328,10.3517,10.4489,10.5176,10.4995,10.5426,10.581,10.6147,10.6558,10.7082,10.7269,10.768,10.8241,10.8203,10.8203,10.8241,10.7755,10.6932,10.5511,10.4614,10.3136,10.2201,10.2184,10.1361,10.0875,9.9866,9.9753,9.9267,9.8781,9.8482,9.8707,9.8632,9.852,9.8258,9.7398,9.7361,9.6874,9.6351,9.6015,9.594,9.5865,9.5267,9.4444,9.3547,9.2537,9.179,9.1453,9.1341,9.078,9.0967,9.1565,9.2014,9.2388,9.3098,9.3846,9.3136,9.2276,9.067,8.9439,8.8841,8.8562,8.8435,8.8379,8.8379,8.8343,8.808,8.7723,8.7248,8.6731,8.662,8.6561,8.715,8.7534,8.7909,8.8493,8.8933,8.8691,8.8409,8.8481,9.9903,9.9903,9.9903,9.9903,9.9903,9.9903,9.9903,9.9903,9.9903,9.9903,9.9903,9.9903,9.9903,9.9903,9.9903,9.9903,9.9903,9.9903,9.9903,9.9903,9.9903,9.9903,9.9903,9.9903,9.9903,9.9903,9.9903,9.9903,9.9903,9.9903,9.9903,9.9903,10.0054,10.0054,10.0447,10.0934,10.1519,10.1538,10.2657,10.3238,10.3236,10.3587,10.3904,10.4053,10.495,10.5437,10.581,10.6708,10.7456,10.7456,10.7456,10.7343,10.6633,10.4502,10.3305,10.267,10.1473,10.0519,10.0426,9.9417,9.8744,9.852,9.8669,9.8613,9.8501,9.8277,9.7847,9.7809,9.7585,9.7024,9.5753,9.5603,9.4855,9.4145,9.3865,9.3865,9.3696,9.3023,9.2051,9.1266,8.9995,8.904,8.9489,8.9601,8.9526,8.9883,9.0817,9.1565,9.1679,9.2035,9.2409,9.1736,9.0932,8.9758,8.8733,8.8546,8.838,8.8288,8.8138,8.8138,8.7924,8.7618,8.7108,8.6487,8.5951,8.5676,8.6086,8.6805,8.722,8.7609,8.8409,8.9243,8.8243,8.7278,8.7385,9.9903,9.9903,9.9903,9.9903,9.9903,9.9903,9.9903,9.9903,9.9903,9.9903,9.9903,9.9903,9.9903,9.9903,9.9903,9.9903,9.9903,9.9903,9.9903,9.9903,9.9903,9.9903,9.9903,9.9903,9.9903,9.9903,9.9903,9.9903,9.9903,9.9903,9.9903,9.9903,9.9903,9.9895,9.984,9.998,9.998,9.9973,10.1013,10.1505,10.1456,10.2445,10.2969,10.3044,10.3604,10.3791,10.3904,10.4277,10.4352,10.4165,10.4165,10.4128,10.3717,10.2314,10.1267,10.1192,9.994,9.923,9.908,9.8781,9.852,9.852,9.852,9.852,9.8202,9.7529,9.6874,9.6239,9.5454,9.4482,9.3996,9.3883,9.3734,9.336,9.3342,9.3491,9.3023,9.0967,8.992,8.9135,8.8839,8.856,8.8577,8.8577,8.8612,8.8928,9.0294,9.1211,9.114,9.1234,9.1066,9.0563,8.9742,8.8661,8.8511,8.8344,8.8232,8.808,8.7823,8.7681,8.7472,8.6952,8.6318,8.5692,8.5375,8.5262,8.5471,8.6023,8.6665,8.7305,8.7703,8.7674,8.7072,8.6289,8.5724,9.9903,9.9903,9.9903,9.9903,9.9903,9.9903,9.9903,9.9903,9.9903,9.9903,9.9903,9.9903,9.9903,9.9903,9.9903,9.9903,9.9903,9.9903,9.9903,9.9903,9.9903,9.9903,9.9903,9.9903,9.9903,9.9903,9.9903,9.9903,9.9903,9.9903,9.9899,9.9903,9.9903,9.9835,9.9701,9.9475,9.9234,9.9256,9.9611,9.9807,9.9679,10.0464,10.0838,10.0875,10.166,10.2052,10.2201,10.2857,10.3305,10.3006,10.181,10.0838,10.0613,10.009,9.9679,9.9604,9.8819,9.8594,9.852,9.852,9.852,9.852,9.852,9.852,9.8202,9.7043,9.6164,9.5678,9.4482,9.3061,9.2388,9.2276,9.164,9.1266,9.0892,9.0892,9.0631,8.9586,8.8505,8.8452,8.849,8.849,8.8435,8.8379,8.8397,8.8452,8.9796,8.9816,8.9817,8.9873,8.9723,8.9555,8.8679,8.8288,8.825,8.8137,8.7982,8.766,8.7376,8.7132,8.6781,8.6156,8.5538,8.5247,8.4941,8.4785,8.4889,8.5178,8.5715,8.5998,8.6034,8.5932,8.551,8.4731,8.4097,9.9903,9.9903,9.9903,9.9903,9.9903,9.9903,9.9903,9.9903,9.9903,9.9903,9.9903,9.9903,9.9903,9.9903,9.9903,9.9903,9.9903,9.9903,9.9903,9.9903,9.9903,9.9903,9.9903,9.9903,9.9903,9.9903,9.9903,9.9903,9.9891,9.9844,9.9835,9.9783,9.9707,9.967,9.9466,9.9234,9.903,9.8931,9.8739,9.8707,9.8707,9.8819,9.8875,9.8912,9.9828,10.0332,10.0726,10.1698,10.2333,10.181,10.0127,9.8931,9.8893,9.8744,9.8707,9.8688,9.8557,9.852,9.852,9.852,9.852,9.8464,9.8165,9.8015,9.794,9.6052,9.4968,9.4706,9.3472,9.1752,9.0817,9.0631,9.0107,8.9359,8.9003,8.8873,8.8635,8.849,8.838,8.8288,8.8288,8.827,8.827,8.8288,8.8288,8.827,8.8381,8.8325,8.8418,8.853,8.8604,8.8732,8.8172,8.8056,8.7921,8.7697,8.7443,8.7085,8.6743,8.646,8.5886,8.5308,8.506,8.4775,8.4445,8.455,8.4652,8.4869,8.4831,8.4583,8.4443,8.4264,8.3946,8.3141,8.2507,9.9903,9.9903,9.9903,9.9903,9.9903,9.9903,9.9903,9.9903,9.9903,9.9903,9.9903,9.9903,9.9903,9.9903,9.9903,9.9903,9.9903,9.9903,9.9903,9.9903,9.9903,9.9903,9.9903,9.9903,9.9903,9.9903,9.9903,9.9899,9.9835,9.9683,9.9605,9.9531,9.9366,9.9228,9.9189,9.9068,9.8975,9.8876,9.8666,9.8538,9.852,9.852,9.852,9.8576,9.9006,9.9043,9.908,9.9155,9.9342,9.9155,9.88,9.8576,9.852,9.852,9.852,9.852,9.852,9.852,9.852,9.8426,9.8426,9.809,9.7043,9.6314,9.579,9.3846,9.2238,9.2313,9.0144,8.9601,8.9152,8.9023,8.8836,8.8744,8.8612,8.8543,8.8343,8.8288,8.827,8.827,8.8251,8.827,8.827,8.827,8.8251,8.8212,8.8194,8.8212,8.8211,8.8056,8.7938,8.7934,8.7835,8.7793,8.7502,8.7239,8.6892,8.6616,8.631,8.5873,8.5283,8.4905,8.4683,8.4302,8.391,8.391,8.3874,8.391,8.4193,8.3839,8.2911,8.259,8.2491,8.1944,8.1668,9.9903,9.9903,9.9903,9.9903,9.9903,9.9903,9.9903,9.9903,9.9903,9.9903,9.9903,9.9903,9.9903,9.9903,9.9903,9.9903,9.9903,9.9903,9.9903,9.9903,9.9903,9.9903,9.9903,9.9903,9.9903,9.9903,9.9903,9.9835,9.9657,9.9605,9.9466,9.9289,9.9196,9.9069,9.9041,9.8975,9.8854,9.8716,9.8612,9.852,9.852,9.852,9.852,9.852,9.852,9.852,9.852,9.852,9.852,9.852,9.852,9.852,9.852,9.852,9.852,9.852,9.852,9.852,9.8426,9.7604,9.7174,9.68,9.5528,9.4706,9.4108,9.2612,9.1174,9.1004,8.9546,8.8816,8.8612,8.8577,8.8488,8.8452,8.8435,8.8362,8.8269,8.825,8.823,8.8135,8.8115,8.8115,8.8115,8.8115,8.8115,8.8172,8.8135,8.8076,8.8053,8.7713,8.748,8.7322,8.7192,8.7002,8.6743,8.6667,8.6408,8.6301,8.6007,8.5466,8.5005,8.4683,8.4017,8.3303,8.3232,8.2911,8.1983,8.1484,8.2061,8.2137,8.1416,8.1033,8.1344,8.1175,8.1008,9.9903,9.9903,9.9903,9.9903,9.9903,9.9903,9.9903,9.9903,9.9903,9.9903,9.9903,9.9903,9.9903,9.9903,9.9903,9.9903,9.9903,9.9903,9.9903,9.9903,9.9903,9.9903,9.9903,9.9844,9.9773,9.9695,9.9639,9.9581,9.9428,9.9384,9.9282,9.9095,9.8992,9.8915,9.8876,9.8828,9.8716,9.8576,9.8538,9.852,9.852,9.852,9.852,9.852,9.852,9.852,9.852,9.852,9.852,9.852,9.852,9.852,9.852,9.852,9.852,9.8426,9.8165,9.7865,9.751,9.6314,9.5454,9.5229,9.3846,9.2911,9.2874,9.1416,9.0631,9.0294,8.9471,8.8629,8.8612,8.8543,8.8435,8.8307,8.8307,8.8231,8.8209,8.8227,8.815,8.807,8.8033,8.8033,8.8033,8.8033,8.8033,8.8012,8.7893,8.7729,8.7583,8.7285,8.6953,8.6743,8.6565,8.6301,8.6119,8.6091,8.6035,8.5922,8.54,8.4717,8.4102,8.3767,8.3018,8.2091,8.1773,8.1526,8.0524,7.9408,7.9589,8.0097,7.9253,7.8388,7.9027,7.8983,7.8547,9.9903,9.9903,9.9903,9.9903,9.9903,9.9903,9.9903,9.9903,9.9903,9.9903,9.9903,9.9903,9.9903,9.9903,9.9903,9.9903,9.9903,9.9903,9.9903,9.9903,9.9891,9.9853,9.9835,9.9639,9.9437,9.9269,9.9239,9.9207,9.9201,9.9094,9.896,9.8931,9.8729,9.8594,9.8631,9.8576,9.8594,9.8538,9.852,9.852,9.852,9.8501,9.8464,9.852,9.8426,9.8426,9.8501,9.852,9.852,9.852,9.852,9.852,9.852,9.852,9.8352,9.8258,9.7005,9.6314,9.5828,9.4594,9.3659,9.3547,9.2238,9.1286,9.1154,8.9958,8.9098,8.904,8.8816,8.8629,8.8612,8.8505,8.8452,8.8417,8.8288,8.819,8.8053,8.807,8.807,8.807,8.8012,8.8012,8.8012,8.7992,8.7971,8.7909,8.7458,8.7216,8.7013,8.6743,8.6434,8.6283,8.6174,8.5865,8.5521,8.5491,8.54,8.5067,8.4251,8.3393,8.262,8.2376,8.1841,8.0845,8.0136,7.9926,7.9334,7.8239,7.7862,7.7616,7.6815,7.5833,7.5367,7.4965,7.4703,9.9903,9.9903,9.9903,9.9903,9.9903,9.9903,9.9903,9.9903,9.9903,9.9903,9.9903,9.9903,9.9903,9.9903,9.9903,9.9903,9.9903,9.9903,9.9903,9.9895,9.9767,9.9651,9.9632,9.9411,9.9218,9.9114,9.914,9.9069,9.9014,9.8938,9.886,9.8698,9.8613,9.852,9.852,9.852,9.852,9.852,9.852,9.852,9.8352,9.7529,9.7491,9.8239,9.7529,9.7566,9.8501,9.852,9.852,9.852,9.852,9.852,9.8426,9.751,9.6949,9.6613,9.5491,9.4444,9.4295,9.2931,9.1996,9.1752,9.0518,8.9621,8.9471,8.9189,8.8629,8.8629,8.8629,8.8629,8.8612,8.8505,8.8417,8.8325,8.8211,8.811,8.807,8.8012,8.8012,8.7992,8.7992,8.8012,8.793,8.7787,8.7435,8.7368,8.6916,8.659,8.6487,8.6119,8.593,8.5793,8.561,8.5308,8.4973,8.484,8.4779,8.3897,8.2982,8.2019,8.0926,8.0609,8.0223,7.9163,7.8015,7.7737,7.6596,7.5906,7.5625,7.4892,7.4299,7.4002,7.3957,7.2883,7.2433,9.9903,9.9903,9.9903,9.9903,9.9903,9.9903,9.9903,9.9903,9.9903,9.9903,9.9903,9.9903,9.9903,9.9903,9.9903,9.9903,9.9899,9.9797,9.9783,9.9762,9.9523,9.9411,9.9375,9.9189,9.907,9.9057,9.8979,9.89,9.8844,9.8795,9.8733,9.8594,9.8538,9.852,9.852,9.852,9.852,9.852,9.852,9.8239,9.7678,9.6613,9.6575,9.7491,9.6688,9.68,9.8426,9.852,9.852,9.852,9.852,9.8314,9.7566,9.6127,9.5267,9.5042,9.3696,9.2762,9.2612,9.1304,9.0369,9.0144,8.9376,8.8703,8.8629,8.8666,8.8629,8.8629,8.8594,8.8594,8.8594,8.849,8.8363,8.825,8.8172,8.811,8.807,8.8012,8.8008,8.7846,8.762,8.7495,8.7404,8.7206,8.6843,8.6793,8.6418,8.6063,8.5951,8.5587,8.5262,8.523,8.4944,8.4683,8.4358,8.4144,8.3364,8.2156,8.1345,8.0489,7.9272,7.8506,7.802,7.7183,7.6038,7.4996,7.3671,7.3002,7.3025,7.2604,7.2341,7.2439,7.2727,7.2439,7.1884,9.9978,9.9903,9.9903,9.9903,9.9903,9.9903,9.9903,9.9903,9.9903,9.9903,9.9903,9.9903,9.9903,9.9903,9.9903,9.9895,9.9826,9.9619,9.9531,9.9515,9.9287,9.9152,9.9166,9.9,9.8893,9.8915,9.8681,9.8576,9.8594,9.8557,9.8576,9.8538,9.852,9.852,9.852,9.852,9.852,9.8501,9.8352,9.766,9.6276,9.579,9.579,9.6127,9.6089,9.6837,9.8445,9.852,9.852,9.852,9.8464,9.7753,9.6239,9.4482,9.3509,9.3285,9.2034,9.1249,9.1024,8.9696,8.8928,8.889,8.8686,8.8612,8.8612,8.8594,8.8594,8.8577,8.8543,8.8507,8.8543,8.8418,8.8229,8.8266,8.8113,8.8033,8.7992,8.7992,8.7809,8.7229,8.6805,8.6418,8.6391,8.6364,8.6337,8.6229,8.5844,8.5466,8.5406,8.5068,8.465,8.4476,8.4226,8.3732,8.3551,8.3196,8.1666,8.0282,7.9405,7.8326,7.6906,7.6385,7.59,7.524,7.409,7.3598,7.2329,7.1845,7.1612,7.1336,7.0733,7.0591,7.0934,7.1184,7.0925,10.0965,10.0016,9.9903,9.9903,9.9903,9.9903,9.9903,9.9903,9.9903,9.9903,9.9903,9.9903,9.9903,9.9903,9.9903,9.9718,9.9402,9.9337,9.9259,9.9239,9.9082,9.9037,9.8981,9.8779,9.8683,9.8666,9.8576,9.852,9.852,9.852,9.852,9.852,9.852,9.852,9.852,9.852,9.852,9.8314,9.7379,9.665,9.5828,9.3921,9.3734,9.5641,9.6052,9.6837,9.8464,9.852,9.852,9.8389,9.7435,9.6575,9.5828,9.3435,9.1939,9.1752,9.0406,8.9434,8.9376,8.8965,8.8629,8.8629,8.856,8.8488,8.8488,8.8397,8.8361,8.8361,8.8325,8.8325,8.8344,8.823,8.8187,8.817,8.7772,8.7435,8.7368,8.7074,8.683,8.6601,8.6391,8.6337,8.6283,8.5987,8.5823,8.5764,8.5257,8.488,8.488,8.465,8.4302,8.3232,8.3018,8.259,8.128,7.9775,7.8192,7.743,7.6663,7.5239,7.409,7.4056,7.3742,7.3112,7.2546,7.2145,7.1655,7.1139,7.0854,7.0678,6.9733,6.874,6.9297,6.9656,6.9012,10.1231,10.0775,10.0168,9.9903,9.9903,9.9903,9.9903,9.9903,9.9903,9.9903,9.9903,9.9903,9.9844,9.9773,9.9689,9.9437,9.9152,9.9095,9.9082,9.9056,9.8863,9.8817,9.8763,9.863,9.852,9.852,9.852,9.852,9.852,9.852,9.852,9.852,9.852,9.852,9.852,9.852,9.852,9.8426,9.751,9.665,9.5902,9.3996,9.3846,9.5902,9.6052,9.68,9.8482,9.7959,9.766,9.7622,9.6015,9.4855,9.4145,9.2276,9.095,9.0257,8.9247,8.8612,8.8577,8.8577,8.856,8.8525,8.8435,8.8361,8.838,8.8307,8.827,8.8251,8.8269,8.8231,8.8154,8.7876,8.7729,8.7729,8.7216,8.6793,8.6718,8.6549,8.6229,8.6072,8.6044,8.5894,8.564,8.5375,8.5199,8.51,8.4814,8.4298,8.3943,8.3696,8.3089,8.1876,8.1341,8.0567,7.8345,7.6406,7.5371,7.4785,7.4265,7.3287,7.2649,7.2682,7.2353,7.1848,7.1458,7.1066,7.079,7.0161,6.8624,6.837,6.7407,6.6806,6.7675,6.629,6.5981,10.1041,10.2069,10.0624,9.9903,9.9903,9.9903,9.9903,9.9848,9.9895,9.9853,9.984,9.9844,9.9751,9.9491,9.9239,9.9129,9.9107,9.8981,9.89,9.8869,9.8683,9.8538,9.852,9.852,9.852,9.852,9.852,9.852,9.852,9.852,9.852,9.852,9.852,9.852,9.852,9.852,9.852,9.8482,9.8183,9.7585,9.6201,9.6052,9.6071,9.622,9.6201,9.6874,9.7959,9.6874,9.6015,9.5902,9.4276,9.2744,9.1435,9.1099,9.0294,8.8948,8.8666,8.8577,8.8452,8.8452,8.8361,8.8288,8.8307,8.8251,8.827,8.8288,8.8288,8.8251,8.8192,8.813,8.7934,8.7413,8.7098,8.7013,8.659,8.6274,8.6247,8.6174,8.5987,8.5623,8.5472,8.5288,8.468,8.4516,8.4331,8.4331,8.4264,8.366,8.2447,8.2126,8.1448,8.0342,7.953,7.8484,7.5039,7.4048,7.3671,7.3254,7.2929,7.2437,7.203,7.1612,7.1117,7.0686,7.0235,6.9897,6.9733,6.871,6.693,6.5896,6.4998,6.4364,6.4785,6.3166,6.2843,10.3204,10.2221,10.0586,9.9903,9.9903,9.9903,9.9826,9.9639,9.9625,9.9523,9.9375,9.9366,9.9245,9.9107,9.9014,9.8878,9.8729,9.8664,9.8628,9.8648,9.8594,9.852,9.852,9.852,9.852,9.852,9.852,9.852,9.852,9.852,9.852,9.852,9.852,9.8481,9.8423,9.8501,9.8538,9.8349,9.7248,9.6501,9.6295,9.7135,9.7694,9.7732,9.7809,9.7435,9.6762,9.6183,9.536,9.4184,9.2578,9.1458,9.0972,8.996,8.9152,8.8703,8.856,8.8452,8.8307,8.8307,8.8288,8.8251,8.8269,8.8269,8.8269,8.8269,8.8268,8.8192,8.7798,8.7524,8.7435,8.6929,8.6539,8.6487,8.6072,8.5735,8.5705,8.5283,8.5001,8.488,8.488,8.4716,8.4441,8.3589,8.2911,8.2733,8.1948,8.0881,8.0596,8.0453,7.9989,7.8523,7.8206,7.6768,7.3949,7.2869,7.24,7.1992,7.1506,7.1083,7.0974,7.0861,7.0551,6.9015,6.8732,6.8286,6.7458,6.6219,6.4584,6.4103,6.3449,6.2669,6.2198,6.2305,6.1837,10.2795,10.2946,10.0597,9.9612,9.9719,10.0363,10.0159,9.9384,9.9384,9.9279,9.9204,9.9654,9.9464,9.88,9.8763,9.8719,9.8538,9.852,9.852,9.852,9.852,9.852,9.852,9.852,9.852,9.852,9.852,9.852,9.852,9.852,9.8538,9.8462,9.8462,9.8404,9.8304,9.8364,9.8384,9.8327,9.7376,9.6657,9.6204,9.6412,9.656,9.6531,9.6019,9.5171,9.4338,9.345,9.2642,9.1677,9.0097,8.9228,8.927,8.8562,8.8213,8.8251,8.8344,8.8307,8.8288,8.8269,8.8288,8.8269,8.8248,8.8268,8.8288,8.8288,8.8172,8.7897,8.7331,8.6941,8.6806,8.6328,8.5987,8.593,8.5466,8.5136,8.5136,8.4782,8.4516,8.4516,8.4516,8.4372,8.3589,8.2768,8.2019,8.1234,8.0596,7.9704,7.9022,7.8951,7.8144,7.6612,7.5832,7.4676,7.2968,7.1883,7.1535,7.1077,7.0215,6.9481,6.9321,6.9113,6.8338,6.739,6.6665,6.5866,6.4977,6.3798,6.2344,6.2066,6.1412,6.0324,5.9966,5.9603,5.8803,10.1089,10.3078,10.042,9.914,9.9352,10.0926,10.0764,9.952,9.9558,9.9332,9.8554,9.9858,9.9511,9.8464,9.8482,9.8538,9.8538,9.852,9.852,9.852,9.852,9.852,9.852,9.852,9.852,9.852,9.852,9.852,9.8501,9.8501,9.8443,9.8304,9.8206,9.8027,9.7941,9.7941,9.8005,9.8127,9.7894,9.7139,9.5962,9.4458,9.3732,9.3792,9.2353,9.1545,9.1504,8.9914,8.8992,8.8699,8.7514,8.6805,8.6941,8.7239,8.7465,8.7538,8.7944,8.8156,8.817,8.8209,8.8266,8.8266,8.8266,8.8287,8.827,8.8194,8.7904,8.7443,8.6781,8.6371,8.622,8.5728,8.5411,8.538,8.4944,8.4516,8.4583,8.4409,8.4336,8.4338,8.3874,8.3553,8.2269,8.1912,8.1306,7.9883,7.9205,7.846,7.7405,7.7089,7.6331,7.4457,7.3358,7.2546,7.1534,7.1147,7.0486,6.9778,6.8609,6.778,6.7325,6.6522,6.5388,6.4977,6.4262,6.3522,6.2783,6.1594,5.9815,5.9645,5.8754,5.7497,5.6622,5.6001,5.4931,10.0824,10.0247,9.9442,9.914,9.9291,10.0941,10.1357,10.0961,10.2165,9.9734,9.5416,9.6405,9.6949,9.6762,9.8015,9.852,9.852,9.852,9.852,9.852,9.852,9.852,9.852,9.852,9.852,9.852,9.852,9.8519,9.8404,9.8404,9.8106,9.7456,9.698,9.662,9.6485,9.6593,9.6593,9.6466,9.5255,9.4458,9.4254,9.2735,9.1919,9.1973,9.166,9.0979,8.9704,8.9171,8.8322,8.715,8.6748,8.6565,8.659,8.6756,8.6855,8.6965,8.7271,8.7524,8.7524,8.7992,8.8266,8.8266,8.8269,8.8307,8.8307,8.7596,8.6976,8.6806,8.6101,8.5728,8.5619,8.5082,8.4749,8.4782,8.4652,8.4374,8.4374,8.3482,8.2768,8.2626,8.1698,8.0913,8.0524,8.0417,7.9807,7.8309,7.7025,7.5959,7.5124,7.4854,7.4151,7.2761,7.2107,7.1246,6.9496,6.9013,6.8411,6.7115,6.6465,6.5863,6.5216,6.4928,6.4016,6.216,6.1403,6.087,5.9541,5.8228,5.7593,5.7459,5.6794,5.5835,5.5465,5.451,5.316,10.0766,9.9961,9.9961,9.951,9.8885,9.9021,9.8553,9.7962,10.0325,9.8833,9.493,9.5603,9.5585,9.4987,9.5847,9.6239,9.62,9.6873,9.7228,9.7379,9.803,9.8443,9.852,9.8423,9.8423,9.8423,9.8148,9.7867,9.7779,9.7516,9.7142,9.6752,9.6348,9.6093,9.5948,9.6006,9.6035,9.597,9.378,9.2308,9.168,9.0842,9.007,8.9406,8.8674,8.7942,8.7136,8.6953,8.6502,8.5633,8.5633,8.5336,8.4699,8.4871,8.4734,8.4157,8.4504,8.4723,8.4699,8.5017,8.5566,8.6349,8.7022,8.6902,8.5531,8.519,8.5079,8.5079,8.4452,8.4331,8.4983,8.3454,8.2697,8.3411,8.2804,8.2447,8.234,8.1627,8.1199,8.1092,8.0382,7.9633,7.8951,7.8777,7.8238,7.6744,7.5506,7.4459,7.3699,7.3254,7.234,7.0646,7.0164,6.9361,6.7831,6.7176,6.6677,6.5905,6.4659,6.3625,6.3157,6.1902,6.0934,5.9605,5.8897,5.8353,5.7603,5.6591,5.6079,5.5851,5.5448,5.4884,5.4348,5.3709,5.2335,10.0015,9.9884,10.0108,9.9305,9.7716,9.6314,9.4968,9.407,9.6183,9.6332,9.5005,9.5229,9.4539,9.3194,9.3362,9.3436,9.3396,9.4681,9.5297,9.5392,9.6806,9.7687,9.7993,9.7754,9.7824,9.8127,9.7409,9.7044,9.6968,9.6485,9.615,9.6064,9.5948,9.5739,9.5556,9.5337,9.5259,9.5277,9.2394,9.026,8.894,8.8691,8.7975,8.6721,8.5331,8.4619,8.4683,8.4652,8.4516,8.4516,8.4516,8.3902,8.2495,8.2753,8.2296,8.1059,8.1316,8.1478,8.1515,8.1592,8.2277,8.372,8.5074,8.461,8.1852,8.2289,8.273,8.2701,8.2245,8.2483,8.3518,8.152,8.0596,8.1591,8.0703,7.9918,8.0061,7.974,7.9562,7.9562,7.9415,7.8563,7.7453,7.7239,7.6673,7.5385,7.4622,7.3797,7.3011,7.1936,7.0382,6.8643,6.8076,6.7434,6.6151,6.5445,6.4971,6.4786,6.2613,6.116,6.0699,5.9234,5.8045,5.759,5.6982,5.6548,5.6397,5.5727,5.5308,5.5197,5.4884,5.4377,5.3337,5.2614,5.1574,9.6052,9.4968,9.6314,9.5902,9.4369,9.4108,9.4556,9.5342,9.1919,0.0,0.0,9.1416,9.1884,9.1679,9.2914,9.3511,9.3455,9.3639,9.3418,9.2991,9.3794,9.4629,9.5476,9.5347,9.6028,9.7348,9.6736,9.6311,9.6236,9.6122,9.5739,9.5185,9.5087,9.4823,9.4159,9.2977,9.2261,9.2047,8.9155,8.7445,8.7264,8.6015,8.5196,8.4846,8.4627,8.4519,8.4453,8.4519,8.4516,8.4516,8.4516,8.3872,8.2373,8.2327,8.1676,8.0237,8.0549,8.0853,8.0853,8.1349,8.1839,8.2207,8.2524,8.1978,8.0368,8.0406,8.0492,8.0492,8.037,8.0417,8.0699,8.0168,7.9989,8.0275,8.0061,7.9883,7.9811,7.8773,7.7988,7.7845,7.6917,7.5954,7.571,7.5674,7.5273,7.4491,7.4028,7.3764,7.2766,7.0518,6.8217,6.6781,6.6284,6.5633,6.4297,6.36,6.2759,6.1098,6.0202,5.9103,5.784,5.707,5.6501,5.5973,5.5588,5.5495,5.5432,5.512,5.4884,5.4884,5.3962,5.302,5.2593,5.111,4.9181,9.5042,9.3696,9.5342,9.4594,0.0,9.2333,9.213,9.1699,8.9589,8.8629,8.8686,8.9276,8.9443,8.9422,8.9875,9.0093,9.0167,9.0785,9.0939,9.0842,9.1751,9.2563,9.3165,9.2987,9.3366,9.4217,9.3499,9.3123,9.3032,9.2721,9.2805,9.319,9.3154,9.3407,9.3749,9.3037,9.1527,8.9321,8.7956,8.7104,8.6694,8.592,8.5369,8.4957,8.4321,0.0,0.0,0.0,0.0,0.0,0.0,0.0,0.0,7.9843,0.0,7.7471,7.7594,7.7672,7.7612,7.7999,7.8614,7.9501,7.9631,7.8666,7.6388,7.7778,7.8737,7.8701,7.8701,7.9058,7.9704,7.8456,7.7881,7.8594,7.8023,7.756,7.7488,7.6846,7.6382,7.6311,7.5705,7.5055,7.4676,7.4645,7.4325,7.3561,7.3046,7.2548,7.1901,6.9168,6.6763,6.6029,6.4938,6.3491,6.1944,6.1079,6.004,5.9118,5.8315,5.7614,5.6694,5.6185,5.5743,5.5338,5.5227,5.5227,5.515,5.4521,5.3981,5.3806,5.2793,5.1484,4.9843,4.7895,4.5959,9.3827,9.2465,9.4126,9.3194,9.0581,9.0432,8.9365,8.7761,8.8157,8.838,8.8269,8.7904,8.7639,8.7487,8.6916,8.674,8.6862,8.787,8.8391,8.8599,8.9706,9.0428,9.0822,9.0645,9.0734,9.1075,9.0376,8.9999,8.9999,8.9469,8.9868,9.108,9.1116,9.1648,9.2635,0.0,0.0,0.0,8.6505,8.6385,8.5688,8.5661,8.5365,8.4771,8.3448,0.0,8.1767,8.1649,8.1003,7.9725,7.9819,0.0,0.0,0.0,0.0,0.0,0.0,0.0,0.0,0.0,0.0,0.0,7.6052,7.5044,7.2569,7.4931,7.6805,7.706,7.7096,7.7631,7.8813,7.6637,7.5674,7.6882,7.596,7.5175,7.5241,7.5241,7.5241,7.5241,7.5085,7.4738,7.4161,7.3897,7.3458,7.2348,7.1513,7.088,7.027,6.735,6.5412,6.5167,6.3247,6.134,5.9732,5.8793,5.8326,5.7734,5.7061,5.656,5.6276,5.5681,5.5227,5.5227,5.5056,5.4837,5.4867,5.3709,5.2714,5.2714,5.1326,4.9382,4.6707,4.4529,4.3096,8.9435,8.8083,8.9694,8.9611,8.8259,8.7783,8.7446,8.7179,8.7248,8.7271,8.7271,8.7239,8.7108,8.7002,8.6805,8.6653,8.6549,8.6637,8.6427,8.6068,8.6629,8.7438,8.8312,8.8288,8.898,9.0314,8.9673,8.9331,8.9331,8.9296,8.9297,8.9511,8.9547,8.9439,8.9143,8.6149,8.3808,8.2395,8.2408,8.246,8.2576,8.2616,8.2472,8.2108,8.0925,8.0173,7.9887,7.9447,7.9058,7.8916,7.9521,7.8594,7.574,7.5441,7.3962,0.0,7.0651,0.0,0.0,0.0,0.0,0.0,0.0,0.0,0.0,7.2329,7.4093,7.5419,7.5526,7.5597,7.5812,7.5263,7.5055,7.546,7.5121,7.4983,7.5175,7.5241,7.5241,7.5241,7.4614,7.4196,7.3892,7.3426,7.2208,7.0387,6.9748,6.8716,6.6614,6.4672,6.3371,6.3155,6.1282,5.9564,5.8484,5.801,5.7583,5.6929,5.6605,5.6276,5.5542,5.5291,5.5197,5.5073,5.4259,5.3621,5.3709,5.2357,5.1368,5.1126,4.903,4.647,4.4189,4.2435,4.1652,8.6351,8.5738,8.6461,8.5788,8.4088,8.3843,8.3717,8.3743,8.4039,8.3991,8.3779,8.4039,8.3967,8.3651,8.3243,8.3562,8.4395,8.416,8.4423,8.5136,8.5252,8.5581,8.6013,8.6013,8.6372,8.7054,8.6756,8.6193,8.5373,8.5337,8.5765,8.6621,8.5729,8.4356,8.2386,8.0791,7.9641,7.9053,8.0178,8.1545,8.2981,8.1492,8.0779,8.1016,7.9093,7.7679,7.713,7.6913,7.6395,7.5522,7.5394,7.4625,7.3054,7.2488,7.1455,0.0,0.0,0.0,0.0,0.0,0.0,0.0,0.0,0.0,0.0,0.0,7.1701,7.2378,7.2543,7.2906,7.3546,7.3582,7.3872,7.4703,7.468,7.4582,7.4491,7.3611,7.3054,7.3022,7.1929,7.0976,7.0543,7.02,6.9396,6.7971,6.6784,6.5177,6.3008,6.167,6.0928,6.0622,5.9465,5.8305,5.741,5.6814,5.6261,5.5927,5.5789,5.5697,5.5244,5.4664,5.3968,5.3167,5.2148,5.1159,5.0329,4.9008,4.7999,4.7608,4.5289,4.2641,4.1272,3.9601,3.8376,8.3672,8.3475,8.1993,8.0671,7.9576,7.9938,8.0391,8.0928,8.138,8.0828,7.9813,8.0989,8.0402,7.8509,7.791,7.8887,8.0871,8.0588,8.1591,8.3539,8.3512,8.3446,8.3446,8.3446,8.3446,8.3446,8.36,8.2893,8.1435,8.1653,8.2223,8.2864,8.0915,7.8781,7.6615,7.6124,7.5935,7.5925,7.7544,7.9689,8.2176,8.013,7.9071,7.9336,7.6897,7.5248,7.4708,7.4481,7.3693,7.2206,7.1717,7.1034,7.0105,6.9043,0.0,0.0,0.0,0.0,0.0,0.0,0.0,0.0,0.0,6.424,6.5815,0.0,6.9032,0.0,7.002,7.0825,7.1823,7.1864,0.0,0.0,7.3206,7.2978,7.2679,7.1464,7.0598,7.06,6.9257,6.8058,6.7505,6.7291,6.6652,6.5153,6.3362,6.1729,6.0322,5.9467,5.8917,5.8752,5.8115,5.7311,5.6663,5.5759,5.5056,5.4789,5.4522,5.4296,5.3953,5.2941,5.1868,5.1022,4.9995,4.903,4.8359,4.6692,4.5409,4.4207,4.1586,3.919,3.8954,3.724,3.5815,8.0975,8.0455,7.4645,7.3399,7.5238,7.6692,7.8499,8.0494,8.0553,7.884,7.6145,7.92,7.7107,7.125,7.0945,0.0,7.5471,7.5439,7.7133,8.0271,8.0271,8.0239,8.0239,8.0275,8.0275,8.0278,8.0855,8.0435,7.9095,8.008,7.9861,7.8421,7.4991,7.3574,7.4003,7.2595,7.2161,7.2825,7.3287,7.4873,7.7603,7.7469,7.6776,7.5521,7.3943,7.3145,7.3061,7.237,7.1329,6.993,7.0511,6.9602,6.7016,0.0,0.0,0.0,0.0,0.0,0.0,0.0,0.0,0.0,0.0,0.0,0.0,0.0,0.0,6.701,6.8911,0.0,7.0654,7.0302,0.0,0.0,0.0,6.9239,6.9204,6.8771,6.8468,6.8502,0.0,0.0,6.6754,6.6215,6.469,6.1512,6.0251,5.9564,5.9347,5.8545,5.8084,5.8253,5.7211,5.6276,5.6018,5.5298,5.4421,5.3591,5.2716,5.1607,5.0549,4.9346,4.8891,4.9237,4.8542,4.7937,4.9019,4.6864,4.4607,4.1326,3.933,3.8079,3.7693,3.6291,3.5008,7.5603,7.3254,7.0622,7.0072,7.0923,7.1552,7.3167,7.5293,7.5293,7.4176,7.2371,7.3512,7.1384,6.6989,6.6659,0.0,0.0,0.0,7.336,7.6718,7.6615,7.7275,7.8349,7.7524,7.7306,7.7772,7.8001,7.7587,7.6639,7.7053,7.4968,7.042,0.0,6.8594,6.8713,6.9214,6.9564,6.9741,7.1812,7.3421,7.4595,7.467,7.3952,7.2363,7.1697,7.0934,7.0031,7.0646,6.9895,6.7491,6.8035,6.6957,0.0,0.0,0.0,0.0,0.0,0.0,0.0,0.0,0.0,0.0,0.0,5.6849,5.8523,0.0,0.0,0.0,6.3854,6.5682,6.7757,6.6746,0.0,0.0,0.0,0.0,0.0,0.0,0.0,6.5287,6.4181,6.3386,6.3383,6.2772,6.1748,6.029,5.9274,5.8545,5.8052,0.0,5.6619,5.6574,5.5636,5.4651,5.4031,5.3355,5.2526,5.1314,5.033,4.9448,4.8799,4.7709,4.6683,4.6122,4.5151,4.4269,4.3959,4.2881,4.1405,3.9729,3.7362,3.5515,3.5178,3.3877,3.2832,6.9962,0.0,0.0,0.0,0.0,6.7502,6.8345,6.9742,6.9711,6.825,6.5872,6.6557,0.0,0.0,0.0,0.0,0.0,0.0,6.8371,7.2218,7.3071,7.4219,7.5634,7.4472,7.4254,7.4745,7.4473,7.3811,7.2753,7.1455,6.8433,6.3847,0.0,0.0,0.0,0.0,6.6978,6.6688,6.9547,7.1175,7.1218,7.1293,7.0901,7.013,6.9517,6.8718,6.7624,6.855,6.8031,6.5839,6.5338,0.0,0.0,0.0,0.0,0.0,0.0,0.0,0.0,0.0,0.0,0.0,0.0,0.0,0.0,0.0,0.0,0.0,0.0,0.0,6.3803,6.275,6.2699,0.0,0.0,0.0,0.0,0.0,0.0,0.0,0.0,0.0,5.931,5.9027,5.8807,0.0,0.0,5.741,5.6796,5.5897,5.5188,5.4907,5.4126,0.0,5.2016,5.151,5.0744,4.9262,4.8331,4.7478,4.6397,4.5096,4.3984,4.3263,4.2442,4.1231,3.9246,3.8341,3.7849,3.7231,3.5193,3.3322,3.2862,3.1951,3.1099,0.0,0.0,0.0,0.0,6.5108,0.0,0.0,0.0,6.4467,6.119,0.0,5.8859,0.0,0.0,0.0,0.0,5.6964,5.8451,0.0,0.0,6.936,7.0992,7.1092,7.0923,7.0891,7.0892,6.9907,6.8537,6.6717,6.2535,0.0,0.0,0.0,0.0,0.0,0.0,6.4417,6.3291,6.5805,6.718,6.7288,6.715,6.7741,6.8954,6.7339,6.6452,6.6451,6.5849,6.5441,6.5228,6.2474,0.0,0.0,0.0,0.0,0.0,0.0,0.0,0.0,0.0,0.0,0.0,0.0,0.0,0.0,0.0,0.0,0.0,0.0,0.0,0.0,5.8509,0.0,0.0,0.0,0.0,0.0,0.0,0.0,0.0,0.0,5.7114,5.4811,5.5467,5.5994,5.5797,0.0,0.0,0.0,0.0,5.3942,5.3582,5.2843,5.1865,5.0438,5.0191,4.9572,4.7873,0.0,0.0,4.2525,4.0852,4.0225,4.0953,4.1206,4.0027,3.5763,3.4671,3.4127,3.3603,3.2761,3.1984,3.1463,3.0732,3.0272,0.0,0.0,0.0,0.0,0.0,0.0,0.0,0.0,0.0,5.7924,5.4344,5.5175,0.0,0.0,0.0,0.0,0.0,0.0,0.0,0.0,6.1475,6.3627,6.5674,6.4645,6.4352,6.4762,6.4368,6.2181,0.0,0.0,0.0,0.0,0.0,0.0,0.0,0.0,6.1272,6.0969,6.3941,6.5603,6.5649,6.4776,6.4869,6.6009,6.4681,6.3479,6.273,6.3639,6.284,0.0,0.0,0.0,0.0,0.0,0.0,0.0,0.0,0.0,0.0,0.0,0.0,0.0,0.0,0.0,0.0,0.0,0.0,0.0,0.0,0.0,0.0,0.0,5.7387,0.0,0.0,0.0,0.0,0.0,0.0,0.0,0.0,0.0,5.2111,5.2994,5.4124,5.4866,5.4598,5.4183,5.395,0.0,0.0,0.0,0.0,0.0,0.0,0.0,4.6542,4.4105,4.321,4.2285,4.0649,3.9553,3.8785,3.8415,0.0,0.0,3.4126,3.2706,3.1884,3.1494,3.0359,2.9308,2.8965,2.8485,2.7966,0.0,0.0,0.0,0.0,0.0,0.0,0.0,0.0,0.0,5.2501,4.9813,0.0,0.0,0.0,0.0,0.0,0.0,0.0,0.0,0.0,0.0,0.0,6.1296,6.0247,0.0,0.0,0.0,0.0,0.0,0.0,0.0,0.0,0.0,0.0,0.0,0.0,5.8511,5.8233,6.1702,6.3422,6.3015,6.2104,6.2222,6.3336,6.1657,6.045,5.9858,0.0,0.0,0.0,0.0,0.0,0.0,0.0,0.0,0.0,0.0,0.0,0.0,0.0,0.0,0.0,0.0,0.0,0.0,0.0,0.0,0.0,0.0,0.0,0.0,0.0,5.419,0.0,0.0,0.0,0.0,0.0,0.0,0.0,0.0,0.0,0.0,5.0076,5.1254,5.2087,5.222,5.2103,5.1899,5.1315,5.0605,0.0,0.0,0.0,0.0,0.0,0.0,0.0,0.0,0.0,0.0,0.0,0.0,0.0,0.0,3.3628,3.1396,3.0058,2.9115,2.862,0.0,0.0,0.0,0.0,0.0,0.0,0.0,0.0,0.0,0.0,0.0,0.0,0.0,0.0,0.0,4.2077,0.0,0.0,4.2464,0.0,0.0,0.0,0.0,0.0,0.0,0.0,0.0,0.0,0.0,0.0,0.0,0.0,0.0,0.0,0.0,0.0,0.0,0.0,0.0,0.0,0.0,5.5937,5.4819,5.8777,6.0283,5.9096,5.8986,5.9523,6.0732,5.8468,5.7355,5.7967,0.0,0.0,0.0,0.0,0.0,0.0,0.0,0.0,0.0,0.0,0.0,0.0,0.0,0.0,0.0,0.0,0.0,0.0,0.0,0.0,0.0,0.0,0.0,0.0,0.0,0.0,4.8609,4.875,4.8911,0.0,0.0,0.0,0.0,0.0,0.0,0.0,0.0,0.0,4.7505,4.8963,4.9897,4.9463,4.8679,4.8068,4.7497,4.6201,4.4808,4.3377,4.3095,4.228,0.0,0.0,0.0,0.0,0.0,0.0,0.0,0.0,0.0,0.0,0.0,0.0,0.0,0.0,0.0,0.0,0.0,0.0,0.0,0.0,0.0,0.0,0.0,0.0,0.0,0.0,0.0,0.0,0.0,0.0,0.0,0.0,0.0,0.0,0.0,0.0,0.0,0.0,0.0,0.0,0.0,0.0,0.0,0.0,0.0,0.0,0.0,0.0,0.0,0.0,0.0,0.0,0.0,0.0,5.1923,5.1587,5.4497,5.5815,5.5418,5.5418,5.559,5.596,5.5452,5.4917,0.0,0.0,0.0,0.0,0.0,0.0,0.0,0.0,0.0,0.0,0.0,0.0,0.0,0.0,0.0,0.0,0.0,0.0,0.0,0.0,0.0,0.0,0.0,0.0,0.0,0.0,0.0,0.0,4.8309,4.8506,4.7639,0.0,0.0,0.0,0.0,0.0,0.0,0.0,0.0,0.0,0.0,4.7792,4.8084,4.7624,4.6918,4.5931,4.4683,4.3345,4.2094,4.1102,3.9963,3.873,0.0,0.0,0.0,0.0,0.0,0.0,0.0,0.0,0.0,0.0,0.0,0.0,0.0,0.0,0.0,0.0,0.0,0.0,0.0,0.0,0.0,0.0,0.0,0.0,0.0,0.0,0.0,0.0,0.0,0.0,0.0,0.0,0.0,0.0,0.0,0.0,0.0,0.0,0.0,0.0,0.0,0.0,0.0,0.0,0.0,0.0,0.0,0.0,0.0,0.0,0.0,0.0,0.0,4.9854,4.9712,5.2323,5.3667,5.3533,5.303,5.2949,5.3561,5.332,5.2707,0.0,0.0,0.0,0.0,0.0,0.0,0.0,0.0,0.0,0.0,0.0,0.0,0.0,0.0,0.0,0.0,0.0,0.0,0.0,0.0,0.0,0.0,0.0,0.0,0.0,0.0,0.0,0.0,4.6341,4.6933,4.6213,0.0,0.0,0.0,0.0,0.0,0.0,0.0,0.0,0.0,0.0,4.5078,4.5464,4.5106,0.0,0.0,4.249,4.1405,4.0576,3.9766,3.8959,3.7951,3.6706,0.0,0.0,0.0,0.0,0.0,0.0,0.0,0.0,0.0,0.0,0.0,0.0,0.0,0.0,0.0,0.0,0.0,0.0,0.0,0.0,0.0,0.0,0.0,0.0,0.0,0.0,0.0,0.0,0.0,0.0,0.0,0.0,0.0,0.0,0.0,0.0,0.0,0.0,0.0,0.0,0.0,0.0,0.0,0.0,0.0,0.0,0.0,0.0,0.0,0.0,0.0,0.0,4.8913,4.8777,5.1475,5.2831,5.2702,5.1407,5.1352,5.2621,5.1753,5.0637,0.0,0.0,0.0,0.0,0.0,0.0,0.0,0.0,0.0,0.0,0.0,0.0,0.0,0.0,0.0,0.0,0.0,0.0,0.0,0.0,0.0,0.0,0.0,0.0,0.0,0.0,0.0,0.0,0.0,0.0,0.0,0.0,0.0,0.0,0.0,0.0,0.0,0.0,0.0,0.0,0.0,4.2118,4.2092,4.1688,4.128,0.0,3.9976,3.9131,3.8858,3.8933,3.8559,3.7373,0.0,0.0,0.0,0.0,0.0,0.0,0.0,0.0,0.0,0.0,0.0,0.0,0.0,0.0,0.0,0.0,0.0,0.0,0.0,0.0,0.0,0.0,0.0,0.0,0.0,0.0,0.0,0.0,0.0,0.0,0.0,0.0,0.0,0.0,0.0,0.0,0.0,0.0,0.0,0.0,0.0,0.0,0.0,0.0,0.0,0.0,0.0,0.0,0.0,0.0,0.0,0.0,0.0,0.0,4.5778,4.7182,4.8294,4.9059,4.8766,4.874,4.9112,4.9067,0.0,0.0,0.0,0.0,0.0,0.0,0.0,0.0,0.0,0.0,0.0,0.0,0.0,0.0,0.0,0.0,0.0,0.0,0.0,0.0,0.0,0.0,0.0,0.0,0.0,0.0,0.0,3.9394,0.0,0.0,0.0,0.0,0.0,0.0,0.0,0.0,0.0,0.0,0.0,0.0,0.0,0.0,4.1383,4.1561,4.1127,4.0794,0.0,0.0,3.8509,3.8055,3.7165,3.6292,0.0,0.0,0.0,0.0,0.0,0.0,0.0,0.0,0.0,0.0,0.0,0.0,0.0,0.0,0.0,0.0,0.0,0.0,0.0,0.0,0.0,0.0,0.0,0.0,0.0,0.0,0.0,0.0,0.0,0.0,0.0,0.0,0.0,0.0,0.0,0.0,0.0,0.0,0.0,0.0,0.0,0.0,0.0,0.0,0.0,0.0,0.0,0.0,0.0,0.0,0.0,0.0,0.0,0.0,4.2754,4.3227,4.4658,4.5515,4.569,4.5715,4.6002,4.6542,4.6825,4.6506,0.0,0.0,0.0,0.0,0.0,0.0,0.0,0.0,0.0,0.0,0.0,0.0,0.0,0.0,0.0,0.0,0.0,0.0,0.0,0.0,0.0,0.0,0.0,0.0,0.0,0.0,0.0,0.0,0.0,0.0,0.0,0.0,0.0,0.0,0.0,0.0,0.0,0.0,0.0,0.0,0.0,0.0,3.9972,3.9666,0.0,0.0,0.0,3.7855,3.6908,0.0,0.0,0.0,0.0,0.0,0.0,0.0,0.0,0.0,0.0,0.0,0.0,0.0,0.0,0.0,0.0,0.0,0.0,0.0,0.0,0.0,0.0,0.0,0.0,0.0,0.0,0.0,0.0,0.0,0.0,0.0,0.0,0.0,0.0,0.0,0.0,0.0,0.0,0.0,0.0,0.0,0.0,0.0,0.0,0.0,0.0,0.0,0.0,0.0,0.0,0.0,0.0,0.0,0.0,0.0,0.0,0.0,4.1234,4.3073,4.3699,4.2998,4.2961,4.3559,4.4879,4.5022,4.4684,0.0,0.0,0.0,0.0,0.0,0.0,0.0,0.0,0.0,0.0,0.0,0.0,0.0,0.0,0.0,0.0,0.0,0.0,0.0,0.0,0.0,0.0,0.0,0.0,0.0,0.0,0.0,0.0,0.0,0.0,0.0,0.0,0.0,0.0,0.0,0.0,0.0,0.0,0.0,0.0,0.0,3.8164,3.7888,3.7535,3.7204,0.0,0.0,3.6819,3.5561,3.6002,0.0,0.0,0.0,0.0,0.0,0.0,0.0,0.0,0.0,0.0,0.0,0.0,0.0,0.0,0.0,0.0,0.0,0.0,0.0,0.0,0.0,0.0,0.0,0.0,0.0,0.0,0.0,0.0,0.0,0.0,0.0,0.0,0.0,0.0,0.0,0.0,0.0,0.0,0.0,0.0,0.0,0.0,0.0,0.0,0.0,0.0,0.0,0.0,0.0,0.0,0.0,0.0,0.0,0.0,0.0,0.0,4.0564,4.1016,4.1785,4.2891,4.2961,4.3559,4.4772,4.4049,4.3414,0.0,0.0,0.0,0.0,0.0,0.0,0.0,0.0,0.0,0.0,0.0,0.0,0.0,0.0,0.0,0.0,0.0,0.0,0.0,0.0,0.0,0.0,0.0,0.0,0.0,0.0,0.0,0.0,0.0,0.0,0.0,0.0,0.0,0.0,0.0,0.0,0.0,0.0,0.0,0.0,0.0,3.6582,3.6409,3.5742,0.0,0.0,0.0,0.0,3.4382,3.4234,0.0,0.0,0.0,0.0,0.0,0.0,0.0,0.0,0.0,0.0,0.0,0.0,0.0,0.0,0.0,0.0,0.0,0.0,0.0,0.0,0.0,0.0,0.0,0.0,0.0,0.0,0.0,0.0,0.0,0.0,0.0,0.0,0.0,0.0,0.0,0.0,0.0,0.0,0.0,0.0,0.0,0.0,0.0,0.0,0.0,0.0,0.0,0.0,0.0,0.0,0.0,0.0,0.0,0.0,0.0,0.0,3.881,3.9161,3.9921,4.0871,4.073,4.1346,4.2721,4.1804,4.1293,0.0,0.0,0.0,0.0,0.0,0.0,0.0,0.0,0.0,0.0,0.0,0.0,0.0,0.0,0.0,0.0,0.0,0.0,0.0,0.0,0.0,0.0,0.0,0.0,0.0,0.0,0.0,0.0,0.0,0.0,0.0,0.0,0.0,0.0,0.0,0.0,0.0,0.0,0.0,0.0,3.4458,3.464,3.4301,0.0,0.0,0.0,0.0,0.0,0.0,3.1945,3.1139,0.0,0.0,0.0,0.0,0.0,0.0,0.0,0.0,0.0,0.0,0.0,0.0,0.0,0.0,0.0,0.0,0.0,0.0,0.0,0.0,0.0,0.0,0.0,0.0,0.0,0.0,0.0,0.0,0.0,0.0,0.0,0.0,0.0,0.0,0.0,0.0,0.0,0.0,0.0,0.0,0.0,0.0,0.0,0.0,0.0,0.0,0.0,0.0,0.0,0.0,0.0,0.0,0.0,0.0,0.0,3.6888,3.7649,3.8167,3.8577,3.8237,3.8789,4.0222,3.9315,3.8968,3.9332,0.0,0.0,0.0,0.0,0.0,0.0,0.0,0.0,0.0,0.0,0.0,0.0,0.0,0.0,0.0,0.0,0.0,0.0,0.0,0.0,0.0,0.0,0.0,0.0,0.0,0.0,0.0,0.0,0.0,0.0,0.0,0.0,0.0,0.0,0.0,0.0,0.0,0.0,0.0,3.2704,3.2667,0.0,0.0,0.0,0.0,0.0,0.0,0.0,0.0,2.9037,0.0,0.0,0.0,0.0,0.0,0.0,0.0,0.0,0.0,0.0,0.0,0.0,0.0,0.0,0.0,0.0,0.0,0.0,0.0,0.0,0.0,0.0,0.0,0.0,0.0,0.0,0.0,0.0,0.0,0.0,0.0,0.0,0.0,0.0,0.0,0.0,0.0,0.0,0.0,0.0,0.0,0.0,0.0,0.0,0.0,0.0,0.0,0.0,0.0,0.0,0.0,0.0,0.0,0.0,0.0,0.0,3.6414,3.7144,3.8154,3.8109,3.8389,3.8948,3.8185,3.6954,3.5419,0.0,0.0,0.0,0.0,0.0,0.0,0.0,0.0,0.0,0.0,0.0,0.0,0.0,0.0,0.0,0.0,0.0,0.0,0.0,0.0,0.0,0.0,0.0,0.0,0.0,0.0,0.0,0.0,0.0,0.0,0.0,0.0,0.0,0.0,0.0,0.0,0.0,0.0,3.1358,3.13,0.0,0.0,0.0,0.0,0.0,0.0,0.0,0.0,2.7823,0.0,0.0,0.0,0.0,0.0,0.0,0.0,0.0,0.0,0.0,0.0,0.0,0.0,0.0,0.0,0.0,0.0,0.0,0.0,0.0,0.0,0.0,0.0,0.0,0.0,0.0,0.0,0.0,0.0,0.0,0.0,0.0,0.0,0.0,0.0,0.0,0.0,0.0,0.0,0.0,0.0,0.0,0.0,0.0,0.0,0.0,0.0,0.0,0.0,0.0,0.0,0.0,0.0,0.0,0.0,0.0,0.0,0.0,3.6102,3.7113,3.7478,3.7527,3.7399,3.6532,3.522,0.0,0.0,0.0,0.0,0.0,0.0,0.0,0.0,0.0,0.0,0.0,0.0,0.0,0.0,0.0,0.0,0.0,0.0,0.0,0.0,0.0,0.0,0.0,0.0,0.0,0.0,0.0,0.0,0.0,0.0,0.0,0.0,0.0,0.0,0.0,0.0,0.0,0.0,0.0,0.0,0.0,0.0,0.0,0.0,0.0,0.0,0.0,0.0,0.0,0.0,0.0,0.0,0.0,0.0,0.0,0.0,0.0,0.0,0.0,0.0,0.0,0.0,0.0,0.0,0.0,0.0,0.0,0.0,0.0,0.0,0.0,0.0,0.0,0.0,0.0,0.0,0.0,0.0,0.0,0.0,0.0,0.0,0.0,0.0,0.0,0.0,0.0,0.0,0.0,0.0,0.0,0.0,0.0,0.0,0.0,0.0,0.0,0.0,0.0,0.0,0.0,0.0,0.0,0.0,0.0,0.0,0.0,0.0,3.4987,3.6145,3.6562,3.6565,3.5983,3.4665,3.3238,0.0,0.0,0.0,0.0,0.0,0.0,0.0,0.0,0.0,0.0,0.0,0.0,0.0,0.0,0.0,0.0,0.0,0.0,0.0,0.0,0.0,0.0,0.0,0.0,0.0,0.0,0.0,0.0,0.0,0.0,0.0,0.0,0.0,0.0,0.0,0.0,0.0,0.0,0.0,0.0,0.0,0.0,0.0,0.0,0.0,0.0,0.0,0.0,2.4322,0.0,0.0,0.0,0.0,0.0,0.0,0.0,0.0,0.0,0.0,0.0,0.0,0.0,0.0,0.0,0.0,0.0,0.0,0.0,0.0,0.0,0.0,0.0,0.0,0.0,0.0,0.0,0.0,0.0,0.0,0.0,0.0,0.0,0.0,0.0,0.0,0.0,0.0,0.0,0.0,0.0,0.0,0.0,0.0,0.0,0.0,0.0,0.0,0.0,0.0,0.0,0.0,0.0,0.0,0.0,0.0,0.0,0.0,0.0,3.3962,3.5438,3.5769,3.5449,3.4584,3.2455,3.0908,0.0,0.0,0.0,0.0,0.0,0.0,0.0,0.0,0.0,0.0,0.0,0.0,0.0,0.0,0.0,0.0,0.0,0.0,0.0,0.0,0.0,0.0,0.0,0.0,0.0,0.0,0.0,0.0,0.0,0.0,0.0,0.0,0.0,0.0,0.0,0.0,0.0,0.0,0.0,0.0,0.0,0.0,0.0,0.0,0.0,0.0,0.0,0.0,0.0,0.0,0.0,0.0,0.0,0.0,0.0,0.0,0.0,0.0,0.0,0.0,0.0,0.0,0.0,0.0,0.0,0.0,0.0,0.0,0.0,0.0,0.0,0.0,0.0,0.0,0.0,0.0,0.0,0.0,0.0,0.0,0.0,0.0,0.0,0.0,0.0,0.0,0.0,0.0,0.0,0.0,0.0,0.0,0.0,0.0,0.0,0.0,0.0,0.0,0.0,0.0,0.0,0.0,0.0,0.0,0.0,0.0,0.0,0.0,3.2478,3.2777,3.3158,3.3066,3.2376,3.1,2.9936,0.0,0.0,0.0,0.0,0.0,0.0,0.0,0.0,0.0,0.0,0.0,0.0,0.0,0.0,0.0,0.0,0.0,0.0,0.0,0.0,0.0,0.0,0.0,0.0,0.0,0.0,0.0,0.0,0.0,0.0,0.0,0.0,0.0,0.0,0.0,0.0,0.0,0.0,0.0,0.0,0.0,0.0,0.0,0.0,0.0,0.0,0.0,0.0,0.0,0.0,0.0,0.0,0.0,0.0,0.0,0.0,0.0,0.0,0.0,0.0,0.0,0.0,0.0,0.0,0.0,0.0,0.0,0.0,0.0,0.0,0.0,0.0,0.0,0.0,0.0,0.0,0.0,0.0,0.0,0.0,0.0,0.0,0.0,0.0,0.0,0.0,0.0,0.0,0.0,0.0,0.0,0.0,0.0,0.0,0.0,0.0,0.0,0.0,0.0,0.0,0.0,0.0,0.0,0.0,0.0,0.0,0.0,0.0,0.0,3.0735,3.0428,3.0047,2.9517,2.9045,2.8605,0.0,0.0,0.0,0.0,0.0,0.0,0.0,0.0,0.0,0.0,0.0,0.0,0.0,0.0,0.0,0.0,0.0,0.0,0.0,0.0,0.0,0.0,0.0,0.0,0.0,0.0,0.0,0.0,0.0,0.0,0.0,0.0,0.0,0.0,0.0,0.0,0.0,0.0,0.0,0.0,0.0,0.0,0.0,0.0,0.0,0.0,0.0,0.0,0.0,0.0,0.0,0.0,0.0,0.0,0.0,0.0,0.0,0.0,0.0,0.0,0.0,0.0,0.0,0.0,0.0,0.0,0.0,0.0,0.0,0.0,0.0,0.0,0.0,0.0,0.0,0.0,0.0,0.0,0.0,0.0,0.0,0.0,0.0,0.0,0.0,0.0,0.0,0.0,0.0,0.0,0.0,0.0,0.0,0.0,0.0,0.0,0.0,0.0,0.0,0.0,0.0,0.0,0.0,0.0,0.0,0.0,0.0,0.0,0.0,3.0338,2.7859,2.6378,2.6047,2.6186,2.6092,0.0,0.0,0.0,0.0,0.0,0.0,0.0,0.0,0.0,0.0,0.0,0.0,0.0,0.0,0.0,0.0,0.0,0.0,0.0,0.0,0.0,0.0,0.0,0.0,0.0,0.0,0.0,0.0,0.0,0.0,0.0,0.0,0.0,0.0,0.0,0.0,0.0,0.0,0.0,0.0,0.0,0.0,0.0,0.0,0.0,0.0,0.0,0.0,0.0,0.0,0.0,0.0,0.0,0.0,0.0,0.0,0.0,0.0,0.0,0.0,0.0,0.0,0.0,0.0,0.0,0.0,0.0,0.0,0.0,0.0,0.0,0.0,0.0,0.0,0.0,0.0,0.0,0.0,0.0,0.0,0.0,0.0,0.0,0.0,0.0,0.0,0.0,0.0,0.0,0.0,0.0,0.0,0.0,0.0,0.0,0.0,0.0,0.0,0.0,0.0,0.0,0.0,0.0,0.0,0.0,0.0,0.0,0.0,0.0,2.6882,2.5673,2.4835,2.4444,2.421,2.4389,2.4953,0.0,0.0,0.0,0.0,0.0,0.0,0.0,0.0,0.0,0.0,0.0,0.0,0.0,0.0,0.0,0.0,0.0,0.0,0.0,0.0,0.0,0.0,0.0,0.0,0.0,0.0,0.0,0.0,0.0,0.0,0.0,0.0,0.0,0.0,0.0,0.0,0.0,0.0,0.0,0.0,0.0,0.0,0.0,0.0,0.0,0.0,0.0,0.0,0.0,0.0,0.0,0.0,0.0,0.0,0.0,0.0,0.0,0.0,0.0,0.0,0.0,0.0,0.0,0.0,0.0,0.0,0.0,0.0,0.0,0.0,0.0,0.0,0.0,0.0,0.0,0.0,0.0,0.0,0.0,0.0,0.0,0.0,0.0,0.0,0.0,0.0,0.0,0.0,0.0,0.0,0.0,0.0,0.0,0.0,0.0,0.0,0.0,0.0,0.0,0.0,0.0,0.0,0.0,0.0,0.0,0.0,0.0,0.0,2.4228,2.3987,2.3634,2.3159,2.2954,2.331,0.0,0.0,0.0,0.0,0.0,0.0,0.0,0.0,0.0,0.0,0.0,0.0,0.0,0.0,0.0,0.0,0.0,0.0,0.0,0.0,0.0,0.0,0.0,0.0,0.0,0.0,0.0,0.0,0.0,0.0,0.0,0.0,0.0,0.0,0.0,0.0,0.0,0.0,0.0,0.0,0.0,0.0,0.0,0.0,0.0,0.0,0.0,0.0,0.0,0.0,0.0,0.0,0.0,0.0,0.0,0.0,0.0,0.0,0.0,0.0,0.0,0.0,0.0,0.0,0.0,0.0,0.0,0.0,0.0,0.0,0.0,0.0,0.0,0.0,0.0,0.0,0.0,0.0,0.0,0.0,0.0,0.0,0.0,0.0,0.0,0.0,0.0,0.0,0.0,0.0,0.0,0.0,0.0,0.0,0.0,0.0,0.0,0.0,0.0,0.0,0.0,0.0,0.0,0.0,0.0,0.0,0.0,0.0,2.2884,2.261,2.2868,2.2536,2.1837,2.2485,2.2955,0.0,0.0,0.0,0.0,0.0,0.0,0.0,0.0,0.0,0.0,0.0,0.0,0.0,0.0,0.0,0.0,0.0,0.0,0.0,0.0,0.0,0.0,0.0,0.0,0.0,0.0,0.0,0.0,0.0,0.0,0.0,0.0,0.0,0.0,0.0,0.0,0.0,0.0,0.0,0.0,0.0,0.0,0.0,0.0,0.0,0.0,0.0,0.0,0.0,0.0,0.0,0.0,0.0,0.0,0.0,0.0,0.0,0.0,0.0,0.0,0.0,0.0,0.0,0.0,0.0,0.0,0.0,0.0,0.0,0.0,0.0,0.0,0.0,0.0,0.0,0.0,0.0,0.0,0.0,0.0,0.0,0.0,0.0,0.0,0.0,0.0,0.0,0.0,0.0,0.0,0.0,0.0,0.0,0.0,0.0,0.0,0.0,0.0,0.0,0.0,0.0,0.0,0.0,0.0,0.0,0.0,0.0,0.0,0.0,2.1891,2.1713,2.1267,2.0657,2.1317,2.2003,0.0,0.0,0.0,0.0,0.0,0.0,0.0,0.0,0.0,0.0,0.0,0.0,0.0,0.0,0.0,0.0,0.0,0.0,0.0,0.0,0.0,0.0,0.0,0.0,0.0,0.0,0.0,0.0,0.0,0.0,0.0,0.0,0.0,0.0,0.0,0.0,0.0,0.0,0.0,0.0,0.0,0.0,0.0,0.0,0.0,0.0,0.0,0.0,0.0,0.0,0.0,0.0,0.0,0.0,0.0,0.0,0.0,0.0,0.0,0.0,0.0,0.0,0.0,0.0,0.0,0.0,0.0,0.0,0.0,0.0,0.0,0.0,0.0,0.0,0.0,0.0,0.0,0.0,0.0,0.0,0.0,0.0,0.0,0.0,0.0,0.0,0.0,0.0,0.0,0.0,0.0,0.0,0.0,0.0,0.0,0.0,0.0,0.0,0.0,0.0,0.0,0.0,0.0,0.0,0.0,0.0,0.0,0.0,0.0,2.0661,2.033,2.0018,1.9868,2.0735,2.1575,0.0,0.0,0.0,0.0,0.0,0.0,0.0,0.0,0.0,0.0,0.0,0.0,0.0,0.0,0.0,0.0,0.0,0.0,0.0,0.0,0.0,0.0,0.0,0.0,0.0,0.0,0.0,0.0,0.0,0.0,0.0,0.0,0.0,0.0,0.0,0.0,0.0,0.0,0.0,0.0,0.0,0.0,0.0,0.0,0.0,0.0,0.0,0.0,0.0,0.0,0.0,0.0,0.0,0.0,0.0,0.0,0.0,0.0,0.0,0.0,0.0,0.0,0.0,0.0,0.0,0.0,0.0,0.0,0.0,0.0,0.0,0.0,0.0,0.0,0.0,0.0,0.0,0.0,0.0,0.0,0.0,0.0,0.0,0.0,0.0,0.0,0.0,0.0,0.0,0.0,0.0,0.0,0.0,0.0,0.0,0.0,0.0,0.0,0.0,0.0,0.0,0.0,0.0,0.0,0.0,0.0,0.0,0.0,0.0,1.9063,1.8817,1.8904,1.9436,2.0586,2.1575,0.0,0.0,0.0,0.0,0.0,0.0,0.0,0.0,0.0,0.0,0.0,0.0,0.0,0.0,0.0,0.0,0.0,0.0,0.0,0.0,0.0,0.0,0.0,0.0,0.0,0.0,0.0,0.0,0.0,0.0,0.0,0.0,0.0,0.0,0.0,0.0,0.0,0.0,0.0,0.0,0.0,0.0,0.0,0.0,0.0,0.0,0.0,0.0,0.0,0.0,0.0,0.0,0.0,0.0,0.0,0.0,0.0,0.0,0.0,0.0,0.0,0.0,0.0,0.0,0.0,0.0,0.0,0.0,0.0,0.0,0.0,0.0,0.0,0.0,0.0,0.0,0.0,0.0,0.0,0.0,0.0,0.0,0.0,0.0,0.0,0.0,0.0,0.0,0.0,0.0,0.0,0.0,0.0,0.0,0.0,0.0,0.0,0.0,0.0,0.0,0.0,0.0,0.0,0.0,0.0,0.0,0.0,0.0,0.0,0.0,1.8688,1.8904,1.9436,2.0586,2.1575,2.2342,0.0,0.0,0.0,0.0,0.0,0.0,0.0,0.0,0.0,0.0,0.0,0.0,0.0,0.0,0.0,0.0,0.0,0.0,0.0,0.0,0.0,0.0,0.0,0.0,0.0,0.0,0.0,0.0,0.0,0.0,0.0,0.0,0.0,0.0,0.0,0.0,0.0,0.0,0.0,0.0,0.0,0.0,0.0,0.0,0.0,0.0,0.0,0.0,0.0,0.0,0.0,0.0,0.0,0.0,0.0,0.0,0.0,0.0,0.0,0.0,0.0,0.0,0.0,0.0,0.0,0.0,0.0,0.0,0.0,0.0,0.0,0.0,0.0,0.0,0.0,0.0,0.0,0.0,0.0,0.0,0.0,0.0,0.0,0.0,0.0,0.0,0.0,0.0,0.0,0.0,0.0,0.0,0.0,0.0,0.0,0.0,0.0,0.0,0.0,0.0,0.0,0.0,0.0,0.0,0.0,0.0,0.0,0.0,0.0,0.0,1.8839,1.9235,2.0038,2.0889,0.0,0.0,0.0,0.0,0.0,0.0,0.0,0.0,0.0,0.0,0.0,0.0,0.0,0.0,0.0,0.0,0.0,0.0,0.0,0.0,0.0,0.0,0.0,0.0,0.0,0.0,0.0,0.0,0.0,0.0,0.0,0.0,0.0,0.0,0.0,0.0,0.0,0.0,0.0,0.0,0.0,0.0,0.0,0.0,0.0,0.0,0.0,0.0,0.0,0.0,0.0,0.0,0.0,0.0,0.0,0.0,0.0,0.0,0.0,0.0,0.0,0.0,0.0,0.0,0.0,0.0,0.0,0.0,0.0,0.0,0.0,0.0,0.0,0.0,0.0,0.0,0.0,0.0,0.0,0.0,0.0,0.0,0.0,0.0,0.0,0.0,0.0,0.0,0.0,0.0,0.0,0.0,0.0,0.0,0.0,0.0,0.0,0.0,0.0,0.0,0.0,0.0,0.0,0.0,0.0,0.0,0.0,0.0,0.0,0.0,0.0,1.8753,1.8998,1.9177,0.0,2.0711,0.0,0.0,0.0,0.0,0.0,0.0,0.0,0.0,0.0,0.0,0.0,0.0,0.0,0.0,0.0,0.0,0.0,0.0,0.0,0.0,0.0,0.0,0.0,0.0,0.0,0.0,0.0,0.0,0.0,0.0,0.0,0.0,0.0,0.0,0.0,0.0,0.0,0.0,0.0,0.0,0.0,0.0,0.0,0.0,0.0,0.0,0.0,0.0,0.0,0.0,0.0,0.0,0.0,0.0,0.0,0.0,0.0,0.0,0.0,0.0,0.0,0.0,0.0,0.0,0.0,0.0,0.0,0.0,0.0,0.0,0.0,0.0,0.0,0.0,0.0,0.0,0.0,0.0,0.0,0.0,0.0,0.0,0.0,0.0,0.0,0.0,0.0,0.0,0.0,0.0,0.0,0.0,0.0,0.0,0.0,0.0,0.0,0.0,0.0,0.0,0.0,0.0,0.0,0.0,0.0,0.0,0.0,0.0,0.0,0.0,0.0,0.0,1.843,1.8643,1.9429,0.0,0.0,0.0,0.0,0.0,0.0,0.0,0.0,0.0,0.0,0.0,0.0,0.0,0.0,0.0,0.0,0.0,0.0,0.0,0.0,0.0,0.0,0.0,0.0,0.0,0.0,0.0,0.0,0.0,0.0,0.0,0.0,0.0,0.0,0.0,0.0,0.0,0.0,0.0,0.0,0.0,0.0,0.0,0.0,0.0,0.0,0.0,0.0,0.0,0.0,0.0,0.0,0.0,0.0,0.0,0.0,0.0,0.0,0.0,0.0,0.0,0.0,0.0,0.0,0.0,0.0,0.0,0.0,0.0,0.0,0.0,0.0,0.0,0.0,0.0,0.0,0.0,0.0,0.0,0.0,0.0,0.0,0.0,0.0,0.0,0.0,0.0,0.0,0.0,0.0,0.0,0.0,0.0,0.0,0.0,0.0,0.0,0.0,0.0,0.0,0.0,0.0,0.0,0.0,0.0,0.0,0.0,0.0,0.0,0.0,1.7186,1.7463,1.7474,1.7719,1.8301,0.0,0.0,0.0,0.0,0.0,0.0,0.0,0.0,0.0,0.0,0.0,0.0,0.0,0.0,0.0,0.0,0.0,0.0,0.0,0.0,0.0,0.0,0.0,0.0,0.0,0.0,0.0,0.0,0.0,0.0,0.0,0.0,0.0,0.0,0.0,0.0,0.0,0.0,0.0,0.0,0.0,0.0,0.0,0.0,0.0,0.0,0.0,0.0,0.0,0.0,0.0,0.0,0.0,0.0,0.0,0.0,0.0,0.0,0.0,0.0,0.0,0.0,0.0,0.0,0.0,0.0,0.0,0.0,0.0,0.0,0.0,0.0,0.0,0.0,0.0,0.0,0.0,0.0,0.0,0.0,0.0,0.0,0.0,0.0,0.0,0.0,0.0,0.0,0.0,0.0,0.0,0.0,0.0,0.0,0.0,0.0,0.0,0.0,0.0,0.0,0.0,0.0,0.0,0.0,0.0,0.0,0.0,0.0,0.0,0.0,1.6031,0.0,0.0,0.0,1.7226,0.0,0.0,0.0,0.0,0.0,0.0,0.0,0.0,0.0,0.0,0.0,0.0,0.0,0.0,0.0,0.0,0.0,0.0,0.0,0.0,0.0,0.0,0.0,0.0,0.0,0.0,0.0,0.0,0.0,0.0,0.0,0.0,0.0,0.0,0.0,0.0,0.0,0.0,0.0,0.0,0.0,0.0,0.0,0.0,0.0,0.0,0.0,0.0,0.0,0.0,0.0,0.0,0.0,0.0,0.0,0.0,0.0,0.0,0.0,0.0,0.0,0.0,0.0,0.0,0.0,0.0,0.0,0.0,0.0,0.0,0.0,0.0,0.0,0.0,0.0,0.0,0.0,0.0,0.0,0.0,0.0,0.0,0.0,0.0,0.0,0.0,0.0,0.0,0.0,0.0,0.0,0.0,0.0,0.0,0.0,0.0,0.0,0.0,0.0,0.0,0.0,0.0,0.0,0.0,0.0,0.0,0.0,0.0,0.0,0.0,0.0,0.0,0.0,0.0,0.0,0.0,0.0,0.0,0.0,0.0,0.0,0.0,0.0,0.0,0.0,0.0,0.0,0.0,0.0,0.0,0.0,0.0,0.0,0.0,0.0,0.0,0.0,0.0,0.0,0.0,0.0,0.0,0.0,0.0,0.0,0.0,0.0,0.0,0.0,0.0,0.0,0.0,0.0,0.0,0.0,0.0,0.0,0.0,0.0,0.0,0.0,0.0,0.0,0.0,0.0,0.0,0.0,0.0,0.0,0.0,0.0,0.0,0.0,0.0,0.0,0.0,0.0,0.0,0.0,0.0,0.0,0.0,0.0,0.0,0.0,0.0,0.0,0.0,0.0,0.0,0.0,0.0,0.0,0.0,0.0,0.0,0.0,0.0,0.0,0.0,0.0,0.0,0.0,0.0,0.0,0.0,0.0,0.0,0.0,0.0,0.0,0.0,0.0,0.0,0.0,0.0,0.0,0.0,0.0,0.0,0.0,0.0,0.0,0.0,0.0,0.0,0.0,0.0,0.0,0.0,0.0,0.0,0.0,0.0,0.0,0.0,0.0,0.0,0.0,0.0,0.0,0.0,0.0,0.0,0.0,0.0,0.0,0.0,0.0,0.0,0.0,0.0,0.0,0.0,0.0,0.0,0.0,0.0,0.0,0.0,0.0,0.0,0.0,0.0,0.0,0.0,0.0,0.0,0.0,0.0,0.0,0.0,0.0,0.0,0.0,0.0,0.0,0.0,0.0,0.0,0.0,0.0,0.0,0.0,0.0,0.0,0.0,0.0,0.0,0.0,0.0,0.0,0.0,0.0,0.0,0.0,0.0,0.0,0.0,0.0,0.0,0.0,0.0,0.0,0.0,0.0,0.0,0.0,0.0,0.0,0.0,0.0,0.0,0.0,0.0,0.0,0.0,0.0,0.0,0.0,0.0,0.0,0.0,0.0,0.0,0.0,0.0,0.0,0.0,0.0,0.0,0.0,0.0,0.0,0.0,0.0,0.0,0.0,0.0,0.0,0.0,0.0,0.0,0.0,0.0,0.0,0.0,0.0,0.0,0.0,0.0,0.0,0.0,0.0,0.0,0.0,0.0,0.0,0.0,0.0,0.0,0.0,0.0,0.0,0.0,0.0,0.0,0.0,0.0,0.0,0.0,0.0,0.0,0.0,0.0,0.0,0.0,0.0,0.0,0.0,0.0,0.0,0.0,0.0,0.0,0.0,0.0,0.0,0.0,0.0,0.0,0.0,0.0,0.0,0.0,0.0,0.0,0.0,0.0,0.0,0.0,0.0,0.0,0.0,0.0,0.0,0.0,0.0,0.0,0.0,0.0,0.0,0.0,0.0,0.0,0.0,0.0,0.0,0.0,0.0,0.0,0.0,0.0,0.0,0.0,0.0,0.0,0.0,0.0,0.0,0.0,0.0,0.0,0.0,0.0,0.0,0.0,0.0,0.0,0.0,0.0,0.0,0.0,0.0,0.0,0.0,0.0,0.0,0.0,0.0,0.0,0.0,0.0,0.0,0.0,0.0,0.0,0.0,0.0,0.0,0.0,0.0,0.0,0.0,0.0,0.0,0.0,0.0,0.0,0.0,0.0,0.0,0.0,0.0,0.0,0.0,0.0,0.0,0.0,0.0,0.0,0.0,0.0,0.0,0.0,0.0,0.0,0.0,0.0,0.0,0.0,0.0,0.0,0.0,0.0,0.0,0.0,0.0,0.0,0.0,0.0,0.0,0.0,0.0,0.0,0.0,0.0,0.0,0.0,0.0,0.0,0.0,0.0,0.0,0.0,0.0,0.0,0.0,0.0,0.0,0.0,0.0,0.0,0.0,0.0,0.0,0.0,0.0,0.0,0.0,0.0,0.0,0.0,0.0,0.0,0.0,0.0,0.0,0.0,0.0,0.0,0.0,0.0,0.0,0.0,0.0,0.0,0.0,0.0,0.0,0.0,0.0,0.0,0.0,0.0,0.0,0.0,0.0,0.0,0.0,0.0,0.0,0.0,0.0,0.0,0.0,0.0,0.0,0.0,0.0,0.0,0.0,0.0,0.0,0.0,0.0,0.0,0.0,0.0,0.0,0.0,0.0,0.0,0.0,0.0,0.0,0.0,0.0,0.0,0.0,0.0,0.0,0.0,0.0,0.0,0.0,0.0,0.0,0.0,0.0,0.0,0.0,0.0,0.0,0.0,0.0,0.0,0.0,0.0,0.0,0.0,0.0,0.0,0.0,0.0,0.0,0.0,0.0,0.0,0.0,0.0,0.0,0.0,0.0,0.0,0.0,0.0,0.0,0.0,0.0,0.0,0.0,0.0,0.0,0.0,0.0,0.0,0.0,0.0,0.0,0.0,0.0,0.0,0.0,0.0,0.0,0.0,0.0,0.0,0.0,0.0,0.0,0.0,0.0,0.0,0.0,0.0,0.0,0.0,0.0,0.0,0.0,0.0,0.0,0.0,0.0,0.0,0.0,0.0,0.0,0.0,0.0,0.0,0.0,0.0,0.0,0.0,0.0,0.0,0.0,0.0,0.0,0.0,0.0,0.0,0.0,0.0,0.0,0.0,0.0,0.0,0.0,0.0,0.0,0.0,0.0,0.0,0.0,0.0,0.0,0.0,0.0,0.0,0.0,0.0,0.0,0.0,0.0,0.0,0.0,0.0,0.0,0.0,0.0,0.0,0.0,0.0,0.0,0.0,0.0,0.0,0.0,0.0,0.0,0.0,0.0,0.0,0.0,0.0,0.0,0.0,0.0,0.0,0.0,0.0,0.0,0.0,0.0,0.0,0.0,0.0,0.0,0.0,0.0,0.0,0.0,0.0,0.0,0.0,0.0,0.0,0.0,0.0,0.0,0.0,0.0,0.0,0.0,0.0,0.0,0.0,0.0,0.0,0.0,0.0,0.0,0.0,0.0,0.0,0.0,0.0,0.0,0.0,0.0,0.0,0.0,0.0,0.0,0.0,0.0,0.0,0.0,0.0,0.0,0.0,0.0,0.0,0.0,0.0,0.0,0.0,0.0,0.0,0.0,0.0,0.0,0.0,0.0,0.0,0.0,0.0,0.0,0.0,0.0,0.0,0.0,0.0,0.0,0.0,0.0,0.0,0.0,0.0,0.0,0.0,0.0,0.0,0.0,0.0,0.0,0.0,0.0,0.0,0.0,0.0,0.0,0.0,0.0,0.0,0.0,0.0,0.0,0.0,0.0,0.0,0.0,0.0,0.0,0.0,0.0,0.0,0.0,0.0,0.0,0.0,0.0,0.0,0.0,0.0,0.0,0.0,0.0,0.0,0.0,0.0,0.0,0.0,0.0,0.0,0.0,0.0,0.0,0.0,0.0,0.0,0.0,0.0,0.0,0.0,0.0,0.0,0.0,0.0,0.0,0.0,0.0,0.0,0.0,0.0,0.0,0.0,0.0,0.0,0.0,0.0,0.0,0.0,0.0,0.0,0.0,0.0,0.0,0.0,0.0,0.0,0.0,0.0,0.0,0.0,0.0,0.0,0.0,0.0,0.0,0.0,0.0,0.0,0.0,0.0,0.0,0.0,0.0,0.0,0.0,0.0,0.0,0.0,0.0,0.0,0.0,0.0,0.0,0.0,0.0,0.0,0.0,0.0,0.0,0.0,0.0,0.0,0.0,0.0,0.0,0.0,0.0,0.0,0.0,0.0,0.0,0.0,0.0,0.0,0.0,0.0,0.0,0.0,0.0,0.0,0.0,0.0,0.0,0.0,0.0,0.0,0.0,0.0,0.0,0.0,0.0,0.0,0.0,0.0,0.0,0.0,0.0,0.0,0.0,0.0,0.0,0.0,0.0,0.0,0.0,0.0,0.0,0.0,0.0,0.0,0.0,0.0,0.0,0.0,0.0,0.0,0.0,0.0,0.0]}]]]